      2.1           OBSERVATION DATA    G (GPS)             RINEX VERSION / TYPE
GPSBase 2.30 2380 SAM Inc. 14-Apr-05 15:59:32               PGM / RUN BY / DATE
Sam1                                                        MARKER NAME
Sam1                                                        MARKER NUMBER
                                                            OBSERVER / AGENCY
4416233488 TRIMBLE NETRS 1.1-1                              REC # / TYPE / VERS
     1                                                      RCV CLOCK OFFS APPL
TRM41249.00 TZGD                                            ANT # / TYPE
  -752510.5936 -5463583.5299  3193358.0701                  APPROX POSITION XYZ
        0.0000        0.0000        0.0000                  ANTENNA: DELTA H/E/N
     1     1     0                                          WAVELENGTH FACT L1/2
     6    C1    P2    L1    L2    D1    D2                  # / TYPES OF OBSERV
     5.000                                                  INTERVAL
  2005     4    14    21     0    0.0000000     GPS         TIME OF FIRST OBS
                                                            END OF HEADER
 05  4 14 21  0  0.0000000  0 10G18G14G06G22G09G29G26G03G21G15
  21070711.905    21070707.861   -23210209.13608 -18077366.50804       183.584
       143.053
  23255525.126    23255524.059    -9420689.01005  -7327741.25701      3222.886
      2511.340
  23414112.128    23414113.549    -9267769.32106  -7208521.05701     -3373.266
     -2628.519
  22017642.298    22017637.359   -16685523.22807 -12984570.71903      1243.545
       968.996
  22338320.601    22338318.058   -15275185.24707 -11880902.17901      1972.500
      1537.013
  24860848.649    24860847.123     -628383.50705   -479278.16701     -3428.457
     -2671.525
  22876616.378    22876613.885   -11693084.79506  -9103583.37901     -3525.444
     -2747.099
  24176142.253    24176140.790    -4981673.75206  -3874476.09601      1807.466
      1408.415
  20131489.300    20131484.719   -27476745.45609 -21390572.53305        52.886
        41.210
  21166192.718    21166190.408   -20894379.27509 -16274258.94803      2404.854
      1873.912
 05  4 14 21  0  5.0000000  0 10G18G14G06G22G09G29G26G03G21G15
  21070537.853    21070533.774   -23211124.46109 -18078079.73404       182.597
       142.283
  23252458.321    23252458.562    -9436799.48905  -7340294.83801      3221.312
      2510.114
  23417321.856    23417323.793    -9250901.58806  -7195377.40101     -3373.800
     -2628.935
  22016459.143    22016454.883   -16691738.49408 -12989413.78203      1242.528
       968.204
  22336445.239    22336442.556   -15285041.14907 -11888582.08401      1969.930
      1535.011
  24864110.141    24864109.382     -611240.19605   -465919.76201     -3428.888
     -2671.861
  22879970.727    22879969.058   -11675454.60606  -9089845.57601     -3526.773
     -2748.135
  24174423.826    24174422.760    -4990704.45106  -3881513.00201      1804.901
      1406.417
  20131440.372    20131435.853   -27477003.15709 -21390773.33805        50.204
        39.120
  21163905.395    21163902.460   -20906399.92109 -16283625.68803      2403.451
      1872.819
 05  4 14 21  0 10.0000000  0 10G18G14G06G22G09G29G26G03G21G15
  21070364.444    21070360.462   -23212035.76209 -18078789.85104       181.721
       141.601
  23249395.139    23249394.629    -9452902.99805  -7352843.00201      3219.904
      2509.016
  23420531.665    23420533.856    -9234032.45506  -7182232.66501     -3374.104
     -2629.172
  22015277.121    22015272.530   -16697949.94008 -12994253.86602      1241.833
       967.662
  22334571.833    22334569.178   -15294885.28408 -11896252.83401      1967.648
      1533.232
  24867372.462    24867371.785     -594096.31405   -452560.90101     -3429.002
     -2671.949
  22883327.360    22883324.709   -11657818.66706  -9076103.29701     -3527.923
     -2749.031
  24172707.599    24172706.501    -4999722.80605  -3888540.28701      1802.400
      1404.467
  20131393.694    20131388.767   -27477248.53809 -21390964.55405        47.805
        37.250
  21161618.758    21161616.466   -20918414.26909 -16292987.51003      2402.175
      1871.824
 05  4 14 21  0 15.0000000  0 10G18G14G06G22G09G29G26G03G21G15
  21070191.760    21070187.920   -23212943.11509 -18079496.87804       181.041
       141.071
  23246331.677    23246331.792    -9468999.58305  -7365385.76301      3218.653
      2508.042
  23423742.767    23423744.177    -9217161.88706  -7169086.81401     -3374.388
     -2629.394
  22014095.451    22014091.365   -16704157.55108 -12999090.96303      1241.051
       967.053
  22332700.445    22332698.340   -15304717.62408 -11903914.38801      1965.226
      1531.345
  24870635.338    24870633.717     -576951.94505   -439201.66301     -3429.042
     -2671.980
  22886684.034    22886681.932   -11640177.05606  -9062356.57601     -3528.885
     -2749.781
  24170993.927    24170992.816    -5008728.86505  -3895557.96201      1799.860
      1402.488
  20131349.484    20131344.370   -27477481.69609 -21391146.23805        45.446
        35.412
  21159333.937    21159331.387   -20930422.38009 -16302344.46803      2400.958
      1870.877
 05  4 14 21  0 20.0000000  0 10G18G14G06G22G09G29G26G03G21G15
  21070019.898    21070015.805   -23213846.56209 -18080200.86104       180.335
       140.521
  23243269.421    23243270.069    -9485089.22705  -7377923.12101      3217.167
      2506.883
  23426953.005    23426954.479    -9200289.97906  -7155939.89301     -3374.474
     -2629.460
  22012915.520    22012911.106   -16710361.39308 -13003925.10803      1240.409
       966.552
  22330832.075    22330829.636   -15314538.25308 -11911566.82401      1962.953
      1529.573
  24873896.848    24873896.237     -559807.09905   -425842.05801     -3429.035
     -2671.975
  22890042.355    22890039.818   -11622529.77407  -9048605.46801     -3529.904
     -2750.575
  24169281.499    24169281.497    -5017722.66205  -3902566.13301      1797.489
      1400.640
  20131307.324    20131302.365   -27477702.62509 -21391318.39405        42.972
        33.485
  21157050.348    21157047.728   -20942424.28009 -16311696.59403      2399.798
      1869.973
 05  4 14 21  0 25.0000000  0 10G18G14G06G22G09G29G26G03G21G15
  21069849.028    21069845.135   -23214745.79008 -18080901.55504       179.566
       139.921
  23240209.281    23240209.121    -9501171.67605  -7390454.87701      3215.879
      2505.880
  23430163.753    23430165.448    -9183416.36806  -7142791.67001     -3374.624
     -2629.577
  22011735.256    22011731.261   -16716561.11807 -13008756.06102      1239.693
       965.994
  22328965.350    22328963.023   -15324346.87507 -11919209.88801      1960.689
      1527.809
  24877160.139    24877159.427     -542661.44205   -412481.82401     -3429.150
     -2672.065
  22893401.738    22893399.310   -11604876.61406  -9034849.77401     -3531.088
     -2751.498
  24167573.106    24167572.639    -5026703.86305  -3909564.45201      1794.981
      1398.687
  20131267.882    20131263.385   -27477911.01909 -21391480.78005        40.562
        31.607
  21154767.192    21154765.142   -20954419.60009 -16321043.59403      2398.506
      1868.966
 05  4 14 21  0 30.0000000  0 10G18G14G06G22G09G29G26G03G21G15
  21069678.107    21069674.371   -23215641.05909 -18081599.16804       178.785
       139.313
  23237150.189    23237149.749    -9517247.19205  -7402981.20401      3214.493
      2504.800
  23433375.513    23433376.438    -9166541.50507  -7129642.44901     -3374.877
     -2629.774
  22010556.194    22010551.877   -16722757.13307 -13013584.11602      1239.083
       965.519
  22327101.184    22327099.219   -15334143.75508 -11926843.82501      1958.336
      1525.976
  24880422.755    24880422.350     -525515.35605   -399121.25101     -3429.057
     -2671.992
  22896761.601    22896760.275   -11587217.86806  -9021089.70901     -3532.250
     -2752.403
  24165866.204    24165865.704    -5035672.80205  -3916553.24801      1792.877
      1397.047
  20131230.169    20131225.833   -27478107.17209 -21391633.62505        38.135
        29.716
  21152486.033    21152483.455   -20966408.69709 -16330385.73203      2397.364
      1868.076
 05  4 14 21  0 35.0000000  0 10G18G14G06G22G09G29G26G03G21G15
  21069508.762    21069504.859   -23216532.12409 -18082293.50204       177.931
       138.647
  23234092.209    23234092.030    -9533315.49705  -7415501.93501      3213.121
      2503.731
  23436586.815    23436587.808    -9149665.02507  -7116491.96901     -3375.360
     -2630.151
  22009377.890    22009373.542   -16728949.09807 -13018409.00702      1238.072
       964.732
  22325238.818    22325236.870   -15343928.58507 -11934468.36801      1955.880
      1524.062
  24883685.843    24883685.849     -508368.52505   -385760.09701     -3429.276
     -2672.163
  22900122.914    22900121.719   -11569553.25506  -9007325.07601     -3533.534
     -2753.403
  24164161.663    24164161.423    -5044629.15105  -3923532.21801      1790.108
      1394.890
  20131195.425    20131190.533   -27478290.81509 -21391776.72405        35.680
        27.802
  21150205.486    21150203.370   -20978391.24609 -16339722.79303      2395.992
      1867.007
 05  4 14 21  0 40.0000000  0 10G18G14G06G22G09G29G26G03G21G15
  21069339.892    21069335.998   -23217419.31509 -18082984.81504       177.073
       137.979
  23231036.328    23231035.895    -9549376.89505  -7428017.27101      3211.594
      2502.541
  23439799.466    23439799.935    -9132787.26707  -7103340.49101     -3375.627
     -2630.359
  22008200.464    22008196.169   -16735137.33208 -13023231.00502      1237.322
       964.147
  22323379.456    22323377.048   -15353701.64007 -11942083.72301      1953.455
      1522.172
  24886948.994    24886948.829     -491221.26805   -372398.58801     -3429.490
     -2672.330
  22903486.142    22903484.148   -11551883.11806  -8993556.14901     -3534.573
     -2754.213
  24162459.372    24162458.975    -5053573.22605  -3930501.60401      1787.600
      1392.935
  20131162.896    20131158.021   -27478462.19709 -21391910.26705        33.069
        25.768
  21147926.608    21147923.769   -20990367.53409 -16349054.96303      2394.675
      1865.981
 05  4 14 21  0 45.0000000  0 10G18G14G06G22G09G29G26G03G21G15
  21069172.129    21069168.166   -23218302.45209 -18083672.98204       176.106
       137.226
  23227981.236    23227980.259    -9565431.24505  -7440527.12901      3210.042
      2501.331
  23443010.844    23443011.575    -9115908.09307  -7090187.91501     -3376.203
     -2630.808
  22007023.638    22007019.178   -16741321.70408 -13028049.98202      1236.370
       963.405
  22321521.869    22321519.669   -15363462.82107 -11949689.82602      1950.921
      1520.198
  24890211.860    24890211.890     -474073.55105   -359036.80101     -3429.675
     -2672.474
  22906849.128    22906847.637   -11534207.35407  -8979782.83801     -3535.822
     -2755.186
  24160760.181    24160759.093    -5062504.88405  -3937461.36001      1784.837
      1390.782
  20131132.764    20131127.698   -27478621.24009 -21392034.20405        30.437
        23.717
  21145649.009    21145646.480   -21002337.44909 -16358382.15603      2393.269
      1864.885
 05  4 14 21  0 50.0000000  0 10G18G14G06G22G09G29G26G03G21G15
  21069004.330    21069000.754   -23219181.61708 -18084358.03804       175.200
       136.519
  23224927.123    23224927.133    -9581478.51205  -7453031.46501      3208.496
      2500.127
  23446223.011    23446223.161    -9099027.58307  -7077034.29701     -3376.412
     -2630.970
  22005847.370    22005843.400   -16747502.21707 -13032865.95703      1235.522
       962.745
  22319666.379    22319664.291   -15373212.07607 -11957286.64601      1948.432
      1518.259
  24893474.909    24893474.787     -456925.26405   -345674.44901     -3429.961
     -2672.697
  22910213.685    22910212.000   -11516525.93806  -8966005.12301     -3536.992
     -2756.098
  24159063.350    24159061.834    -5071424.14005  -3944411.42701      1782.397
      1388.881
  20131104.847    20131099.879   -27478767.92409 -21392148.51405        27.895
        21.736
  21143372.556    21143369.617   -21014300.98809 -16367704.38503      2391.933
      1863.844
 05  4 14 21  0 55.0000000  0 10G18G14G06G22G09G29G26G03G21G15
  21068838.238    21068833.865   -23220057.03409 -18085040.18404       174.630
       136.075
  23221875.611    23221874.180    -9597519.03405  -7465530.54801      3207.501
      2499.351
  23449435.748    23449436.072    -9082145.92207  -7063879.76901     -3376.498
     -2631.037
  22004671.806    22004668.070   -16753679.13708 -13037679.13902      1234.977
       962.319
  22317813.416    22317811.600   -15382949.66207 -11964874.36901      1946.305
      1516.601
  24896738.505    24896737.571     -439776.79105   -332312.05401     -3429.726
     -2672.513
  22913580.064    22913577.603   -11498839.11406  -8952223.19301     -3537.924
     -2756.824
  24157367.793    24157366.971    -5080331.20205  -3951352.01701      1780.064
      1387.063
  20131079.131    20131074.313   -27478902.52009 -21392253.39005        25.606
        19.953
  21141096.889    21141094.471   -21026258.36509 -16377021.81803      2390.733
      1862.909
 05  4 14 21  1  0.0000000  0 10G18G14G06G22G09G29G26G03G21G15
  21068672.443    21068668.375   -23220928.17109 -18085718.98904       173.784
       135.416
  23218824.295    23218823.542    -9613552.24306  -7478023.93001      3206.001
      2498.183
  23452648.416    23452648.856    -9065262.71706  -7050724.04101     -3376.772
     -2631.251
  22003497.731    22003493.248   -16759851.95008 -13042489.12502      1234.141
       961.668
  22315962.224    22315961.370   -15392675.07307 -11972452.60601      1943.828
      1514.671
  24900001.554    24900000.901     -422627.49605   -318948.99801     -3429.843
     -2672.605
  22916946.876    22916944.400   -11481146.45906  -8938436.71401     -3539.052
     -2757.703
  24155675.625    24155674.238    -5089225.66105  -3958282.73501      1777.637
      1385.172
  20131055.630    20131051.027   -27479024.51609 -21392348.44805        23.130
        18.024
  21138822.717    21138820.294   -21038209.13109 -16386334.10503      2389.517
      1861.961
 05  4 14 21  1  5.0000000  0 10G18G14G06G22G09G29G26G03G21G15
  21068507.335    21068503.427   -23221795.49909 -18086394.82604       173.298
       135.037
  23215774.764    23215773.837    -9629578.50205  -7490511.89201      3204.845
      2497.282
  23455861.199    23455861.500    -9048378.33906  -7037567.41201     -3376.824
     -2631.292
  22002323.112    22002319.370   -16766021.11107 -13047296.24803      1233.659
       961.293
  22314114.049    22314112.571   -15402388.71507 -11980021.66401      1941.779
      1513.075
  24903265.440    24903264.729     -405477.90805   -305585.66201     -3429.642
     -2672.448
  22920314.760    22920312.284   -11463448.46406  -8924646.06601     -3539.935
     -2758.391
  24153985.087    24153983.575    -5098107.86205  -3965203.93801      1775.402
      1383.430
  20131034.886    20131030.082   -27479134.29409 -21392433.99605        20.876
        16.267
  21136550.004    21136547.168   -21050153.63509 -16395641.50203      2388.410
      1861.099
 05  4 14 21  1 10.0000000  0 10G18G14G06G22G09G29G26G03G21G15
  21068343.104    21068339.145   -23222658.54909 -18087067.32804       172.186
       134.171
  23212726.439    23212725.516    -9645597.45406  -7502994.17801      3203.074
      2495.902
  23459074.394    23459074.860    -9031492.35806  -7024409.52001     -3377.385
     -2631.728
  22001150.351    22001146.367   -16772186.19208 -13052100.19602      1232.610
       960.476
  22312267.707    22312266.252   -15412090.15607 -11987581.21101      1939.021
      1510.926
  24906529.104    24906528.538     -388327.63805   -292221.84101     -3430.090
     -2672.797
  22923683.306    22923681.197   -11445744.62807  -8910850.88901     -3541.335
     -2759.482
  24152296.905    24152295.851    -5106977.35405  -3972115.20401      1772.620
      1381.263
  20131016.093    20131011.718   -27479231.43309 -21392509.68905        18.089
        14.095
  21134278.510    21134275.480   -21062091.48909 -16404943.72003      2386.956
      1859.966
 05  4 14 21  1 15.0000000  0 10G18G14G06G22G09G29G26G03G21G15
  21068179.646    21068175.189   -23223517.56509 -18087736.69004       171.387
       133.549
  23209679.188    23209678.705    -9661609.28005  -7515470.90601      3201.558
      2494.721
  23462287.247    23462288.382    -9014605.07505  -7011250.64601     -3377.631
     -2631.920
  21999978.134    21999973.479   -16778347.38008 -13056901.12203      1231.778
       959.827
  22310424.240    22310422.658   -15421779.61007 -11995131.42301      1936.705
      1509.121
  24909793.155    24909792.313     -371176.87805   -278857.62701     -3430.229
     -2672.906
  22927053.333    22927050.955   -11428035.17707  -8897051.32001     -3542.509
     -2760.397
  24150611.811    24150610.556    -5115834.41505  -3979016.80301      1770.050
      1379.259
  20131000.128    20130995.706   -27479316.15208 -21392575.69905        15.635
        12.183
  21132007.584    21132005.183   -21074022.89209 -16414240.91603      2385.601
      1858.910
 05  4 14 21  1 20.0000000  0 10G18G14G06G22G09G29G26G03G21G15
  21068016.837    21068012.376   -23224372.69509 -18088403.02904       170.469
       132.833
  23206633.290    23206632.771    -9677614.10205  -7527942.17801      3200.025
      2493.526
  23465501.124    23465502.189    -8997716.56905  -6998090.80401     -3378.007
     -2632.213
  21998806.274    21998801.878   -16784504.89707 -13061699.18003      1230.943
       959.176
  22308582.719    22308581.088   -15431457.16707 -12002672.37001      1934.268
      1507.222
  24913056.650    24913055.752     -354025.76305   -265493.10101     -3430.395
     -2673.035
  22930424.706    22930422.423   -11410320.33107  -8883247.56001     -3543.661
     -2761.294
  24148928.596    24148927.413    -5124679.12005  -3985908.77801      1767.525
      1377.292
  20130986.413    20130981.622   -27479388.57408 -21392632.13105        13.121
        10.224
  21129738.294    21129735.998   -21085947.95909 -16423533.17003      2384.249
      1857.856
 05  4 14 21  1 25.0000000  0 10G18G14G06G22G09G29G26G03G21G15
  21067854.685    21067850.751   -23225223.83308 -18089066.25204       169.899
       132.389
  23203588.845    23203588.979    -9693611.81105  -7540407.88201      3198.791
      2492.564
  23468715.159    23468716.216    -8980826.78905  -6984929.96701     -3378.055
     -2632.250
  21997635.420    21997630.967   -16790658.52308 -13066494.21703      1230.363
       958.725
  22306743.430    22306742.118   -15441122.75107 -12010203.99002      1931.926
      1505.397
  24916320.848    24916320.032     -336874.20705   -252128.28001     -3430.399
     -2673.038
  22933796.279    22933794.439   -11392599.90006  -8869439.43401     -3544.598
     -2762.024
  24147247.895    24147246.759    -5133511.37705  -3992791.06701      1765.187
      1375.471
  20130975.059    20130970.066   -27479448.61809 -21392678.92905        10.769
         8.391
  21127470.514    21127468.093   -21097866.57709 -16432820.40303      2383.068
      1856.936
 05  4 14 21  1 30.0000000  0 10G18G14G06G22G09G29G26G03G21G15
  21067693.927    21067689.728   -23226070.98509 -18089726.37404       168.978
       131.671
  23200546.453    23200545.633    -9709602.43705  -7552868.10001      3197.323
      2491.420
  23471929.066    23471930.420    -8963935.74405  -6971768.14901     -3378.561
     -2632.645
  21996465.024    21996460.475   -16796808.30108 -13071286.24703      1229.437
       958.003
  22304906.684    22304904.642   -15450776.31507 -12017726.24401      1929.432
      1503.454
  24919584.938    24919583.471     -319722.25905   -238763.12301     -3430.455
     -2673.082
  22937169.902    22937167.775   -11374874.03806  -8855627.08501     -3545.797
     -2762.959
  24145569.931    24145568.630    -5142331.15605  -3999663.61001      1762.767
      1373.585
  20130965.957    20130961.363   -27479496.30209 -21392716.08205         8.187
         6.380
  21125203.714    21125200.705   -21109778.75709 -16442102.61703      2381.727
      1855.891
 05  4 14 21  1 35.0000000  0 10G18G14G06G22G09G29G26G03G21G15
  21067533.440    21067529.309   -23226914.25309 -18090383.46004       168.306
       131.147
  23197504.220    23197503.991    -9725586.01405  -7565322.80301      3196.001
      2490.391
  23475143.768    23475145.190    -8947043.54805  -6958605.43701     -3378.530
     -2632.621
  21995295.336    21995290.235   -16802954.37808 -13076075.39202      1228.897
       957.582
  22303071.462    22303069.761   -15460417.92307 -12025239.17601      1927.120
      1501.652
  24922848.619    24922847.011     -302569.97306   -225397.70001     -3430.454
     -2673.081
  22940544.050    22940541.663   -11357142.68206  -8841810.43601     -3546.743
     -2763.696
  24143894.316    24143893.021    -5151138.53505  -4006526.50701      1760.342
      1371.695
  20130959.113    20130954.412   -27479531.64409 -21392743.61805         5.816
         4.532
  21122938.060    21122935.078   -21121684.52509 -16451379.83303      2380.498
      1854.934
 05  4 14 21  1 40.0000000  0 10G18G14G06G22G09G29G26G03G21G15
  21067373.578    21067369.636   -23227753.40509 -18091037.34104       167.385
       130.430
  23194464.446    23194464.062    -9741562.33905  -7577771.85501      3194.514
      2489.232
  23478358.832    23478359.954    -8930149.96206  -6945441.63201     -3378.904
     -2632.912
  21994126.647    21994121.839   -16809096.53707 -13080861.48102      1228.010
       956.891
  22301239.501    22301236.857   -15470047.37607 -12032742.64501      1924.510
      1499.618
  24926112.964    24926111.355     -285417.11005   -212031.84101     -3430.588
     -2673.186
  22943918.708    22943916.509   -11339405.72906  -8827989.43601     -3547.976
     -2764.656
  24142220.161    24142219.624    -5159933.37905  -4013379.63701      1757.629
      1369.581
  20130954.909    20130949.872   -27479554.45909 -21392761.40105         3.294
         2.566
  21120673.821    21120671.129   -21133583.71509 -16460651.92304      2379.143
      1853.878
 05  4 14 21  1 45.0000000  0 10G18G14G06G22G09G29G26G03G21G15
  21067214.787    21067210.467   -23228588.66308 -18091688.19004       166.627
       129.840
  23191425.680    23191425.355    -9757531.57405  -7590215.38301      3193.053
      2488.093
  23481574.232    23481575.214    -8913255.22106  -6932276.94001     -3379.154
     -2633.107
  21992958.421    21992953.549   -16815234.90907 -13085644.62802      1227.287
       956.327
  22299409.036    22299407.304   -15479664.82707 -12040236.75801      1922.209
      1497.825
  24929376.654    24929375.898     -268263.90905   -198665.73101     -3430.697
     -2673.270
  22947295.335    22947293.429   -11321663.34406  -8814164.22001     -3549.066
     -2765.506
  24140549.295    24140547.730    -5168715.76005  -4020223.04001      1755.245
      1367.724
  20130953.057    20130948.355   -27479564.85809 -21392769.50705         0.871
         0.678
  21118410.735    21118408.141   -21145476.43409 -16469918.97204      2377.863
      1852.880
 05  4 14 21  1 50.0000000  0 10G18G14G06G22G09G29G26G03G21G15
  21067056.202    21067052.336   -23229420.02909 -18092336.00804       165.821
       129.211
  23188387.724    23188387.558    -9773493.72605  -7602653.39101      3191.593
      2486.955
  23484789.166    23484790.768    -8896359.29506  -6919111.31101     -3379.286
     -2633.210
  21991791.119    21991786.107   -16821369.53308 -13090424.83302      1226.461
       955.684
  22297581.093    22297579.599   -15489270.30307 -12047721.54301      1919.859
      1495.994
  24932640.454    24932639.647     -251110.32705   -185299.29301     -3430.786
     -2673.339
  22950672.488    22950670.638   -11303915.55106  -8800334.78301     -3550.161
     -2766.359
  24138879.475    24138878.557    -5177485.73605  -4027056.79401      1752.628
      1365.684
  20130953.409    20130948.563   -27479562.89509 -21392767.97705        -1.645
        -1.282
  21116148.613    21116145.986   -21157362.69809 -16479180.98303      2376.544
      1851.852
 05  4 14 21  1 55.0000000  0 10G18G14G06G22G09G29G26G03G21G15
  21066898.905    21066895.229   -23230247.27609 -18092980.61804       165.239
       128.757
  23185352.148    23185351.285    -9789448.58005  -7615085.71601      3190.361
      2485.995
  23488004.686    23488006.453    -8879462.05906  -6905944.64501     -3379.459
     -2633.344
  21990624.357    21990619.499   -16827500.21408 -13095201.98403      1225.917
       955.260
  22295755.726    22295753.957   -15498863.56307 -12055196.80401      1917.622
      1494.251
  24935905.298    24935904.577     -233956.29005   -171932.53401     -3430.674
     -2673.253
  22954051.022    22954049.144   -11286162.22907  -8786501.03901     -3551.016
     -2767.026
  24137213.169    24137212.858    -5186243.13005  -4033880.71901      1750.424
      1363.967
  20130955.987    20130951.462   -27479548.36509 -21392756.65305        -4.009
        -3.124
  21113888.175    21113885.435   -21169242.34409 -16488437.84503      2375.375
      1850.942
 05  4 14 21  2  0.0000000  0 10G18G14G06G22G09G29G26G03G21G15
  21066742.112    21066738.263   -23231070.49509 -18093622.08404       164.363
       128.075
  23182317.088    23182316.645    -9805396.25705  -7627512.45501      3188.978
      2484.918
  23491220.691    23491222.437    -8862563.58405  -6892777.04801     -3379.709
     -2633.539
  21989458.858    21989453.908   -16833627.08208 -13099976.16203      1225.042
       954.578
  22293932.930    22293930.958   -15508444.70907 -12062662.61701      1915.125
      1492.305
  24939170.258    24939168.749     -216801.78404   -158565.44801     -3430.842
     -2673.383
  22957430.350    22957429.310   -11268403.45306  -8772663.03201     -3552.219
     -2767.962
  24135549.091    24135548.076    -5194987.96005  -4040694.88001      1747.889
      1361.991
  20130961.105    20130956.596   -27479521.40109 -21392735.64705        -6.516
        -5.077
  21111628.734    21111626.070   -21181115.43009 -16497689.60203      2374.051
      1849.910
 05  4 14 21  2  5.0000000  0 10G18G14G06G22G09G29G26G03G21G15
  21066586.212    21066582.195   -23231889.93109 -18094260.60204       163.703
       127.561
  23179283.676    23179282.741    -9821336.88805  -7639933.69901      3187.566
      2483.818
  23494437.038    23494438.175    -8845664.09805  -6879608.64601     -3379.763
     -2633.582
  21988293.217    21988288.916   -16839750.27507 -13104747.47003      1224.441
       954.110
  22292111.819    22292109.576   -15518013.88807 -12070119.11402      1912.776
      1490.474
  24942434.118    24942433.327     -199647.15004   -145198.17101     -3430.852
     -2673.391
  22960810.746    22960809.332   -11250639.36606  -8758820.90701     -3553.225
     -2768.747
  24133888.032    24133886.968    -5203720.48305  -4047499.42801      1745.432
      1360.077
  20130968.492    20130963.822   -27479482.12909 -21392705.04005        -8.948
        -6.972
  21109370.660    21109367.997   -21192982.11209 -16506936.36803      2372.864
      1848.985
 05  4 14 21  2 10.0000000  0 10G18G14G06G22G09G29G26G03G21G15
  21066431.040    21066426.912   -23232705.20209 -18094895.88104       162.806
       126.862
  23176251.415    23176250.606    -9837270.15605  -7652349.20701      3186.053
      2482.639
  23497652.266    23497654.705    -8828763.24505  -6866439.19201     -3380.227
     -2633.943
  21987129.080    21987124.143   -16845869.44507 -13109515.66003      1223.573
       953.433
  22290293.094    22290291.765   -15527570.74607 -12077566.01202      1910.286
      1488.535
  24945698.702    24945697.706     -182492.01205   -131830.52601     -3430.793
     -2673.345
  22964192.452    22964190.512   -11232869.72507  -8744974.44201     -3554.299
     -2769.583
  24132227.841    24132227.318    -5212440.24805  -4054294.04901      1742.772
      1358.004
  20130978.502    20130973.989   -27479430.22409 -21392664.59905       -11.501
        -8.962
  21107113.766    21107110.808   -21204842.03509 -16516177.85503      2371.512
      1847.932
 05  4 14 21  2 15.0000000  0 10G18G14G06G22G09G29G26G03G21G15
  21066276.763    21066272.991   -23233516.63708 -18095528.16204       161.870
       126.133
  23173220.367    23173219.853    -9853196.35805  -7664759.20601      3184.478
      2481.411
  23500869.010    23500871.196    -8811861.38505  -6853268.93601     -3380.610
     -2634.242
  21985964.794    21985960.611   -16851984.97508 -13114280.99203      1222.656
       952.719
  22288476.940    22288475.211   -15537115.60408 -12085003.55302      1907.749
      1486.558
  24948963.021    24948962.654     -165336.63304   -118462.72301     -3431.211
     -2673.671
  22967574.969    22967572.734   -11215094.85307  -8731123.89701     -3555.503
     -2770.521
  24130571.634    24130570.431    -5221147.63805  -4061079.02101      1740.210
      1356.008
  20130990.618    20130986.086   -27479366.00709 -21392614.56005       -14.160
       -11.034
  21104857.852    21104854.860   -21216695.52109 -16525414.33304      2369.995
      1846.750
 05  4 14 21  2 20.0000000  0 10G18G14G06G22G09G29G26G03G21G15
  21066123.471    21066119.239   -23234323.94508 -18096157.22905       160.981
       125.439
  23170191.265    23170191.113    -9869115.15905  -7677163.42901      3182.905
      2480.185
  23504085.522    23504087.582    -8794958.25905  -6840097.70801     -3380.894
     -2634.463
  21984802.335    21984797.269   -16858096.50507 -13119043.22503      1221.772
       952.030
  22286662.773    22286660.701   -15546648.13107 -12092431.49002      1905.248
      1484.609
  24952226.659    24952227.470     -148180.70305   -105094.48901     -3431.285
     -2673.728
  22970958.698    22970956.861   -11197314.38007  -8717268.99801     -3556.729
     -2771.478
  24128917.068    24128915.731    -5229842.29805  -4067854.08701      1737.587
      1353.964
  20131005.361    20131000.666   -27479289.16609 -21392554.68205       -16.700
       -13.013
  21102603.442    21102600.491   -21228542.24209 -16534645.54203      2368.656
      1845.706
 05  4 14 21  2 25.0000000  0 10G18G14G06G22G09G29G26G03G21G15
  21065970.095    21065966.225   -23235127.28609 -18096783.21205       160.194
       124.826
  23167163.944    23167163.154    -9885026.75505  -7689562.05301      3181.590
      2479.161
  23507302.579    23507304.683    -8778053.98506  -6826925.60401     -3381.066
     -2634.597
  21983639.952    21983635.168   -16864204.21407 -13123802.47502      1221.038
       951.458
  22284851.240    22284849.029   -15556168.49007 -12099849.93702      1902.757
      1482.668
  24955491.906    24955492.091     -131024.45604    -91725.98601     -3431.417
     -2673.832
  22974342.719    22974340.904   -11179528.60207  -8703409.96001     -3557.917
     -2772.403
  24127264.779    24127263.331    -5238524.46605  -4074619.41701      1735.150
      1352.065
  20131022.149    20131017.901   -27479199.84309 -21392485.08305       -19.279
       -15.023
  21100350.276    21100347.488   -21240382.37708 -16543871.62503      2367.239
      1844.602
 05  4 14 21  2 30.0000000  0 10G18G14G06G22G09G29G26G03G21G15
  21065818.117    21065814.219   -23235926.78209 -18097406.19605       159.432
       124.233
  23164137.355    23164136.654    -9900931.23605  -7701955.12601      3179.984
      2477.909
  23510519.840    23510521.184    -8761148.65705  -6813752.65201     -3381.271
     -2634.757
  21982478.769    21982473.146   -16870308.31908 -13128558.92103      1220.340
       950.914
  22283041.552    22283040.608   -15565676.80607 -12107259.00201      1900.291
      1480.746
  24958756.225    24958756.445     -113868.04204    -78357.39001     -3431.476
     -2673.878
  22977728.579    22977726.037   -11161737.61407  -8689546.86001     -3558.737
     -2773.042
  24125614.982    24125613.113    -5247194.21705  -4081375.04901      1732.669
      1350.132
  20131041.610    20131036.809   -27479098.18209 -21392405.86805       -21.642
       -16.864
  21098098.482    21098095.656   -21252216.04809 -16553092.65703      2366.053
      1843.678
 05  4 14 21  2 35.0000000  0 10G18G14G06G22G09G29G26G03G21G15
  21065666.854    21065662.855   -23236722.47009 -18098026.21105       158.725
       123.682
  23161111.988    23161111.309    -9916828.65205  -7714342.69801      3178.769
      2476.963
  23513737.272    23513738.855    -8744242.33506  -6800578.94201     -3381.411
     -2634.866
  21981317.789    21981312.441   -16876408.71508 -13133312.46003      1219.726
       950.436
  22281234.070    22281232.890   -15575173.06707 -12114658.67902      1898.061
      1479.009
  24962021.172    24962021.786      -96711.50603    -64988.68401     -3431.358
     -2673.785
  22981115.101    22981112.717   -11143941.39407  -8675679.68601     -3559.717
     -2773.805
  24123967.474    24123966.163    -5255851.52805  -4088121.00801      1730.249
      1348.246
  20131063.322    20131058.894   -27478984.14909 -21392317.01105       -24.077
       -18.762
  21095848.215    21095844.880   -21264043.24409 -16562308.65804      2364.863
      1842.750
 05  4 14 21  2 40.0000000  0 10G18G14G06G22G09G29G26G03G21G15
  21065516.149    21065511.931   -23237513.96109 -18098642.95504       158.039
       123.147
  23158088.836    23158088.054    -9932718.52605  -7726724.39101      3177.331
      2475.843
  23516954.199    23516956.178    -8727334.74406  -6787404.24301     -3381.468
     -2634.910
  21980157.342    21980152.831   -16882504.98708 -13138062.80303      1219.011
       949.878
  22279429.383    22279427.767   -15584656.85507 -12122048.62902      1895.632
      1477.116
  24965286.103    24965286.016      -79554.31404    -51619.49701     -3431.463
     -2673.867
  22984502.329    22984500.432   -11126139.56907  -8661808.15101     -3560.867
     -2774.702
  24122322.546    24122321.156    -5264496.04005  -4094856.98101      1727.688
      1346.250
  20131087.508    20131082.697   -27478857.37309 -21392218.23205       -26.492
       -20.643
  21093598.785    21093595.647   -21275863.54709 -16571519.27503      2363.513
      1841.698
 05  4 14 21  2 45.0000000  0 10G18G14G06G22G09G29G26G03G21G15
  21065366.207    21065362.520   -23238301.57609 -18099256.67104       157.131
       122.440
  23155066.326    23155065.533    -9948601.22105  -7739100.48901      3175.696
      2474.568
  23520171.859    23520173.701    -8710426.11006  -6774228.71501     -3381.810
     -2635.177
  21978998.249    21978993.398   -16888597.55607 -13142810.25003      1218.176
       949.228
  22277627.366    22277625.677   -15594128.48707 -12129429.10902      1893.034
      1475.092
  24968551.255    24968551.180      -62396.93003    -38250.11301     -3431.507
     -2673.901
  22987890.882    22987888.972   -11108332.54107  -8647932.54001     -3561.990
     -2775.577
  24120679.671    24120678.302    -5273128.07105  -4101583.23501      1725.090
      1344.226
  20131114.024    20131109.522   -27478718.15709 -21392109.74405       -29.060
       -22.645
  21091350.305    21091347.479   -21287677.29109 -16580724.78103      2362.063
      1840.568
 05  4 14 21  2 50.0000000  0 10G18G14G06G22G09G29G26G03G21G15
  21065217.202    21065213.375   -23239085.28509 -18099867.36004       156.471
       121.926
  23152045.120    23152044.644    -9964476.78905  -7751471.03701      3174.469
      2473.612
  23523389.983    23523391.064    -8693516.51106  -6761052.43001     -3381.888
     -2635.238
  21977839.698    21977834.544   -16894686.49508 -13147554.87403      1217.526
       948.722
  22275827.840    22275825.750   -15603587.97408 -12136800.13302      1890.719
      1473.288
  24971816.990    24971816.022      -45239.38204    -24880.61701     -3431.463
     -2673.868
  22991280.565    22991279.057   -11090520.27406  -8634052.86101     -3562.811
     -2776.216
  24119039.731    24119038.494    -5281747.58905  -4108299.77201      1722.731
      1342.388
  20131143.031    20131138.550   -27478566.51309 -21391991.58605       -31.561
       -24.593
  21089103.776    21089101.166   -21299484.47609 -16589925.18703      2360.837
      1839.613
 05  4 14 21  2 55.0000000  0 10G18G14G06G22G09G29G26G03G21G15
  21065068.968    21065064.920   -23239865.02809 -18100474.95604       155.574
       121.226
  23149025.070    23149025.286    -9980345.08105  -7763835.91001      3172.942
      2472.422
  23526607.638    23526609.433    -8676605.82606  -6747875.29701     -3382.200
     -2635.480
  21976681.745    21976676.772   -16900771.61408 -13152296.51803      1216.633
       948.026
  22274029.301    22274028.307   -15613035.24207 -12144161.63002      1888.259
      1471.371
  24975081.919    24975080.869      -28081.55604    -11510.86801     -3431.770
     -2674.107
  22994671.129    22994668.670   -11072702.78507  -8620169.10801     -3563.987
     -2777.133
  24117401.649    24117399.966    -5290354.59305  -4115006.46401      1720.154
      1340.380
  20131174.121    20131169.887   -27478402.36709 -21391863.68605       -34.050
       -26.533
  21086858.477    21086855.447   -21311285.03609 -16599120.42203      2359.421
      1838.510
 05  4 14 21  3  0.0000000  0 10G18G14G06G22G09G29G26G03G21G15
  21064921.188    21064917.230   -23240640.82808 -18101079.47804       154.871
       120.679
  23146007.592    23146006.817    -9996206.00305  -7776195.04001      3171.483
      2471.285
  23529826.118    23529827.710    -8659694.11506  -6734697.38301     -3382.370
     -2635.613
  21975524.536    21975519.152   -16906852.89808 -13157035.17703      1215.926
       947.475
  22272234.802    22272232.247   -15622470.18807 -12151513.53701      1885.799
      1469.454
  24978347.488    24978345.534      -10923.44704      1859.05801     -3431.525
     -2673.916
  22998062.346    22998060.547   -11054879.93707  -8606281.18201     -3565.104
     -2778.003
  24115766.327    24115764.426    -5298948.96805  -4121703.40701      1717.645
      1338.425
  20131207.504    20131203.004   -27478225.66609 -21391725.99705       -36.530
       -28.465
  21084613.902    21084610.758   -21323078.87109 -16608310.41303      2358.201
      1837.560
 05  4 14 21  3  5.0000000  0 10G18G14G06G22G09G29G26G03G21G15
  21064774.426    21064770.194   -23241412.66609 -18101680.90304       154.055
       120.043
  23142989.874    23142990.023   -10012059.69705  -7788548.53901      3170.008
      2470.136
  23533044.271    23533046.283    -8642781.38006  -6721518.65801     -3382.527
     -2635.735
  21974367.976    21974362.648   -16912930.45108 -13161770.92403      1215.173
       946.888
  22270441.110    22270439.447   -15631892.80808 -12158855.82402      1883.377
      1467.566
  24981612.876    24981611.150        6234.90504     15229.20801     -3431.482
     -2673.882
  23001454.818    23001453.410   -11037051.87407  -8592389.19201     -3566.077
     -2778.761
  24114133.368    24114131.335    -5307530.72205  -4128390.47501      1715.105
      1336.446
  20131243.748    20131239.088   -27478036.43809 -21391578.54705       -39.055
       -30.433
  21082370.839    21082368.287   -21334866.00209 -16617495.19203      2356.833
      1836.493
 05  4 14 21  3 10.0000000  0 10G18G14G06G22G09G29G26G03G21G15
  21064628.042    21064624.095   -23242180.74209 -18102279.40904       153.345
       119.489
  23139974.262    23139974.102   -10027906.25405  -7800896.46601      3168.681
      2469.102
  23536263.277    23536264.548    -8625867.78906  -6708339.25601     -3382.563
     -2635.764
  21973211.891    21973206.953   -16919004.39408 -13166503.86403      1214.531
       946.388
  22268650.140    22268648.504   -15641303.33007 -12166188.69902      1881.035
      1465.742
  24984877.378    24984876.068       23393.33204     28599.39601     -3431.553
     -2673.938
  23004848.556    23004847.059   -11019218.74807  -8578493.27001     -3566.919
     -2779.417
  24112503.373    24112500.774    -5316100.07305  -4135067.89801      1712.769
      1334.625
  20131281.969    20131277.207   -27477834.87709 -21391421.48605       -41.440
       -32.291
  21080129.006    21080126.034   -21346646.64409 -16626674.90603      2355.581
      1835.517
 05  4 14 21  3 15.0000000  0 10G18G14G06G22G09G29G26G03G21G15
  21064482.849    21064478.635   -23242944.52609 -18102874.55704       152.611
       118.918
  23136959.912    23136960.449   -10043745.21105  -7813238.49201      3167.396
      2468.101
  23539481.418    23539483.007    -8608952.82306  -6695158.78801     -3382.887
     -2636.016
  21972056.989    21972051.901   -16925074.22107 -13171233.59903      1213.768
       945.793
  22266861.775    22266859.655   -15650701.24407 -12173511.73702      1878.597
      1463.842
  24988142.998    24988141.091       40552.32504     41970.05401     -3431.677
     -2674.034
  23008242.883    23008241.531   -11001380.07207  -8564593.01801     -3567.980
     -2780.244
  24110875.169    24110872.423    -5324656.55405  -4141735.28001      1710.228
      1332.645
  20131323.008    20131318.624   -27477620.46209 -21391254.41905       -43.937
       -34.237
  21077888.711    21077885.981   -21358420.26009 -16635849.15003      2354.232
      1834.466
 05  4 14 21  3 20.0000000  0 10G18G14G06G22G09G29G26G03G21G15
  21064338.169    21064334.268   -23243704.62208 -18103466.83604       151.843
       118.320
  23133947.320    23133947.351   -10059577.09305  -7825574.98201      3165.823
      2466.875
  23542700.078    23542702.146    -8592037.16606  -6681977.79301     -3382.971
     -2636.081
  21970902.515    21970897.521   -16931140.49707 -13175960.56303      1213.045
       945.230
  22265076.334    22265073.914   -15660087.03607 -12180825.32702      1876.116
      1461.909
  24991408.028    24991406.995       57711.29804     55340.68701     -3431.452
     -2673.859
  23011638.965    23011637.078   -10983536.36807  -8550688.85401     -3569.123
     -2781.135
  24109247.970    24109246.451    -5333200.66305  -4148393.04301      1707.737
      1330.704
  20131366.265    20131362.093   -27477393.72909 -21391077.75005       -46.462
       -36.204
  21075649.478    21075646.363   -21370187.39909 -16645018.34103      2352.898
      1833.427
 05  4 14 21  3 25.0000000  0 10G18G14G06G22G09G29G26G03G21G15
  21064194.144    21064190.359   -23244460.57709 -18104055.89504       150.869
       117.560
  23130936.214    23130936.288   -10075401.40505  -7837905.58701      3164.126
      2465.553
  23545919.740    23545921.616    -8575120.31806  -6668795.86901     -3383.418
     -2636.430
  21969748.573    21969743.926   -16937202.83207 -13180684.45503      1212.119
       944.509
  22263291.889    22263289.951   -15669460.29008 -12188129.15802      1873.359
      1459.761
  24994672.776    24994671.691       74870.66505     68711.59801     -3431.787
     -2674.120
  23015035.853    23015033.678   -10965687.30507  -8536780.49701     -3570.454
     -2782.172
  24107625.135    24107622.841    -5341731.93705  -4155040.76501      1705.034
      1328.598
  20131411.581    20131407.105   -27477154.25509 -21390891.14805       -49.140
       -38.291
  21073411.511    21073408.558   -21381947.60009 -16654182.13603      2351.358
      1832.227
 05  4 14 21  3 30.0000000  0 10G18G14G06G22G09G29G26G03G21G15
  21064050.904    21064046.792   -23245212.57109 -18104641.86404       150.018
       116.897
  23127926.182    23127925.896   -10091218.44705  -7850230.52501      3162.674
      2464.422
  23549139.712    23549140.770    -8558202.49606  -6655613.16501     -3383.727
     -2636.670
  21968596.245    21968590.856   -16943261.39208 -13185405.40603      1211.307
       943.876
  22261511.168    22261508.861   -15678821.25808 -12195423.41202      1870.965
      1457.895
  24997938.582    24997937.277       92030.23304     82082.71301     -3432.008
     -2674.292
  23018433.562    23018431.542   -10947833.08607  -8522868.12901     -3571.412
     -2782.919
  24106003.930    24106001.745    -5350250.64006  -4161678.74901      1702.518
      1326.637
  20131459.414    20131455.415   -27476902.24209 -21390694.77405       -51.642
       -40.241
  21071174.861    21071171.836   -21393701.11409 -16663340.70403      2350.086
      1831.236
 05  4 14 21  3 35.0000000  0 10G18G14G06G22G09G29G26G03G21G15
  21063908.782    21063904.760   -23245960.79709 -18105224.90004       149.183
       116.246
  23124918.055    23124917.382   -10107028.30605  -7862549.86801      3161.199
      2463.272
  23552358.801    23552360.185    -8541283.84806  -6642429.83901     -3383.844
     -2636.762
  21967443.793    21967438.243   -16949316.31708 -13190123.52503      1210.633
       943.350
  22259731.561    22259729.746   -15688169.98407 -12202708.12202      1868.460
      1455.943
  25001204.390    25001202.937      109189.83105     95453.80001     -3431.999
     -2674.285
  23021831.341    23021829.978   -10929973.82407  -8508951.81201     -3572.326
     -2783.631
  24104385.599    24104382.700    -5358756.84706  -4168306.96401      1699.910
      1324.605
  20131509.916    20131505.584   -27476637.83809 -21390488.75105       -54.186
       -42.223
  21068939.391    21068936.432   -21405447.99509 -16672494.11703      2348.709
      1830.163
 05  4 14 21  3 40.0000000  0 10G18G14G06G22G09G29G26G03G21G15
  21063767.231    21063763.037   -23246704.93909 -18105804.74304       148.325
       115.578
  23121910.877    23121910.339   -10122830.66805  -7874863.37501      3159.570
      2462.002
  23555578.552    23555580.135    -8524364.06506  -6629245.63401     -3384.234
     -2637.066
  21966292.241    21966287.151   -16955367.34207 -13194838.60302      1209.706
       942.628
  22257954.773    22257953.625   -15697506.17407 -12209983.06602      1865.859
      1453.916
  25004469.368    25004468.582      126349.77305    108825.20001     -3432.183
     -2674.428
  23025231.054    23025229.629   -10912109.26407  -8495031.39201     -3573.555
     -2784.589
  24102768.623    24102766.733    -5367250.26405  -4174925.18501      1697.250
      1322.533
  20131562.578    20131558.130   -27476360.71909 -21390272.81705       -56.832
       -44.284
  21066705.348    21066702.481   -21417187.95809 -16681642.14503      2347.206
      1828.992
 05  4 14 21  3 45.0000000  0 10G18G14G06G22G09G29G26G03G21G15
  21063626.051    21063622.394   -23247445.24209 -18106381.60504       147.569
       114.989
  23118905.383    23118903.935   -10138625.80705  -7887171.24401      3158.248
      2460.972
  23558799.068    23558799.998    -8507443.51707  -6616060.79101     -3384.248
     -2637.076
  21965141.506    21965136.353   -16961414.71607 -13199550.83703      1208.926
       942.020
  22256180.633    22256179.941   -15706830.03307 -12217248.39901      1863.350
      1451.961
  25007734.761    25007734.434      143509.79805    122196.59001     -3432.207
     -2674.447
  23028631.520    23028629.826   -10894239.65807  -8481107.03701     -3574.526
     -2785.345
  24101155.587    24101152.623    -5375731.16705  -4181533.68701      1694.966
      1320.753
  20131617.811    20131613.172   -27476071.15809 -21390047.17905       -59.233
       -46.156
  21064472.847    21064469.939   -21428921.26809 -16690784.97803      2345.865
      1827.947
 05  4 14 21  3 50.0000000  0 10G18G14G06G22G09G29G26G03G21G15
  21063486.097    21063482.144   -23248181.69609 -18106955.46104       146.666
       114.285
  23115901.143    23115900.073   -10154413.62205  -7899473.41601      3156.759
      2459.812
  23562018.774    23562020.083    -8490522.13606  -6602875.33601     -3384.457
     -2637.239
  21963991.340    21963986.307   -16967458.38907 -13204260.19403      1208.248
       941.492
  22254408.724    22254407.837   -15716141.55507 -12224504.12002      1860.923
      1450.070
  25011000.248    25010999.912      160669.89605    135568.10401     -3432.089
     -2674.355
  23032032.651    23032030.881   -10876364.94206  -8467178.68801     -3575.615
     -2786.193
  24099543.920    24099541.580    -5384199.49805  -4188132.36201      1692.335
      1318.702
  20131675.344    20131670.632   -27475769.06609 -21389811.78505       -61.791
       -48.149
  21062241.022    21062238.152   -21440647.85509 -16699922.56903      2344.537
      1826.912
 05  4 14 21  3 55.0000000  0 10G18G14G06G22G09G29G26G03G21G15
  21063346.482    21063342.780   -23248914.20508 -18107526.24704       146.320
       114.016
  23112898.607    23112896.579   -10170194.04605  -7911769.83001      3155.548
      2458.869
  23565239.551    23565240.870    -8473599.82206  -6589689.14301     -3384.466
     -2637.246
  21962841.879    21962837.048   -16973498.30807 -13208966.61003      1207.839
       941.173
  22252639.350    22252638.390   -15725440.63907 -12231750.14402      1858.722
      1448.355
  25014265.513    25014265.299      177830.19905    148939.77201     -3431.785
     -2674.118
  23035435.030    23035433.047   -10858485.19807  -8453246.43001     -3576.258
     -2786.695
  24097934.767    24097932.823    -5392655.16105  -4194721.21001      1690.031
      1316.907
  20131735.188    20131730.953   -27475454.36809 -21389566.56705       -64.036
       -49.898
  21060010.712    21060007.662   -21452367.61409 -16709054.85003      2343.410
      1826.033
 05  4 14 21  4  0.0000000  0 10G18G14G06G22G09G29G26G03G21G15
  21063207.987    21063204.093   -23249642.72108 -18108093.91004       145.410
       113.306
  23109896.474    23109894.958   -10185967.03906  -7924060.44601      3153.999
      2457.661
  23568459.094    23568461.232    -8456676.58006  -6576502.22601     -3384.610
     -2637.359
  21961693.327    21961688.176   -16979534.41407 -13213670.07103      1206.918
       940.456
  22250872.358    22250870.896   -15734727.22307 -12238986.43002      1856.108
      1446.318
  25017531.612    25017530.421      194990.77205    162311.64601     -3431.944
     -2674.242
  23038838.297    23038836.599   -10840600.27007  -8439310.12601     -3577.325
     -2787.526
  24096327.988    24096325.585    -5401098.11205  -4201300.13001      1687.333
      1314.805
  20131797.362    20131792.790   -27475127.02409 -21389311.50405       -66.656
       -51.940
  21057781.936    21057778.947   -21464080.51209 -16718181.77603      2341.997
      1824.932
 05  4 14 21  4  5.0000000  0 10G18G14G06G22G09G29G26G03G21G15
  21063070.310    21063066.260   -23250367.23709 -18108658.46904       144.515
       112.609
  23106896.406    23106894.440   -10201732.59606  -7936345.27401      3152.372
      2456.394
  23571679.221    23571681.999    -8439752.35606  -6563314.54501     -3384.967
     -2637.637
  21960545.546    21960540.050   -16985566.71208 -13218370.55703      1206.078
       939.801
  22249107.276    22249105.967   -15744001.28708 -12246212.96102      1853.553
      1444.327
  25020796.927    25020795.497      212151.54405    175683.64701     -3432.350
     -2674.558
  23042242.221    23042241.478   -10822710.15106  -8425369.77401     -3578.536
     -2788.470
  24094724.074    24094721.383    -5409528.33405  -4207869.13401      1684.730
      1312.777
  20131861.785    20131857.841   -27474787.05309 -21389046.58705       -69.293
       -53.995
  21055554.281    21055551.598   -21475786.54109 -16727303.35603      2340.477
      1823.748
 05  4 14 21  4 10.0000000  0 10G18G14G06G22G09G29G26G03G21G15
  21062933.200    21062929.306   -23251088.08509 -18109220.17204       143.823
       112.070
  23103897.937    23103895.499   -10217490.99205  -7948624.51201      3151.065
      2455.375
  23574899.718    23574902.978    -8422827.51705  -6550126.39501     -3384.844
     -2637.541
  21959398.567    21959393.417   -16991595.47108 -13223068.28803      1205.498
       939.349
  22247344.453    22247343.541   -15753263.09808 -12253429.96401      1851.236
      1442.521
  25024062.900    25024061.654      229312.13604    189055.53201     -3431.938
     -2674.238
  23045648.655    23045646.744   -10804815.18006  -8411425.65101     -3579.390
     -2789.135
  24093122.245    24093120.274    -5417946.13305  -4214428.44501      1682.266
      1310.857
  20131929.177    20131924.617   -27474434.74109 -21388772.05905       -71.631
       -55.816
  21053328.360    21053325.062   -21487485.96709 -16736419.79103      2339.273
      1822.810
 05  4 14 21  4 15.0000000  0 10G18G14G06G22G09G29G26G03G21G15
  21062796.747    21062792.786   -23251804.61109 -18109778.50304       142.945
       111.386
  23100900.814    23100898.479   -10233241.62806  -7960897.72901      3149.439
      2454.108
  23578120.137    23578123.623    -8405901.47805  -6536937.32601     -3385.297
     -2637.894
  21958252.280    21958246.958   -16997620.10608 -13227762.80803      1204.537
       938.600
  22245585.132    22245583.248   -15762512.08207 -12260636.96101      1848.555
      1440.433
  25027327.883    25027327.199      246473.28904    202427.84701     -3432.270
     -2674.496
  23049054.809    23049052.481   -10786914.76206  -8397477.29701     -3580.566
     -2790.051
  24091522.863    24091521.101    -5426350.91705  -4220977.66201      1679.669
      1308.833
  20131998.741    20131994.765   -27474069.43909 -21388487.40605       -74.228
       -57.840
  21051102.982    21051100.052   -21499178.18009 -16745530.60503      2337.711
      1821.593
 05  4 14 21  4 20.0000000  0 10G18G14G06G22G09G29G26G03G21G15
  21062661.191    21062656.786   -23252517.41409 -18110333.92904       142.183
       110.792
  23097904.765    23097902.816   -10248985.01306  -7973165.27101      3147.984
      2452.974
  23581341.280    23581344.883    -8388974.74205  -6523747.72201     -3385.395
     -2637.970
  21957106.189    21957100.851   -17003641.19008 -13232454.55103      1203.868
       938.079
  22243827.170    22243825.432   -15771748.77207 -12267834.36601      1846.036
      1438.469
  25030594.052    25030592.829      263634.40704    215800.11101     -3432.290
     -2674.511
  23052461.758    23052460.141   -10769009.51406  -8383525.15401     -3581.567
     -2790.831
  24089925.583    24089924.305    -5434743.25805  -4227517.11501      1677.261
      1306.957
  20132070.688    20132066.356   -27473691.69009 -21388193.05805       -76.831
       -59.868
  21048879.503    21048876.498   -21510863.76009 -16754636.23503      2336.490
      1820.641
 05  4 14 21  4 25.0000000  0 10G18G14G06G22G09G29G26G03G21G15
  21062526.378    21062522.130   -23253226.45109 -18110886.42904       141.581
       110.323
  23094910.080    23094908.448   -10264721.17305  -7985427.18801      3146.620
      2451.912
  23584563.694    23584565.884    -8372047.33905  -6510557.57101     -3385.304
     -2637.899
  21955961.159    21955955.697   -17009658.68108 -13237143.50503      1203.339
       937.667
  22242071.498    22242070.222   -15780973.14307 -12275022.18101      1843.754
      1436.691
  25033859.731    25033858.765      280795.34504    229172.23001     -3432.198
     -2674.440
  23055869.839    23055868.327   -10751099.40907  -8369569.25001     -3582.477
     -2791.540
  24088331.027    24088329.455    -5443123.03505  -4234046.80501      1674.818
      1305.053
  20132144.886    20132140.611   -27473301.53709 -21387889.04605       -79.054
       -61.600
  21046656.845    21046653.721   -21522542.60209 -16763736.63503      2335.214
      1819.647
 05  4 14 21  4 30.0000000  0 10G18G14G06G22G09G29G26G03G21G15
  21062392.253    21062388.087   -23253931.42409 -18111435.75404       140.607
       109.564
  23091916.878    23091915.631   -10280449.71305  -7997683.16201      3144.963
      2450.620
  23587784.959    23587787.250    -8355119.01905  -6497366.73101     -3385.804
     -2638.289
  21954816.527    21954811.857   -17015672.27508 -13241829.41803      1202.399
       936.934
  22240318.386    22240317.325   -15790184.83207 -12282200.11101      1841.076
      1434.605
  25037125.699    25037124.600      297956.52405    242544.58601     -3432.250
     -2674.480
  23059279.618    23059277.495   -10733184.17907  -8355609.33201     -3583.519
     -2792.352
  24086738.412    24086737.689    -5451490.01705  -4240566.52001      1672.253
      1303.054
  20132221.375    20132217.142   -27472898.58809 -21387575.06005       -81.859
       -63.786
  21044435.941    21044432.931   -21534214.45709 -16772831.58303      2333.722
      1818.485
 05  4 14 21  4 35.0000000  0 10G18G14G06G22G09G29G26G03G21G15
  21062258.464    21062254.683   -23254632.25609 -18111981.85304       139.741
       108.889
  23088925.405    23088924.349   -10296170.65505  -8009933.24001      3143.423
      2449.421
  23591007.016    23591009.155    -8338189.71906  -6484175.08101     -3385.962
     -2638.412
  21953672.876    21953668.068   -17021681.93907 -13246512.26302      1201.543
       936.268
  22238568.000    22238566.552   -15799383.81807 -12289368.15802      1838.531
      1432.621
  25040391.324    25040390.440      315117.94805    255917.12601     -3432.290
     -2674.512
  23062690.174    23062687.591   -10715263.75107  -8341645.37001     -3584.653
     -2793.236
  24085148.629    24085148.003    -5459844.09805  -4247076.16101      1669.561
      1300.957
  20132300.400    20132296.385   -27472482.84209 -21387251.10005       -84.360
       -65.735
  21042216.292    21042213.525   -21545879.22709 -16781921.01104      2332.276
      1817.358
 05  4 14 21  4 40.0000000  0 10G18G14G06G22G09G29G26G03G21G15
  21062126.262    21062121.726   -23255329.52808 -18112525.17604       139.133
       108.416
  23085934.991    23085933.853   -10311884.46805  -8022177.72601      3142.083
      2448.376
  23594228.400    23594231.282    -8321259.89106  -6470983.05001     -3385.901
     -2638.364
  21952529.974    21952525.009   -17027688.15707 -13251192.43102      1200.969
       935.820
  22236819.993    22236818.900   -15808570.56408 -12296526.64301      1836.209
      1430.812
  25043656.616    25043656.712      332279.15905    269289.48901     -3432.039
     -2674.316
  23066101.772    23066098.969   -10697338.61107  -8327677.73801     -3585.383
     -2793.805
  24083561.733    24083560.245    -5468185.77405  -4253576.20201      1667.161
      1299.086
  20132382.411    20132377.481   -27472054.76309 -21386917.54005       -86.789
       -67.628
  21039997.527    21039994.523   -21557537.39809 -16791005.29304      2331.023
      1816.381
 05  4 14 21  4 45.0000000  0 10G18G14G06G22G09G29G26G03G21G15
  21061994.365    21061990.053   -23256022.72809 -18113065.33704       138.206
       107.693
  23082945.947    23082944.699   -10327590.71205  -8034416.34801      3140.530
      2447.166
  23597450.356    23597452.976    -8304329.20506  -6457790.31501     -3386.213
     -2638.608
  21951388.078    21951383.140   -17033690.52508 -13255869.59703      1200.051
       935.105
  22235074.305    22235073.257   -15817744.63207 -12303675.25301      1833.538
      1428.731
  25046922.077    25046922.390      349440.61105    282661.99301     -3432.302
     -2674.521
  23069513.034    23069511.211   -10679408.37807  -8313706.13601     -3586.643
     -2794.787
  24081976.607    24081975.315    -5476514.62905  -4260066.21001      1664.471
      1296.990
  20132465.777    20132461.395   -27471613.91609 -21386574.01805       -89.490
       -69.732
  21037780.391    21037777.542   -21569188.55909 -16800084.12003      2329.514
      1815.206
 05  4 14 21  4 50.0000000  0 10G18G14G06G22G09G29G26G03G21G15
  21061863.272    21061859.010   -23256712.07209 -18113602.48504       137.494
       107.138
  23079958.955    23079957.618   -10343289.50905  -8046649.16401      3139.071
      2446.029
  23600672.178    23600674.172    -8287397.79906  -6444597.04801     -3386.237
     -2638.626
  21950246.332    21950241.706   -17039689.18208 -13260543.86703      1199.447
       934.634
  22233330.869    22233329.652   -15826906.13407 -12310814.08301      1831.092
      1426.825
  25050188.094    25050188.462      366602.07905    296034.57301     -3432.243
     -2674.475
  23072926.008    23072924.612   -10661473.25107  -8299730.72001     -3587.423
     -2795.395
  24080394.529    24080392.289    -5484830.79805  -4266546.35001      1662.044
      1295.100
  20132552.714    20132547.764   -27471160.46709 -21386220.69005       -91.955
       -71.653
  21035565.149    21035561.787   -21580832.82409 -16809157.56303      2328.197
      1814.179
 05  4 14 21  4 55.0000000  0 10G18G14G06G22G09G29G26G03G21G15
  21061732.462    21061728.444   -23257397.42309 -18114136.52804       136.691
       106.512
  23076972.701    23076970.923   -10358980.77605  -8058876.09601      3137.447
      2444.764
  23603894.375    23603896.431    -8270465.54606  -6431403.10801     -3386.537
     -2638.860
  21949105.706    21949100.585   -17045684.01408 -13265215.15703      1198.527
       933.917
  22231589.927    22231588.295   -15836054.98308 -12317943.04701      1828.375
      1424.708
  25053454.658    25053454.090      383763.64005    309407.18101     -3432.323
     -2674.538
  23076338.965    23076337.939   -10643533.05207  -8285751.35901     -3588.646
     -2796.348
  24078813.694    24078812.136    -5493134.16705  -4273016.50901      1659.210
      1292.891
  20132640.808    20132636.455   -27470694.29909 -21385857.43605       -94.545
       -73.671
  21033350.037    21033347.413   -21592470.09009 -16818225.55603      2326.661
      1812.983
 05  4 14 21  5  0.0000000  0 10G18G14G06G22G09G29G26G03G21G15
  21061602.723    21061598.688   -23258079.08409 -18114667.68704       136.125
       106.071
  23073987.792    23073986.849   -10374664.70305  -8071097.30201      3136.071
      2443.692
  23607116.633    23607119.080    -8253532.72706  -6418208.74601     -3386.458
     -2638.799
  21947965.556    21947960.673   -17051675.32708 -13269883.71203      1198.044
       933.540
  22229851.545    22229849.903   -15845191.41008 -12325062.32201      1826.115
      1422.947
  25056719.555    25056719.609      400925.10805    322779.78501     -3432.122
     -2674.381
  23079753.756    23079752.593   -10625588.10507  -8271768.29801     -3589.354
     -2796.899
  24077236.654    24077234.631    -5501424.99005  -4279476.89001      1657.038
      1291.198
  20132732.166    20132728.285   -27470215.64809 -21385484.46205       -96.883
       -75.493
  21031136.777    21031133.945   -21604100.59809 -16827288.28803      2325.568
      1812.131
 05  4 14 21  5  5.0000000  0 10G18G14G06G22G09G29G26G03G21G15
  21061473.694    21061469.254   -23258756.64209 -18115195.64804       135.106
       105.278
  23071004.424    23071003.522   -10390341.00005  -8083312.59001      3134.520
      2442.483
  23610339.318    23610341.257    -8236599.01206  -6405013.65701     -3386.891
     -2639.136
  21946826.335    21946821.485   -17057662.72508 -13274549.20503      1197.133
       932.831
  22228115.309    22228113.605   -15854315.02407 -12332171.62901      1823.417
      1420.844
  25059985.892    25059985.097      418086.79105    336152.48301     -3432.496
     -2674.672
  23083170.105    23083168.768   -10607638.02307  -8257781.22901     -3590.455
     -2797.757
  24075661.574    24075658.991    -5509702.88605  -4285927.18601      1654.262
      1289.035
  20132825.367    20132821.608   -27469724.16309 -21385101.49005       -99.542
       -77.565
  21028925.155    21028922.835   -21615723.96409 -16836345.45303      2323.939
      1810.862
 05  4 14 21  5 10.0000000  0 10G18G14G06G22G09G29G26G03G21G15
  21061345.714    21061341.351   -23259430.41809 -18115720.67304       134.528
       104.827
  23068022.869    23068021.868   -10406009.86305  -8095522.05301      3133.146
      2441.412
  23613561.358    23613563.983    -8219664.68006  -6391818.09501     -3386.932
     -2639.168
  21945687.423    21945682.820   -17063646.50108 -13279211.87603      1196.549
       932.376
  22226381.359    22226379.683   -15863426.14507 -12339271.18901      1821.061
      1419.009
  25063250.923    25063250.831      435248.34605    349525.11501     -3432.244
     -2674.476
  23086586.121    23086584.964   -10589683.18006  -8243790.44501     -3591.361
     -2798.463
  24074088.351    24074086.486    -5517968.12905  -4292367.64501      1651.969
      1287.249
  20132921.646    20132917.145   -27469220.11109 -21384708.72605      -102.049
       -79.519
  21026714.580    21026711.557   -21627340.47109 -16845397.27303      2322.746
      1809.932
 05  4 14 21  5 15.0000000  0 10G18G14G06G22G09G29G26G03G21G15
  21061217.977    21061213.785   -23260100.06109 -18116242.46904       133.480
       104.010
  23065043.012    23065041.805   -10421671.04205  -8107725.53901      3131.371
      2440.029
  23616784.053    23616786.957    -8202729.44106  -6378621.85701     -3387.194
     -2639.372
  21944549.567    21944544.974   -17069626.38608 -13283871.53203      1195.565
       931.609
  22224649.862    22224648.259   -15872524.43407 -12346360.74901      1818.343
      1416.891
  25066516.889    25066516.585      452410.07705    362897.88801     -3432.375
     -2674.578
  23090004.526    23090002.585   -10571723.22607  -8229795.69501     -3592.579
     -2799.413
  24072518.066    24072516.628    -5526220.43405  -4298798.02901      1649.193
      1285.085
  20133019.775    20133015.318   -27468703.20009 -21384305.94405      -104.772
       -81.641
  21024505.546    21024502.540   -21638949.82509 -16854443.51603      2321.102
      1808.651
 05  4 14 21  5 20.0000000  0 10G18G14G06G22G09G29G26G03G21G15
  21061091.463    21061087.373   -23260766.13908 -18116761.48204       132.817
       103.494
  23062064.384    23062063.517   -10437325.00805  -8119923.39501      3130.049
      2438.999
  23620006.943    23620009.207    -8185793.83206  -6365425.29401     -3387.183
     -2639.363
  21943411.940    21943407.391   -17075602.82407 -13288528.48703      1194.985
       931.157
  22222921.374    22222919.424   -15881610.33307 -12353440.66301      1815.962
      1415.035
  25069782.651    25069782.284      469571.57605    376270.46201     -3432.251
     -2674.481
  23093422.882    23093421.377   -10553758.73106  -8215797.40601     -3593.364
     -2800.024
  24070950.077    24070948.611    -5534460.29105  -4305218.67501      1646.772
      1283.199
  20133120.129    20133116.705   -27468173.88709 -21383893.48805      -107.114
       -83.466
  21022297.211    21022294.882   -21650552.48009 -16863484.54203      2319.829
      1807.659
 05  4 14 21  5 25.0000000  0 10G18G14G06G22G09G29G26G03G21G15
  21060965.600    21060961.263   -23261428.18609 -18117277.36804       132.015
       102.869
  23059086.734    23059086.513   -10452971.29805  -8132115.29301      3128.602
      2437.872
  23623229.229    23623232.439    -8168857.34805  -6352228.08801     -3387.443
     -2639.566
  21942275.725    21942270.986   -17081575.36707 -13293182.41003      1194.095
       930.464
  22221194.804    22221192.536   -15890683.39408 -12360510.57601      1813.290
      1412.953
  25073048.743    25073048.608      486733.19205    389643.12501     -3432.423
     -2674.615
  23096842.117    23096840.781   -10535789.17007  -8201795.15401     -3594.445
     -2800.866
  24069384.629    24069383.715    -5542687.21105  -4311629.28301      1644.110
      1281.125
  20133223.757    20133219.244   -27467631.71209 -21383471.01505      -109.669
       -85.457
  21020091.028    21020088.285   -21662147.98809 -16872519.99303      2318.407
      1806.551
 05  4 14 21  5 30.0000000  0 10G18G14G06G22G09G29G26G03G21G15
  21060840.075    21060836.179   -23262086.44009 -18117790.28504       131.484
       102.455
  23056110.555    23056110.442   -10468610.10805  -8144301.36101      3127.095
      2436.697
  23626453.096    23626455.915    -8151920.34905  -6339030.43701     -3387.334
     -2639.481
  21941140.178    21941135.098   -17087544.30508 -13297833.52603      1193.535
       930.027
  22219469.863    22219468.099   -15899743.88007 -12367570.67501      1810.977
      1411.151
  25076314.356    25076313.694      503894.64805    403015.66001     -3432.095
     -2674.360
  23100263.112    23100261.398   -10517814.86306  -8187789.20601     -3595.229
     -2801.478
  24067822.249    24067820.986    -5550901.45106  -4318029.98801      1641.748
      1279.284
  20133329.155    20133325.407   -27467076.98609 -21383038.76405      -112.075
       -87.331
  21017886.184    21017882.772   -21673736.57109 -16881550.05903      2317.173
      1805.589
 05  4 14 21  5 35.0000000  0 10G18G14G06G22G09G29G26G03G21G15
  21060715.364    21060711.255   -23262740.89109 -18118300.24904       130.666
       101.818
  23053136.491    23053135.339   -10484241.50905  -8156481.64501      3125.651
      2435.572
  23629675.430    23629678.490    -8134982.75405  -6325832.36401     -3387.523
     -2639.628
  21940004.783    21939999.907   -17093509.63908 -13302481.83603      1192.849
       929.492
  22217748.632    22217746.502   -15908791.77407 -12374620.97401      1808.493
      1409.215
  25079579.617    25079579.781      521056.03205    416388.19301     -3431.990
     -2674.278
  23103683.978    23103682.402   -10499835.81107  -8173779.56301     -3596.214
     -2802.245
  24066261.324    24066259.768    -5559103.06806  -4324420.85801      1639.172
      1277.277
  20133437.127    20133432.514   -27466509.69909 -21382596.72105      -114.573
       -89.278
  21015682.063    21015678.861   -21685318.24409 -16890574.74003      2315.793
      1804.514
 05  4 14 21  5 40.0000000  0 10G18G14G06G22G09G29G26G03G21G15
  21060591.764    21060587.642   -23263391.24208 -18118807.01204       129.821
       101.159
  23050162.952    23050162.553   -10499865.15005  -8168655.87701      3124.079
      2434.347
  23632898.998    23632901.530    -8118044.28605  -6312633.59401     -3387.538
     -2639.640
  21938870.310    21938865.342   -17099471.04107 -13307127.08003      1192.023
       928.849
  22216029.401    22216026.860   -15917826.72007 -12381661.18101      1805.773
      1407.096
  25082845.838    25082845.446      538217.61405    429760.82201     -3432.220
     -2674.457
  23107106.448    23107104.409   -10481851.74907  -8159766.02001     -3597.176
     -2802.994
  24064702.649    24064701.557    -5567291.67505  -4330801.60101      1636.598
      1275.271
  20133548.149    20133543.125   -27465929.48009 -21382144.60605      -117.132
       -91.272
  21013479.350    21013476.244   -21696892.68509 -16899593.77903      2314.323
      1803.368
 05  4 14 21  5 45.0000000  0 10G18G14G06G22G09G29G26G03G21G15
  21060468.882    21060464.668   -23264037.70708 -18119310.74804       128.913
       100.452
  23047190.870    23047191.254   -10515481.23705  -8180824.24101      3122.428
      2433.061
  23636122.189    23636125.393    -8101105.21205  -6299434.35901     -3387.840
     -2639.875
  21937736.577    21937731.786   -17105428.76407 -13311769.45802      1191.174
       928.187
  22214312.409    22214310.265   -15926848.98707 -12388691.51401      1803.215
      1405.102
  25086110.868    25086110.409      555379.06204    443133.37701     -3432.186
     -2674.430
  23110529.297    23110527.592   -10463862.84407  -8145748.69601     -3598.231
     -2803.816
  24063146.960    24063145.705    -5575467.50905  -4337172.36301      1633.903
      1273.171
  20133660.498    20133656.340   -27465336.56609 -21381682.59205      -119.832
       -93.376
  21011278.291    21011275.280   -21708460.10709 -16908607.34803      2312.795
      1802.178
 05  4 14 21  5 50.0000000  0 10G18G14G06G22G09G29G26G03G21G15
  21060346.332    21060341.876   -23264680.45709 -18119811.59604       128.273
        99.953
  23044221.442    23044221.079   -10531089.93005  -8192986.81501      3121.149
      2432.064
  23639345.613    23639348.320    -8084165.72506  -6286234.79901     -3387.845
     -2639.879
  21936603.668    21936598.328   -17111382.98308 -13316409.10303      1190.636
       927.769
  22212597.607    22212595.546   -15935858.66007 -12395712.02501      1800.768
      1403.196
  25089376.483    25089375.895      572540.29504    456505.75801     -3432.108
     -2674.370
  23113953.538    23113951.996   -10445869.31407  -8131727.77201     -3599.173
     -2804.551
  24061594.074    24061592.257    -5583630.78105  -4343533.34301      1631.520
      1271.314
  20133775.440    20133770.828   -27464731.10209 -21381210.79505      -122.279
       -95.282
  21009078.373    21009075.438   -21720020.65409 -16917615.56103      2311.437
      1801.120
 05  4 14 21  5 55.0000000  0 10G18G14G06G22G09G29G26G03G21G15
  21060224.911    21060220.698   -23265319.11609 -18120309.25704       127.542
        99.384
  23041252.722    23041251.990   -10546690.83205  -8205143.33401      3119.549
      2430.818
  23642570.029    23642572.595    -8067225.43606  -6273034.60601     -3387.936
     -2639.950
  21935471.687    21935466.404   -17117333.26308 -13321045.67903      1189.828
       927.138
  22210885.876    22210883.589   -15944855.34408 -12402722.41902      1798.221
      1401.211
  25092642.122    25092641.580      589701.72504    469878.28301     -3432.087
     -2674.353
  23117378.905    23117376.691   -10427870.76006  -8117702.92801     -3600.119
     -2805.287
  24060043.233    24060041.196    -5591781.01306  -4349884.17201      1628.929
      1269.296
  20133893.202    20133889.059   -27464112.64809 -21380728.88605      -124.792
       -97.240
  21006880.171    21006877.113   -21731573.91509 -16926618.09903      2310.072
      1800.056
 05  4 14 21  6  0.0000000  0 10G18G14G06G22G09G29G26G03G21G15
  21060104.074    21060099.507   -23265953.98509 -18120803.95004       126.495
        98.567
  23038285.251    23038285.275   -10562284.26906  -8217294.03101      3117.857
      2429.499
  23645793.122    23645796.288    -8050284.65405  -6259834.03901     -3388.212
     -2640.166
  21934339.747    21934334.552   -17123279.96108 -13325679.46303      1188.917
       926.429
  22209176.487    22209174.092   -15953839.36408 -12409722.95801      1795.557
      1399.136
  25095908.659    25095906.997      606862.95604    483250.64201     -3432.104
     -2674.367
  23120804.628    23120802.828   -10409867.54506  -8103674.46701     -3601.127
     -2806.073
  24058494.006    24058492.420    -5599918.50106  -4356225.06701      1626.114
      1267.102
  20134013.759    20134008.944   -27463481.55309 -21380237.12205      -127.509
       -99.358
  21004682.248    21004679.819   -21743120.18609 -16935615.19603      2308.507
      1798.836
 05  4 14 21  6  5.0000000  0 10G18G14G06G22G09G29G26G03G21G15
  21059983.872    21059979.489   -23266584.98409 -18121295.63904       125.789
        98.017
  23035319.032    23035319.248   -10577870.08506  -8229438.81401      3116.360
      2428.332
  23649017.044    23649020.255    -8033343.29706  -6246633.00801     -3388.464
     -2640.362
  21933208.781    21933203.862   -17129222.96308 -13330310.37703      1188.215
       925.882
  22207469.086    22207466.560   -15962810.57408 -12416713.49502      1792.883
      1397.052
  25099173.725    25099173.168      624024.18704    496623.04801     -3432.478
     -2674.658
  23124231.217    23124229.554   -10391859.60707  -8089642.31901     -3602.024
     -2806.772
  24056947.732    24056946.249    -5608043.27106  -4362556.04601      1623.655
      1265.186
  20134136.026    20134131.832   -27462837.72409 -21379735.43805      -130.105
      -101.380
  21002486.578    21002483.928   -21754659.35309 -16944606.74703      2307.053
      1797.704
 05  4 14 21  6 10.0000000  0 10G18G14G06G22G09G29G26G03G21G15
  21059864.510    21059860.089   -23267212.17309 -18121784.36004       125.070
        97.457
  23032355.191    23032354.598   -10593448.39606  -8241577.71401      3115.035
      2427.300
  23652241.300    23652244.176    -8016401.42106  -6233431.54401     -3388.333
     -2640.260
  21932078.537    21932073.520   -17135162.30508 -13334938.43103      1187.536
       925.352
  22205764.246    22205762.271   -15971769.07007 -12423694.14101      1790.446
      1395.153
  25102439.946    25102438.638      641185.17704    509995.25101     -3432.225
     -2674.461
  23127659.196    23127657.502   -10373846.94206  -8075606.48001     -3602.884
     -2807.442
  24055405.059    24055402.433    -5616155.25905  -4368877.06701      1621.227
      1263.294
  20134261.013    20134256.448   -27462181.22609 -21379223.88505      -132.513
      -103.257
  21000292.557    21000289.456   -21766191.51109 -16953592.84403      2305.812
      1796.737
 05  4 14 21  6 15.0000000  0 10G18G14G06G22G09G29G26G03G21G15
  21059746.047    21059741.491   -23267835.61809 -18122270.15704       124.330
        96.881
  23029392.396    23029391.613   -10609019.19006  -8253710.77601      3113.500
      2426.104
  23655465.389    23655468.268    -7999459.10106  -6220229.81101     -3388.511
     -2640.398
  21930948.839    21930944.009   -17141098.09808 -13339563.71303      1186.791
       924.772
  22204061.912    22204059.545   -15980714.87207 -12430664.88201      1787.890
      1393.161
  25105705.106    25105704.102      658345.95004    523367.22101     -3432.032
     -2674.311
  23131087.656    23131085.715   -10355829.65007  -8061567.05601     -3603.873
     -2808.213
  24053862.860    24053861.338    -5624254.48005  -4375188.16801      1618.647
      1261.283
  20134388.128    20134383.975   -27461512.12809 -21378702.51505      -135.074
      -105.252
  20998099.005    20998096.698   -21777716.66709 -16962573.47904      2304.369
      1795.613
 05  4 14 21  6 20.0000000  0 10G18G14G06G22G09G29G26G03G21G15
  21059628.236    21059623.924   -23268455.01908 -18122752.81304       123.420
        96.172
  23026430.132    23026429.701   -10624582.22505  -8265837.78301      3111.858
      2424.824
  23658689.736    23658692.891    -7982516.07706  -6207027.47701     -3388.782
     -2640.609
  21929820.407    21929815.441   -17147030.05808 -13344186.01503      1185.945
       924.113
  22202362.094    22202359.835   -15989647.74307 -12437625.54901      1785.354
      1391.185
  25108971.311    25108969.347      675506.79004    536739.34001     -3432.199
     -2674.441
  23134517.047    23134515.331   -10337807.52107  -8047523.84001     -3604.924
     -2809.032
  24052324.502    24052322.565    -5632340.76205  -4381489.17101      1615.896
      1259.140
  20134517.925    20134513.765   -27460830.13209 -21378171.08505      -137.673
      -107.278
  20995907.080    20995904.808   -21789234.56409 -16971548.46503      2302.810
      1794.397
 05  4 14 21  6 25.0000000  0 10G18G14G06G22G09G29G26G03G21G15
  21059510.771    21059506.750   -23269070.55609 -18123232.44204       122.594
        95.528
  23023470.251    23023469.713   -10640137.65406  -8277958.86501      3110.274
      2423.590
  23661914.251    23661917.101    -7965572.56006  -6193824.79101     -3388.700
     -2640.546
  21928691.650    21928687.248   -17152958.28308 -13348805.40603      1185.211
       923.541
  22200664.790    22200662.439   -15998567.75407 -12444576.20001      1782.638
      1389.068
  25112237.026    25112235.059      692667.52104    550111.30701     -3432.206
     -2674.447
  23137947.855    23137945.638   -10319780.68407  -8033476.96701     -3605.927
     -2809.813
  24050788.367    24050786.508    -5640414.25106  -4387780.19801      1613.253
      1257.080
  20134650.395    20134646.026   -27460135.37209 -21377629.71405      -140.277
      -109.307
  20993716.757    20993713.925   -21800745.31609 -16980517.86503      2301.349
      1793.259
 05  4 14 21  6 30.0000000  0 10G18G14G06G22G09G29G26G03G21G15
  21059394.597    21059390.771   -23269682.43808 -18123709.24304       121.857
        94.953
  23020511.567    23020510.838   -10655685.67406  -8290074.18501      3108.712
      2422.373
  23665138.269    23665141.161    -7948628.75906  -6180621.86001     -3388.973
     -2640.759
  21927564.530    21927559.510   -17158883.07108 -13353422.11103      1184.610
       923.073
  22198969.362    22198968.020   -16007475.15407 -12451517.02002      1780.172
      1387.147
  25115502.122    25115500.681      709827.80205    563482.91801     -3432.079
     -2674.347
  23141379.351    23141376.439   -10301749.37707  -8019426.59501     -3606.806
     -2810.498
  24049254.754    24049251.802    -5648475.10806  -4394061.37001      1610.860
      1255.216
  20134784.737    20134780.735   -27459428.10609 -21377078.60605      -142.777
      -111.255
  20991527.635    20991525.167   -21812249.14709 -16989481.88303      2299.967
      1792.182
 05  4 14 21  6 35.0000000  0 10G18G14G06G22G09G29G26G03G21G15
  21059278.874    21059274.548   -23270290.36909 -18124182.94604       121.128
        94.385
  23017554.519    23017553.173   -10671225.97307  -8302183.48901      3107.251
      2421.235
  23668362.257    23668365.796    -7931684.38606  -6167418.48201     -3388.916
     -2640.714
  21926438.017    21926433.014   -17164804.06908 -13358035.86903      1183.769
       922.418
  22197277.421    22197274.997   -16016369.59007 -12458447.72902      1777.515
      1385.076
  25118767.234    25118766.612      726988.04605    576854.56501     -3432.080
     -2674.348
  23144811.455    23144808.792   -10283713.34807  -8005372.55801     -3607.788
     -2811.263
  24047722.185    24047720.681    -5656522.98606  -4400332.45101      1608.081
      1253.050
  20134921.697    20134917.490   -27458707.96809 -21376517.45705      -145.332
      -113.246
  20989340.244    20989337.242   -21823745.71509 -16998440.24803      2298.511
      1791.047
 05  4 14 21  6 40.0000000  0 10G18G14G06G22G09G29G26G03G21G15
  21059164.371    21059159.860   -23270894.53309 -18124653.71604       120.468
        93.871
  23014598.560    23014596.864   -10686758.70006  -8314286.89101      3105.951
      2420.222
  23671587.191    23671589.993    -7914739.57805  -6154214.79301     -3388.931
     -2640.726
  21925312.035    21925306.800   -17170721.50608 -13362646.85903      1183.129
       921.919
  22195587.189    22195585.163   -16025251.27907 -12465368.51802      1775.146
      1383.230
  25122033.875    25122032.120      744148.07305    590225.99601     -3431.935
     -2674.235
  23148244.428    23148241.910   -10265672.73907  -7991314.95901     -3608.541
     -2811.850
  24046193.654    24046191.547    -5664558.17506  -4406593.65001      1605.863
      1251.322
  20135061.698    20135057.151   -27457975.17909 -21375946.45405      -147.779
      -115.153
  20987153.575    20987151.465   -21835235.22209 -17007393.10503      2297.187
      1790.016
 05  4 14 21  6 45.0000000  0 10G18G14G06G22G09G29G26G03G21G15
  21059049.721    21059045.784   -23271494.70308 -18125121.38204       119.647
        93.232
  23011643.590    23011642.828   -10702283.66006  -8326384.24401      3104.120
      2418.795
  23674811.498    23674814.555    -7897794.13506  -6141010.57401     -3389.142
     -2640.890
  21924186.653    21924181.750   -17176635.12508 -13367254.86903      1182.362
       921.321
  22193899.236    22193897.075   -16034119.90707 -12472279.12002      1772.440
      1381.122
  25125298.843    25125297.167      761308.09405    603597.41101     -3431.930
     -2674.231
  23151678.345    23151676.100   -10247627.36307  -7977253.62301     -3609.562
     -2812.646
  24044667.031    24044665.247    -5672580.36706  -4412844.69401      1603.178
      1249.229
  20135202.924    20135198.702   -27457229.47409 -21375365.39005      -150.328
      -117.139
  20984968.533    20984966.116   -21846717.39209 -17016340.24104      2295.751
      1788.897
 05  4 14 21  6 50.0000000  0 10G18G14G06G22G09G29G26G03G21G15
  21058936.055    21058931.944   -23272091.28209 -18125586.24304       119.165
        92.856
  23008691.111    23008689.898   -10717801.20206  -8338475.82401      3102.968
      2417.897
  23678036.353    23678039.390    -7880848.48905  -6127806.21501     -3388.819
     -2640.638
  21923061.957    21923057.123   -17182545.27509 -13371860.17703      1181.904
       920.964
  22192214.606    22192212.118   -16042975.90307 -12479179.89501      1770.219
      1379.392
  25128564.685    25128562.588      778467.67805    616968.50801     -3431.626
     -2673.995
  23155112.947    23155110.376   -10229577.55407  -7963188.84601     -3610.132
     -2813.090
  24043142.823    24043140.455    -5680589.96006  -4419085.93001      1600.942
      1247.487
  20135347.583    20135343.057   -27456471.24909 -21374774.56405      -152.657
      -118.953
  20982785.019    20982782.575   -21858192.64409 -17025281.98803      2294.614
      1788.011
 05  4 14 21  6 55.0000000  0 10G18G14G06G22G09G29G26G03G21G15
  21058823.404    21058819.294   -23272683.65008 -18126047.83204       118.220
        92.119
  23005739.595    23005739.168   -10733310.70706  -8350561.13001      3101.179
      2416.503
  23681261.336    23681264.154    -7863902.04505  -6114601.24301     -3389.304
     -2641.016
  21921937.901    21921932.943   -17188451.42509 -13376462.36803      1180.896
       920.179
  22190531.542    22190529.103   -16051818.64708 -12486070.33802      1767.278
      1377.099
  25131829.784    25131828.006      795627.46105    630339.75701     -3431.775
     -2674.111
  23158548.508    23158546.580   -10211522.79407  -7949120.21401     -3611.453
     -2814.119
  24041621.316    24041618.754    -5688586.32205  -4425316.86601      1597.976
      1245.176
  20135494.322    20135489.837   -27455699.90309 -21374173.51705      -155.462
      -121.139
  20980602.742    20980600.283   -21869660.30409 -17034217.82404      2292.849
      1786.635
 05  4 14 21  7  0.0000000  0 10G18G14G06G22G09G29G26G03G21G15
  21058711.478    21058707.134   -23273272.27408 -18126506.49704       117.343
        91.436
  23002789.392    23002789.510   -10748812.73506  -8362640.58501      3099.720
      2415.367
  23684485.895    23684489.159    -7846955.40405  -6101396.10601     -3389.303
     -2641.015
  21920814.905    21920810.147   -17194354.09608 -13381061.84303      1180.263
       919.685
  22188851.047    22188848.676   -16060648.62808 -12492950.83501      1764.735
      1375.118
  25135095.118    25135093.197      812786.90305    643710.75001     -3431.818
     -2674.144
  23161985.096    23161983.055   -10193463.59507  -7935048.12001     -3612.360
     -2814.826
  24040102.180    24040099.098    -5696569.96806  -4431537.89001      1595.438
      1243.199
  20135643.535    20135639.002   -27454915.96909 -21373562.66705      -158.038
      -123.147
  20978421.784    20978419.170   -21881120.92909 -17043148.18303      2291.439
      1785.537
 05  4 14 21  7  5.0000000  0 10G18G14G06G22G09G29G26G03G21G15
  21058599.930    21058595.885   -23273856.92308 -18126962.06204       116.488
        90.770
  22999841.116    22999840.491   -10764306.93606  -8374713.96601      3098.075
      2414.084
  23687710.951    23687714.345    -7830008.08506  -6088190.45401     -3389.527
     -2641.190
  21919691.912    21919687.508   -17200252.97508 -13385658.35903      1179.452
       919.054
  22187173.172    22187170.732   -16069465.54807 -12499821.15601      1762.011
      1372.995
  25138360.368    25138358.604      829946.21005    657081.61201     -3431.954
     -2674.250
  23165422.715    23165420.811   -10175399.69507  -7920972.37101     -3613.292
     -2815.552
  24038585.459    24038582.687    -5704540.66206  -4437748.83001      1592.782
      1241.129
  20135795.289    20135790.772   -27454119.11009 -21372941.73605      -160.728
      -125.243
  20976242.124    20976239.889   -21892574.22209 -17052072.82303      2289.926
      1784.358
 05  4 14 21  7 10.0000000  0 10G18G14G06G22G09G29G26G03G21G15
  21058489.464    21058485.382   -23274437.94209 -18127414.81204       115.880
        90.296
  22996893.896    22996893.725   -10779793.68306  -8386781.52701      3096.593
      2412.929
  23690936.332    23690939.096    -7813060.68706  -6074984.72801     -3389.379
     -2641.074
  21918570.352    21918565.373   -17206148.40908 -13390252.20303      1178.795
       918.542
  22185497.655    22185495.634   -16078269.73707 -12506681.55302      1759.566
      1371.091
  25141624.759    25141623.769      847105.13505    670452.18901     -3431.639
     -2674.005
  23168860.957    23168858.813   -10157331.35607  -7906893.16201     -3614.081
     -2816.167
  24037070.595    24037068.300    -5712498.69606  -4443949.88701      1590.367
      1239.247
  20135949.408    20135944.850   -27453309.67709 -21372311.01705      -163.070
      -127.068
  20974064.254    20974061.520   -21904020.48709 -17060991.98104      2288.654
      1783.366
 05  4 14 21  7 15.0000000  0 10G18G14G06G22G09G29G26G03G21G15
  21058379.638    21058375.474   -23275014.94009 -18127864.40804       115.220
        89.782
  22993948.245    22993948.138   -10795272.55706  -8398842.96701      3095.171
      2411.822
  23694161.254    23694164.005    -7796112.68606  -6061778.52601     -3389.443
     -2641.125
  21917449.152    21917444.732   -17212039.96608 -13394843.01903      1178.120
       918.016
  22183825.103    22183823.074   -16087060.76007 -12513531.68802      1757.041
      1369.123
  25144890.223    25144889.191      864264.05404    683822.75101     -3431.596
     -2673.971
  23172300.358    23172298.301   -10139258.35507  -7892810.31101     -3614.922
     -2816.822
  24035558.805    24035556.629    -5720443.66105  -4450140.76801      1587.832
      1237.272
  20136105.658    20136101.221   -27452487.25809 -21371670.16505      -165.639
      -129.070
  20971887.516    20971884.378   -21915459.32909 -17069905.36403      2287.115
      1782.167
 05  4 14 21  7 20.0000000  0 10G18G14G06G22G09G29G26G03G21G15
  21058270.824    21058266.478   -23275588.06908 -18128311.00904       114.300
        89.065
  22991004.146    22991003.489   -10810743.72605  -8410898.39901      3093.548
      2410.557
  23697386.661    23697389.183    -7779164.26805  -6048572.00401     -3389.587
     -2641.237
  21916328.853    21916324.165   -17217927.86408 -13399430.98403      1177.298
       917.375
  22182154.831    22182152.837   -16095838.79307 -12520371.71402      1754.339
      1367.017
  25148154.962    25148154.508      881422.72504    697193.12801     -3431.677
     -2674.034
  23175739.834    23175738.255   -10121180.85707  -7878723.97001     -3615.837
     -2817.535
  24034049.052    24034046.971    -5728375.76505  -4456321.61501      1585.188
      1235.212
  20136264.978    20136260.299   -27451652.00109 -21371019.32505      -168.235
      -131.092
  20969711.794    20969709.529   -21926890.94709 -17078813.11504      2285.716
      1781.077
 05  4 14 21  7 25.0000000  0 10G18G14G06G22G09G29G26G03G21G15
  21058162.456    21058158.476   -23276157.20409 -18128754.48204       113.412
        88.373
  22988062.209    22988061.101   -10826207.03006  -8422947.70301      3091.947
      2409.309
  23700611.737    23700614.008    -7762215.36505  -6035365.10301     -3389.821
     -2641.419
  21915208.721    21915204.436   -17223811.99509 -13404016.02003      1176.473
       916.732
  22180486.293    22180484.838   -16104603.72307 -12527201.51802      1751.634
      1364.910
  25151419.876    25151419.479      898581.30004    710563.45901     -3431.774
     -2674.110
  23179181.158    23179179.109   -10103098.66007  -7864633.94501     -3616.989
     -2818.433
  24032542.632    24032540.190    -5736294.84306  -4462492.33701      1582.538
      1233.146
  20136425.867    20136421.487   -27450803.81909 -21370358.40705      -170.905
      -133.173
  20967537.561    20967535.323   -21938315.15208 -17087715.07804      2284.110
      1779.826
 05  4 14 21  7 30.0000000  0 10G18G14G06G22G09G29G26G03G21G15
  21058055.027    21058050.441   -23276722.73409 -18129195.16004       112.661
        87.787
  22985121.372    22985120.493   -10841662.85706  -8434991.19401      3090.419
      2408.119
  23703837.016    23703840.020    -7745266.40305  -6022158.17001     -3389.776
     -2641.384
  21914089.988    21914085.726   -17229692.72108 -13408598.39903      1175.805
       916.212
  22178820.988    22178819.545   -16113355.90608 -12534021.38302      1749.121
      1362.951
  25154685.523    25154685.277      915739.32403    723933.31701     -3431.514
     -2673.907
  23182622.339    23182620.764   -10085012.19107  -7850540.59001     -3617.813
     -2819.075
  24031038.188    24031035.392    -5744201.25406  -4468653.18001      1579.970
      1231.146
  20136589.824    20136585.625   -27449943.05709 -21369687.67605      -173.448
      -135.154
  20965365.342    20965362.614   -21949732.32609 -17096611.57904      2282.739
      1778.757
 05  4 14 21  7 35.0000000  0 10G18G14G06G22G09G29G26G03G21G15
  21057947.876    21057943.894   -23277284.18409 -18129632.64904       111.940
        87.226
  22982180.588    22982180.121   -10857110.73506  -8447028.47101      3088.814
      2406.868
  23707062.615    23707065.617    -7728316.76405  -6008950.69201     -3389.911
     -2641.489
  21912971.468    21912967.226   -17235569.50309 -13413177.70903      1174.957
       915.551
  22177158.667    22177156.477   -16122094.80808 -12540830.91302      1746.510
      1360.917
  25157949.735    25157950.095      932897.35003    737303.22501     -3431.532
     -2673.921
  23186065.458    23186062.982   -10066920.89307  -7836443.48301     -3618.832
     -2819.869
  24029535.578    24029533.870    -5752094.51205  -4474803.76101      1577.384
      1229.130
  20136756.189    20136751.546   -27449069.19209 -21369006.75105      -176.102
      -137.223
  20963194.257    20963191.658   -21961141.94109 -17105502.18604      2281.246
      1777.595
 05  4 14 21  7 40.0000000  0 10G18G14G06G22G09G29G26G03G21G15
  21057841.689    21057837.692   -23277841.85408 -18130067.20304       111.069
        86.547
  22979243.280    22979242.074   -10872550.93306  -8459059.75901      3087.163
      2405.581
  23710287.501    23710290.344    -7711366.95505  -5995743.08801     -3390.171
     -2641.692
  21911853.977    21911849.259   -17241442.74807 -13417754.25603      1174.243
       914.995
  22175497.553    22175495.696   -16130820.77607 -12547630.35702      1743.813
      1358.816
  25161215.874    25161215.526      950055.06503    750672.85201     -3431.245
     -2673.698
  23189509.021    23189507.028   -10048825.21707  -7822342.96201     -3619.600
     -2820.468
  24028035.203    24028034.342    -5759974.94605  -4480944.35401      1574.687
      1227.029
  20136925.147    20136920.382   -27448182.62409 -21368315.92305      -178.682
      -139.233
  20961024.282    20961021.429   -21972544.34909 -17114387.16804      2279.673
      1776.368
 05  4 14 21  7 45.0000000  0 10G18G14G06G22G09G29G26G03G21G15
  21057736.597    21057732.459   -23278395.83108 -18130498.87404       110.395
        86.022
  22976306.366    22976304.922   -10887983.54105  -8471085.16001      3085.873
      2404.577
  23713513.480    23713515.847    -7694416.91305  -5982535.30301     -3389.976
     -2641.540
  21910737.094    21910732.536   -17247312.46307 -13422328.05303      1173.554
       914.457
  22173839.739    22173837.644   -16139533.82907 -12554419.73802      1741.288
      1356.848
  25164480.496    25164480.154      967212.42403    764042.16001     -3431.192
     -2673.656
  23192953.202    23192951.630   -10030725.20707  -7808239.07201     -3620.474
     -2821.149
  24026539.009    24026537.926    -5767842.62405  -4487075.00101      1572.240
      1225.122
  20137096.068    20137091.492   -27447283.37509 -21367615.20405      -181.100
      -141.117
  20958855.929    20958852.903   -21983939.60809 -17123266.58203      2278.285
      1775.287
 05  4 14 21  7 50.0000000  0 10G18G14G06G22G09G29G26G03G21G15
  21057631.998    21057627.558   -23278945.91508 -18130927.50704       109.671
        85.458
  22973370.753    22973370.376   -10903408.30506  -8483104.42601      3084.227
      2403.293
  23716739.718    23716741.630    -7677466.49305  -5969327.20401     -3390.022
     -2641.575
  21909620.701    21909616.257   -17253178.47707 -13426898.96503      1172.898
       913.947
  22172184.286    22172182.301   -16148233.77508 -12561198.91002      1738.797
      1354.907
  25167745.630    25167744.779      984369.52603    777411.32601     -3431.350
     -2673.779
  23196398.446    23196397.046   -10012620.69107  -7794131.66901     -3621.276
     -2821.774
  24025043.931    24025042.940    -5775697.32005  -4493195.54001      1569.822
      1223.238
  20137269.455    20137264.872   -27446371.21009 -21366904.43105      -183.625
      -143.084
  20956688.606    20956685.625   -21995327.48409 -17132140.25304      2276.932
      1774.232
 05  4 14 21  7 55.0000000  0 10G18G14G06G22G09G29G26G03G21G15
  21057527.772    21057523.636   -23279492.17809 -18131353.17004       108.953
        84.898
  22970437.185    22970436.181   -10918825.33906  -8495117.67001      3082.591
      2402.019
  23719964.245    23719967.251    -7660515.80805  -5956118.94301     -3390.212
     -2641.724
  21908505.309    21908500.661   -17259040.90508 -13431467.08503      1172.107
       913.330
  22170531.106    22170529.287   -16156920.67608 -12567967.91101      1736.087
      1352.795
  25171010.881    25171009.572     1001526.27803    790780.17701     -3431.252
     -2673.703
  23199844.939    23199842.464    -9994511.72507  -7780020.79101     -3622.087
     -2822.406
  24023552.262    24023550.530    -5783539.12105  -4499306.03101      1567.117
      1221.130
  20137445.335    20137441.490   -27445446.22409 -21366183.66905      -186.282
      -145.154
  20954523.193    20954520.249   -22006708.05609 -17141008.22603      2275.403
      1773.041
 05  4 14 21  8  0.0000000  0 10G18G14G06G22G09G29G26G03G21G15
  21057424.362    21057420.246   -23280034.56209 -18131775.80404       108.239
        84.342
  22967504.727    22967503.596   -10934234.62306  -8507124.87501      3081.354
      2401.055
  23723189.882    23723193.248    -7643564.84105  -5942910.44701     -3389.954
     -2641.523
  21907390.030    21907385.708   -17264899.68308 -13436032.35403      1171.516
       912.869
  22168880.804    22168878.792   -16165594.46808 -12574726.71302      1733.737
      1350.964
  25174275.157    25174274.155     1018682.78003    804148.93101     -3431.009
     -2673.513
  23203291.433    23203289.435    -9976398.29807  -7765906.44001     -3622.933
     -2823.064
  24022062.369    24022060.725    -5791367.94405  -4505406.41901      1564.616
      1219.182
  20137624.195    20137619.597   -27444508.37809 -21365452.87405      -188.670
      -147.016
  20952359.062    20952355.614   -22018081.29209 -17149870.48003      2274.187
      1772.093
 05  4 14 21  8  5.0000000  0 10G18G14G06G22G09G29G26G03G21G15
  21057322.289    21057317.826   -23280572.90308 -18132195.28704       107.305
        83.614
  22964574.299    22964573.344   -10949635.85506  -8519125.82901      3079.570
      2399.665
  23726415.833    23726418.938    -7626613.37005  -5929701.53201     -3390.264
     -2641.764
  21906275.827    21906271.331   -17270754.59808 -13440594.61903      1170.635
       912.183
  22167232.043    22167231.037   -16174254.92408 -12581475.10902      1730.849
      1348.714
  25177540.027    25177539.046     1035839.24303    817517.59901     -3431.221
     -2673.678
  23206739.301    23206737.224    -9958280.18607  -7751788.44801     -3624.150
     -2824.013
  24020574.960    24020572.969    -5799183.62705  -4511496.55701      1561.948
      1217.102
  20137805.176    20137800.421   -27443557.42209 -21364711.87305      -191.524
      -149.239
  20950196.123    20950193.026   -22029446.91809 -17158726.81204      2272.441
      1770.734
 05  4 14 21  8 10.0000000  0 10G18G14G06G22G09G29G26G03G21G15
  21057220.512    21057215.812   -23281107.74308 -18132612.04204       106.533
        83.013
  22961644.369    22961643.246   -10965029.62606  -8531120.94701      3077.940
      2398.395
  23729641.301    23729645.083    -7609662.04705  -5916492.73401     -3390.322
     -2641.809
  21905162.230    21905158.128   -17276606.23608 -13445154.33603      1169.922
       911.628
  22165586.543    22165585.781   -16182902.62908 -12588213.57802      1728.179
      1346.633
  25180804.130    25180803.016     1052994.94902    830885.67401     -3431.352
     -2673.781
  23210187.167    23210185.512    -9940158.06307  -7737667.31501     -3624.921
     -2824.614
  24019088.931    24019088.349    -5806986.70405  -4517576.88201      1559.395
      1215.113
  20137988.091    20137984.121   -27442594.00909 -21363961.16005      -194.028
      -151.191
  20948034.714    20948031.522   -22040805.54309 -17167577.68203      2270.947
      1769.569
 05  4 14 21  8 15.0000000  0 10G18G14G06G22G09G29G26G03G21G15
  21057119.056    21057114.990   -23281638.58408 -18133025.68004       105.892
        82.513
  22958716.879    22958715.516   -10980415.48705  -8543109.90901      3076.459
      2397.241
  23732867.717    23732870.271    -7592710.28605  -5903283.61301     -3390.382
     -2641.856
  21904049.495    21904045.051   -17282454.10708 -13449711.10803      1169.349
       911.181
  22163943.854    22163942.261   -16191537.07307 -12594941.69602      1725.702
      1344.703
  25184068.871    25184067.964     1070150.44402    844253.54101     -3431.002
     -2673.508
  23213636.867    23213635.318    -9922031.40506  -7723542.65501     -3625.719
     -2825.236
  24017607.224    24017606.471    -5814776.69105  -4523646.98101      1556.737
      1213.042
  20138173.892    20138169.804   -27441617.58109 -21363200.30605      -196.530
      -153.140
  20945874.522    20945871.760   -22052156.65309 -17176422.70504      2269.593
      1768.514
 05  4 14 21  8 20.0000000  0 10G18G14G06G22G09G29G26G03G21G15
  21057018.977    21057015.280   -23282165.58308 -18133436.32904       105.199
        81.973
  22955790.504    22955788.626   -10995793.53906  -8555092.77301      3075.013
      2396.114
  23736093.453    23736095.971    -7575758.29805  -5890074.30301     -3390.148
     -2641.674
  21902936.886    21902932.482   -17288298.31808 -13454265.03503      1168.661
       910.645
  22162303.545    22162301.424   -16200158.37507 -12601659.57902      1723.040
      1342.629
  25187333.640    25187332.379     1087305.62703    857621.17501     -3430.817
     -2673.364
  23217087.238    23217085.140    -9903900.34706  -7709414.57601     -3626.423
     -2825.784
  24016127.197    24016125.726    -5822553.77105  -4529707.07601      1554.227
      1211.086
  20138362.511    20138358.200   -27440628.29609 -21362429.43705      -198.957
      -155.031
  20943715.890    20943713.461   -22063500.41508 -17185262.00003      2268.133
      1767.376
 05  4 14 21  8 25.0000000  0 10G18G14G06G22G09G29G26G03G21G15
  21056919.198    21056915.138   -23282688.80808 -18133844.04304       104.356
        81.316
  22952865.755    22952863.709   -11011163.81606  -8567069.60001      3073.423
      2394.875
  23739319.434    23739322.046    -7558806.12905  -5876864.85401     -3390.347
     -2641.829
  21901826.334    21901821.372   -17294138.94509 -13458816.16403      1167.827
       909.995
  22160665.327    22160663.249   -16208766.55908 -12608367.24902      1720.337
      1340.522
  25190599.041    25190597.190     1104460.51903    870988.68201     -3430.923
     -2673.446
  23220538.336    23220536.462    -9885764.94806  -7695283.10801     -3627.329
     -2826.490
  24014649.707    24014648.010    -5830317.92505  -4535757.06301      1551.704
      1209.120
  20138553.568    20138548.708   -27439626.15809 -21361648.55705      -201.650
      -157.130
  20941558.801    20941556.223   -22074836.80409 -17194095.53604      2266.626
      1766.202
 05  4 14 21  8 30.0000000  0 10G18G14G06G22G09G29G26G03G21G15
  21056820.425    21056816.273   -23283208.15008 -18134248.71804       103.455
        80.614
  22949942.405    22949940.026   -11026526.17106  -8579040.25501      3071.692
      2393.526
  23742545.275    23742547.760    -7541853.69005  -5863655.19501     -3390.441
     -2641.902
  21900715.501    21900710.174   -17299975.86208 -13463364.41003      1166.975
       909.331
  22159029.584    22159027.617   -16217361.49208 -12615064.59102      1717.586
      1338.379
  25193861.235    25193859.235     1121615.09003    884355.82201     -3430.989
     -2673.498
  23223990.130    23223988.358    -9867625.09607  -7681148.17601     -3628.489
     -2827.394
  24013175.836    24013173.032    -5838068.99205  -4541796.85401      1548.855
      1206.900
  20138745.969    20138741.828   -27438611.06409 -21360857.57305      -204.367
      -159.247
  20939403.038    20939399.987   -22086165.70109 -17202923.24004      2265.017
      1764.949
 05  4 14 21  8 35.0000000  0 10G18G14G06G22G09G29G26G03G21G15
  21056722.730    21056718.566   -23283723.97909 -18134650.65904       102.863
        80.153
  22947020.370    22947018.162   -11041881.01306  -8591005.05501      3070.241
      2392.396
  23745770.807    23745773.746    -7524901.29005  -5850445.56001     -3390.428
     -2641.892
  21899605.135    21899600.517   -17305809.46508 -13467910.06803      1166.403
       908.886
  22157396.356    22157394.394   -16225943.56608 -12621751.91502      1715.168
      1336.494
  25197126.982    25197124.998     1138769.00203    897722.53501     -3430.506
     -2673.122
  23227442.756    23227440.569    -9849481.18106  -7667010.07301     -3629.197
     -2827.946
  24011702.420    24011700.314    -5845807.38205  -4547826.75601      1546.393
      1204.982
  20138941.524    20138937.554   -27437583.40909 -21360056.80005      -206.795
      -161.139
  20937248.523    20937245.954   -22097487.48309 -17211745.40604      2263.684
      1763.909
 05  4 14 21  8 40.0000000  0 10G18G14G06G22G09G29G26G03G21G15
  21056625.136    21056620.833   -23284235.73709 -18135049.42904       102.006
        79.485
  22944100.233    22944097.947   -11057227.79106  -8602963.56601      3068.637
      2391.146
  23748997.203    23748999.717    -7507948.54805  -5837235.67901     -3390.387
     -2641.860
  21898495.692    21898491.197   -17311639.22708 -13472452.73303      1165.663
       908.309
  22155766.188    22155763.830   -16234512.18908 -12628428.75802      1712.548
      1334.453
  25200390.921    25200389.413     1155922.78203    911089.13801     -3430.675
     -2673.253
  23230896.401    23230894.747    -9831332.74406  -7652868.43501     -3630.016
     -2828.584
  24010232.900    24010229.983    -5853532.61105  -4553846.42001      1543.773
      1202.940
  20139139.967    20139135.512   -27436542.63709 -21359245.81605      -209.318
      -163.105
  20935095.487    20935092.699   -22108801.58909 -17220561.59104      2262.123
      1762.693
 05  4 14 21  8 45.0000000  0 10G18G14G06G22G09G29G26G03G21G15
  21056528.200    21056524.235   -23284743.70108 -18135445.24404       101.160
        78.826
  22941180.929    22941179.116   -11072566.74506  -8614915.97501      3066.888
      2389.783
  23752223.637    23752225.863    -7490995.61405  -5824025.63701     -3390.666
     -2642.077
  21897387.283    21897382.623   -17317465.36707 -13476992.58003      1164.734
       907.585
  22154138.002    22154136.187   -16243067.62708 -12635095.31802      1709.715
      1332.245
  25203655.462    25203653.824     1173076.10704    924455.30201     -3430.764
     -2673.322
  23234350.458    23234348.587    -9813180.03406  -7638723.49001     -3631.095
     -2829.425
  24008764.473    24008763.168    -5861244.87005  -4559855.95401      1541.077
      1200.839
  20139340.328    20139336.129   -27435488.97209 -21358424.78005      -212.111
      -165.281
  20932943.955    20932941.348   -22120108.30309 -17229372.02204      2260.458
      1761.396
 05  4 14 21  8 50.0000000  0 10G18G14G06G22G09G29G26G03G21G15
  21056432.368    21056428.787   -23285247.89908 -18135838.12404       100.533
        78.337
  22938263.251    22938262.210   -11087897.87406  -8626862.28401      3065.625
      2388.799
  23755449.706    23755451.805    -7474042.56705  -5810815.51901     -3390.532
     -2641.973
  21896279.082    21896274.561   -17323287.92808 -13481529.62903      1164.268
       907.222
  22152512.475    22152510.269   -16251609.87407 -12641751.60802      1707.163
      1330.257
  25206919.770    25206918.107     1190229.07203    937821.30201     -3430.454
     -2673.081
  23237805.508    23237803.993    -9795023.05706  -7624575.19301     -3631.679
     -2829.880
  24007298.838    24007298.155    -5868944.20405  -4565855.43101      1538.711
      1198.996
  20139543.675    20139539.125   -27434422.43309 -21357593.71205      -214.555
      -167.186
  20930793.602    20930790.963   -22131407.57909 -17238176.64604      2259.195
      1760.411
 05  4 14 21  8 55.0000000  0 10G18G14G06G22G09G29G26G03G21G15
  21056337.108    21056333.018   -23285748.32509 -18136228.06904        99.782
        77.753
  22935347.161    22935346.746   -11103221.16406  -8638802.47101      3063.953
      2387.496
  23758676.046    23758677.769    -7457089.41505  -5797605.29801     -3390.554
     -2641.990
  21895171.609    21895167.153   -17329106.96408 -13486063.94703      1163.611
       906.710
  22150889.733    22150887.350   -16260138.97808 -12648397.65802      1704.577
      1328.242
  25210183.784    25210182.409     1207381.52403    951186.79701     -3430.374
     -2673.019
  23241261.316    23241259.849    -9776861.82906  -7610423.59001     -3632.605
     -2830.602
  24005837.341    24005836.065    -5876630.57405  -4571844.81001      1536.189
      1197.030
  20139748.654    20139744.360   -27433343.07509 -21356752.65805      -217.127
      -169.190
  20928645.099    20928642.191   -22142699.45809 -17246975.50304      2257.683
      1759.234
 05  4 14 21  9  0.0000000  0 10G18G14G06G22G09G29G26G03G21G15
  21056242.880    21056238.495   -23286244.96208 -18136615.05504        98.966
        77.116
  22932433.269    22932432.481   -11118536.59106  -8650736.56201      3062.414
      2386.296
  23761902.468    23761904.052    -7440136.13905  -5784395.01101     -3390.702
     -2642.105
  21894064.752    21894060.662   -17334922.36308 -13490595.41703      1162.765
       906.051
  22149269.284    22149267.000   -16268654.83108 -12655033.37702      1701.881
      1326.141
  25213447.694    25213446.111     1224533.61703    964552.06401     -3430.301
     -2672.962
  23244718.802    23244716.330    -9758696.23606  -7596268.60101     -3633.656
     -2831.420
  24004376.418    24004375.697    -5884303.91605  -4577824.04501      1533.370
      1194.834
  20139956.477    20139952.639   -27432250.78309 -21355901.51805      -219.715
      -171.207
  20926497.514    20926494.732   -22153983.84609 -17255768.53304      2256.203
      1758.080
 05  4 14 21  9  5.0000000  0 10G18G14G06G22G09G29G26G03G21G15
  21056149.061    21056144.913   -23286737.72109 -18136999.02404        98.277
        76.579
  22929519.828    22929519.707   -11133844.12506  -8662664.46001      3060.831
      2385.063
  23765128.254    23765129.847    -7423182.71505  -5771184.59601     -3390.620
     -2642.041
  21892959.269    21892954.718   -17340734.12108 -13495124.05103      1162.086
       905.521
  22147650.906    22147648.694   -16277157.38508 -12661658.73202      1699.234
      1324.078
  25216710.598    25216710.248     1241685.29503    977917.00201     -3430.292
     -2672.955
  23248176.294    23248174.122    -9740526.42206  -7582110.32701     -3634.345
     -2831.957
  24002918.737    24002917.964    -5891964.26005  -4583793.13901      1530.816
      1192.844
  20140166.479    20140162.236   -27431145.52309 -21355040.28105      -222.348
      -173.258
  20924351.561    20924348.914   -22165260.68309 -17264555.66804      2254.635
      1756.858
 05  4 14 21  9 10.0000000  0 10G18G14G06G22G09G29G26G03G21G15
  21056055.756    21056051.602   -23287226.59609 -18137379.96404        97.510
        75.982
  22926609.041    22926607.565   -11149143.72005  -8674586.20801      3059.365
      2383.921
  23768355.029    23768356.088    -7406229.09405  -5757974.00201     -3390.688
     -2642.095
  21891853.958    21891849.294   -17346542.21908 -13499649.84003      1161.323
       904.927
  22146035.516    22146033.194   -16285646.64908 -12668273.72602      1696.621
      1322.042
  25219974.776    25219974.167     1258836.61403    991281.63501     -3429.995
     -2672.723
  23251634.799    23251632.942    -9722352.35306  -7567948.72201     -3635.161
     -2832.593
  24001463.354    24001462.706    -5899611.55105  -4589752.04301      1528.267
      1190.857
  20140379.944    20140375.277   -27430027.29009 -21354168.93305      -224.761
      -175.138
  20922207.233    20922204.700   -22176530.01909 -17273336.96104      2253.228
      1755.762
 05  4 14 21  9 15.0000000  0 10G18G14G06G22G09G29G26G03G21G15
  21055963.625    21055959.303   -23287711.39208 -18137757.73904        96.432
        75.142
  22923699.187    22923697.062   -11164435.14306  -8686501.57001      3057.379
      2382.373
  23771580.090    23771582.300    -7389275.13705  -5744763.17001     -3390.955
     -2642.303
  21890749.303    21890744.509   -17352346.46108 -13504172.62103      1160.309
       904.137
  22144422.727    22144420.997   -16294122.36508 -12674878.17302      1693.591
      1319.681
  25223238.574    25223237.520     1275987.77003   1004646.13101     -3430.501
     -2673.118
  23255094.131    23255092.391    -9704173.73306  -7553783.56201     -3636.419
     -2833.573
  24000010.318    24000009.835    -5907245.55005  -4595700.60801      1525.280
      1188.530
  20140595.019    20140590.490   -27428895.86009 -21353287.30305      -227.694
      -177.424
  20920064.307    20920061.661   -22187791.54609 -17282112.17604      2251.379
      1754.321
 05  4 14 21  9 20.0000000  0 10G18G14G06G22G09G29G26G03G21G15
  21055871.875    21055867.833   -23288193.10209 -18138133.09004        95.971
        74.783
  22920790.473    22920788.991   -11179719.36206  -8698411.34201      3056.055
      2381.341
  23774807.223    23774808.573    -7372321.84405  -5731552.86701     -3390.616
     -2642.038
  21889645.084    21889640.771   -17358147.77708 -13508693.11703      1159.926
       903.839
  22142812.330    22142810.162   -16302585.49508 -12681472.80402      1691.328
      1317.918
  25226502.484    25226501.794     1293137.80603   1018009.82901     -3429.859
     -2672.617
  23258553.836    23258552.472    -9685991.58106  -7539615.67001     -3636.685
     -2833.781
  23998561.222    23998559.290    -5914867.22705  -4601639.57201      1522.973
      1186.732
  20140812.522    20140808.144   -27427752.21909 -21352396.15105      -229.976
      -179.202
  20917922.639    20917919.799   -22199046.27109 -17290882.10004      2250.293
      1753.475
 05  4 14 21  9 25.0000000  0 10G18G14G06G22G09G29G26G03G21G15
  21055781.093    21055776.902   -23288670.68808 -18138505.23304        95.331
        74.284
  22917883.730    22917882.024   -11194995.35906  -8710314.70301      3054.506
      2380.134
  23778033.520    23778034.458    -7355368.06706  -5718342.15601     -3390.704
     -2642.107
  21888541.981    21888537.630   -17363945.16708 -13513210.56103      1159.301
       903.351
  22141204.048    22141202.529   -16311034.98108 -12688056.81303      1688.671
      1315.847
  25229765.956    25229765.071     1310287.62602   1031373.26601     -3429.708
     -2672.500
  23262014.879    23262013.065    -9667804.93007  -7525444.25201     -3637.545
     -2834.451
  23997112.385    23997111.471    -5922475.54205  -4607568.14401      1520.453
      1184.769
  20141032.789    20141028.019   -27426595.32609 -21351494.67305      -232.560
      -181.215
  20915782.255    20915779.541   -22210293.13109 -17299645.87703      2248.739
      1752.264
 05  4 14 21  9 30.0000000  0 10G18G14G06G22G09G29G26G03G21G15
  21055690.849    21055687.033   -23289144.44808 -18138874.40004        94.473
        73.615
  22914978.317    22914976.287   -11210263.40906  -8722211.85801      3053.013
      2378.971
  23781259.586    23781261.012    -7338414.25306  -5705131.43401     -3390.639
     -2642.057
  21887439.951    21887435.324   -17369738.93508 -13517725.17903      1158.555
       902.770
  22139598.836    22139597.255   -16319471.10608 -12694630.41302      1686.001
      1313.767
  25233029.655    25233028.813     1327437.11502   1044736.50001     -3429.824
     -2672.590
  23265476.367    23265474.825    -9649613.98407  -7511269.49601     -3638.540
     -2835.226
  23995667.391    23995665.390    -5930070.82405  -4613486.52601      1517.852
      1182.742
  20141255.407    20141250.950   -27425425.45009 -21350583.08705      -235.141
      -183.227
  20913643.522    20913640.761   -22221532.39509 -17308403.74503      2247.197
      1751.063
 05  4 14 21  9 35.0000000  0 10G18G14G06G22G09G29G26G03G21G15
  21055601.408    21055597.196   -23289614.49608 -18139240.67204        93.670
        72.990
  22912074.083    22912072.447   -11225523.57205  -8734102.87601      3051.370
      2377.691
  23784486.106    23784487.607    -7321460.43506  -5691920.68801     -3390.729
     -2642.127
  21886337.929    21886333.663   -17375529.14807 -13522237.01803      1157.747
       902.141
  22137995.862    22137994.377   -16327893.95807 -12701193.66502      1683.245
      1311.620
  25236292.203    25236292.181     1344586.14802   1058099.32701     -3430.002
     -2672.729
  23268938.729    23268936.982    -9631418.94807  -7497091.56701     -3639.372
     -2835.874
  23994224.662    23994222.246    -5937653.09405  -4619394.80201      1515.169
      1180.651
  20141480.635    20141475.863   -27424242.70209 -21349661.46505      -237.800
      -185.299
  20911506.076    20911503.404   -22232764.16209 -17317155.76103      2245.696
      1749.893
 05  4 14 21  9 40.0000000  0 10G18G14G06G22G09G29G26G03G21G15
  21055512.928    21055508.624   -23290080.68909 -18139603.93304        92.791
        72.305
  22909172.146    22909170.158   -11240775.73506  -8745987.64101      3049.607
      2376.317
  23787712.386    23787713.374    -7304506.51906  -5678709.87701     -3390.861
     -2642.229
  21885236.781    21885232.103   -17381315.71608 -13526746.03503      1156.873
       901.460
  22136395.591    22136394.226   -16336303.42208 -12707746.48502      1680.545
      1309.516
  25239556.401    25239555.376     1361734.57102   1071461.77901     -3429.646
     -2672.451
  23272402.013    23272400.248    -9613219.68107  -7482910.33501     -3640.319
     -2836.613
  23992784.707    23992782.026    -5945222.28106  -4625292.87201      1512.488
      1178.562
  20141707.938    20141703.466   -27423046.91609 -21348729.68005      -240.525
      -187.422
  20909370.657    20909367.458   -22243988.29309 -17325901.83703      2243.997
      1748.569
 05  4 14 21  9 45.0000000  0 10G18G14G06G22G09G29G26G03G21G15
  21055424.785    21055420.754   -23290543.07908 -18139964.23404        92.063
        71.738
  22906270.457    22906269.321   -11256020.00506  -8757866.28101      3048.055
      2375.108
  23790938.167    23790939.745    -7287552.62006  -5665499.09401     -3390.910
     -2642.268
  21884136.015    21884131.357   -17387098.75408 -13531252.28603      1156.238
       900.965
  22134798.444    22134795.910   -16344699.52508 -12714288.89802      1677.830
      1307.400
  25242819.217    25242818.190     1378882.59503   1084823.83901     -3429.538
     -2672.367
  23275866.203    23275864.560    -9595016.29907  -7468725.90401     -3641.101
     -2837.221
  23991347.109    23991344.177    -5952778.47006  -4631180.82101      1509.930
      1176.568
  20141938.111    20141933.662   -27421838.21209 -21347787.83705      -243.054
      -189.393
  20907236.273    20907233.261   -22255204.89309 -17334642.04604      2242.542
      1747.435
 05  4 14 21  9 50.0000000  0 10G18G14G06G22G09G29G26G03G21G15
  21055337.239    21055333.323   -23291001.94508 -18140321.79804        91.459
        71.267
  22903371.272    22903369.949   -11271256.60606  -8769738.93801      3046.703
      2374.054
  23794164.765    23794166.087    -7270598.99106  -5652288.49901     -3390.616
     -2642.038
  21883036.102    21883031.874   -17392878.48408 -13535755.96703      1155.751
       900.585
  22133202.746    22133201.048   -16353082.56107 -12720821.12502      1675.365
      1305.479
  25246082.384    25246080.885     1396029.79903   1098185.29401     -3429.439
     -2672.290
  23279330.998    23279329.475    -9576809.07607  -7454538.45401     -3641.715
     -2837.700
  23989911.161    23989908.807    -5960321.92506  -4637058.83401      1507.563
      1174.724
  20142170.221    20142165.981   -27420616.83009 -21346836.10505      -245.440
      -191.252
  20905102.800    20905100.155   -22266414.18209 -17343376.54904      2241.200
      1746.390
 05  4 14 21  9 55.0000000  0 10G18G14G06G22G09G29G26G03G21G15
  21055250.668    21055246.930   -23291456.65409 -18140676.11204        90.716
        70.688
  22900473.954    22900472.387   -11286484.87906  -8781605.10401      3045.081
      2372.791
  23797390.741    23797391.782    -7253644.98906  -5639077.60401     -3390.778
     -2642.164
  21881937.247    21881932.455   -17398654.22408 -13540256.54403      1154.808
       899.850
  22131610.298    22131608.472   -16361451.81907 -12727342.61802      1672.640
      1303.356
  25249346.107    25249343.950     1413176.79603   1111546.54801     -3429.123
     -2672.043
  23282796.292    23282794.951    -9558597.28307  -7440347.47301     -3642.682
     -2838.453
  23988478.508    23988476.064    -5967851.93006  -4642926.35801      1504.755
      1172.536
  20142405.457    20142400.922   -27419382.11409 -21345873.99805      -248.136
      -193.353
  20902971.453    20902968.650   -22277615.51209 -17352104.84904      2239.593
      1745.138
 05  4 14 21 10  0.0000000  0 10G18G14G06G22G09G29G26G03G21G15
  21055165.044    21055161.042   -23291907.87008 -18141027.71604        90.049
        70.168
  22897577.430    22897576.159   -11301705.48806  -8793465.28901      3043.418
      2371.495
  23800616.791    23800618.194    -7236691.41006  -5625867.07601     -3390.498
     -2641.946
  21880838.518    21880834.062   -17404426.73807 -13544754.60203      1154.366
       899.506
  22130019.890    22130017.955   -16369808.02607 -12733853.93702      1670.137
      1301.406
  25252607.817    25252607.184     1430322.98103   1124907.17701     -3429.018
     -2671.962
  23286262.858    23286261.221    -9540381.74706  -7426153.54401     -3643.354
     -2838.977
  23987047.617    23987045.096    -5975369.18405  -4648783.97801      1502.325
      1170.643
  20142643.026    20142638.392   -27418134.78109 -21344902.04405      -250.566
      -195.246
  20900841.374    20900838.223   -22288809.56109 -17360827.48604      2238.311
      1744.138
 05  4 14 21 10  5.0000000  0 10G18G14G06G22G09G29G26G03G21G15
  21055080.115    21055076.171   -23292355.02709 -18141376.13804        89.028
        69.372
  22894682.469    22894681.171   -11316917.86806  -8805319.07101      3041.625
      2370.098
  23803843.279    23803845.273    -7219737.52406  -5612656.28601     -3390.787
     -2642.171
  21879741.004    21879736.160   -17410195.36708 -13549249.63503      1153.344
       898.710
  22128432.626    22128430.514   -16378150.53207 -12740354.58102      1667.192
      1299.111
  25255871.238    25255869.946     1447468.93703   1138267.71301     -3429.029
     -2671.970
  23289729.423    23289727.869    -9522161.81106  -7411956.20001     -3644.365
     -2839.765
  23985620.026    23985617.368    -5982873.12505  -4654631.20901      1499.438
      1168.393
  20142882.492    20142878.331   -27416874.16809 -21343919.75605      -253.379
      -197.438
  20898712.724    20898709.630   -22299995.69009 -17369543.94604      2236.572
      1742.783
 05  4 14 21 10 10.0000000  0 10G18G14G06G22G09G29G26G03G21G15
  21054995.350    21054991.590   -23292798.61109 -18141721.79504        88.485
        68.949
  22891788.737    22891788.278   -11332122.50405  -8817166.82101      3040.311
      2369.074
  23807069.708    23807071.677    -7202783.91306  -5599445.72901     -3390.533
     -2641.974
  21878643.957    21878639.503   -17415960.69008 -13553742.08603      1152.870
       898.340
  22126847.355    22126845.581   -16386479.84808 -12746844.94802      1664.711
      1297.177
  25259133.084    25259132.120     1464614.13403   1151627.56601     -3428.795
     -2671.788
  23293197.836    23293196.019    -9503938.05206  -7397755.88601     -3645.006
     -2840.264
  23984194.427    23984192.375    -5990364.22305  -4660468.42801      1497.079
      1166.555
  20143124.718    20143120.996   -27415600.83909 -21342927.55005      -255.763
      -199.296
  20896585.726    20896582.633   -22311174.41109 -17378254.63604      2235.155
      1741.679
 05  4 14 21 10 15.0000000  0 10G18G14G06G22G09G29G26G03G21G15
  21054911.532    21054907.966   -23293238.10308 -18142064.25504        87.474
        68.161
  22888896.689    22888896.424   -11347318.88405  -8829008.12401      3038.464
      2367.635
  23810295.373    23810297.312    -7185830.13206  -5586235.01101     -3390.798
     -2642.180
  21877547.784    21877542.895   -17421722.12308 -13558231.51203      1151.883
       897.571
  22125265.066    22125263.135   -16394795.46007 -12753324.63402      1661.697
      1294.829
  25262395.569    25262395.376     1481759.11403   1164987.28001     -3429.020
     -2671.964
  23296666.685    23296664.787    -9485709.89706  -7383552.12201     -3646.179
     -2841.178
  23982771.832    23982769.270    -5997841.94405  -4666295.23201      1494.119
      1164.249
  20143369.796    20143365.673   -27414314.21909 -21341924.98805      -258.713
      -201.595
  20894459.780    20894456.775   -22322345.20809 -17386959.14404      2233.348
      1740.271
 05  4 14 21 10 20.0000000  0 10G18G14G06G22G09G29G26G03G21G15
  21054829.343    21054825.376   -23293673.82009 -18142403.76604        86.544
        67.437
  22886006.605    22886006.109   -11362507.23905  -8840843.18601      3036.710
      2366.268
  23813522.163    23813523.986    -7168876.34906  -5573024.31801     -3391.005
     -2642.341
  21876452.130    21876447.576   -17427480.01607 -13562718.17603      1151.105
       896.965
  22123685.021    22123683.511   -16403097.60108 -12759793.82902      1658.971
      1292.705
  25265658.917    25265657.483     1498903.49803   1178346.54001     -3428.963
     -2671.919
  23300136.235    23300134.048    -9467477.70106  -7369345.21801     -3646.986
     -2841.807
  23981351.274    23981348.822    -6005306.58205  -4672111.83301      1491.393
      1162.124
  20143617.240    20143612.925   -27413014.59309 -21340912.29305      -261.424
      -203.707
  20892335.153    20892332.664   -22333508.33509 -17395657.68904      2231.686
      1738.976
 05  4 14 21 10 25.0000000  0 10G18G14G06G22G09G29G26G03G21G15
  21054746.825    21054743.104   -23294106.03108 -18142740.56004        86.119
        67.105
  22883117.607    22883116.910   -11377687.94405  -8852672.26101      3035.440
      2365.278
  23816747.683    23816750.213    -7151922.91606  -5559813.87401     -3390.644
     -2642.061
  21875356.849    21875352.601   -17433234.61407 -13567202.26403      1150.577
       896.553
  22122108.145    22122106.405   -16411386.58707 -12766252.77402      1656.446
      1290.737
  25268921.102    25268919.957     1516047.04003   1191705.13601     -3428.627
     -2671.658
  23303606.118    23303604.123    -9449241.74206  -7355135.39201     -3647.543
     -2842.242
  23979932.830    23979930.318    -6012758.44005  -4677918.48901      1489.034
      1160.286
  20143866.899    20143862.783   -27411702.25509 -21339889.68905      -263.852
      -205.599
  20890212.986    20890209.584   -22344664.09409 -17404350.48004      2230.396
      1737.971
 05  4 14 21 10 30.0000000  0 10G18G14G06G22G09G29G26G03G21G15
  21054665.414    21054661.474   -23294534.13309 -18143074.14804        85.219
        66.404
  22880230.621    22880229.544   -11392860.23505  -8864494.81401      3033.574
      2363.824
  23819974.110    23819976.538    -7134969.22606  -5546603.25401     -3390.719
     -2642.118
  21874262.406    21874257.813   -17438985.34208 -13571683.34503      1149.755
       895.913
  22120533.300    22120531.392   -16419661.79707 -12772700.97502      1653.642
      1288.552
  25272182.914    25272182.008     1533190.37103   1205063.60001     -3428.697
     -2671.712
  23307076.545    23307074.566    -9431001.43207  -7340922.18201     -3648.428
     -2842.931
  23978517.748    23978515.368    -6020196.88105  -4683714.66001      1486.332
      1158.181
  20144119.345    20144114.911   -27410376.60409 -21338856.71505      -266.466
      -207.636
  20888091.478    20888088.130   -22355811.86809 -17413037.04304      2228.710
      1736.657
 05  4 14 21 10 35.0000000  0 10G18G14G06G22G09G29G26G03G21G15
  21054584.726    21054580.907   -23294958.70709 -18143404.98104        84.663
        65.971
  22877344.321    22877343.379   -11408024.81806  -8876311.35401      3032.202
      2362.755
  23823199.776    23823202.728    -7118015.91406  -5533392.92801     -3390.571
     -2642.003
  21873168.649    21873164.300   -17444732.72508 -13576161.82003      1149.263
       895.530
  22118960.759    22118959.405   -16427923.73308 -12779138.83502      1651.187
      1286.639
  25275444.891    25275443.770     1550332.84703   1218421.30801     -3428.427
     -2671.502
  23310548.692    23310546.989    -9412757.30406  -7326705.99901     -3649.067
     -2843.429
  23977104.900    23977102.767    -6027622.48205  -4689500.83701      1483.887
      1156.276
  20144373.754    20144369.655   -27409038.16809 -21337813.78005      -268.886
      -209.522
  20885970.966    20885968.878   -22366952.17309 -17421717.81204      2227.437
      1735.665
 05  4 14 21 10 40.0000000  0 10G18G14G06G22G09G29G26G03G21G15
  21054504.204    21054500.553   -23295379.32409 -18143732.73004        83.760
        65.267
  22874460.372    22874459.161   -11423181.20206  -8888121.51601      3030.547
      2361.466
  23826425.948    23826428.630    -7101062.58206  -5520182.57701     -3390.581
     -2642.011
  21872075.813    21872071.631   -17450476.40408 -13580637.41003      1148.408
       894.864
  22117391.243    22117389.509   -16436172.01208 -12785566.05602      1648.340
      1284.421
  25278707.938    25278705.722     1567474.92103   1231778.80001     -3428.379
     -2671.464
  23314020.976    23314019.542    -9394509.02806  -7312486.57001     -3650.005
     -2844.160
  23975693.666    23975691.994    -6035034.76905  -4695276.66001      1481.206
      1154.187
  20144631.012    20144626.901   -27407686.53609 -21336760.56905      -271.562
      -211.607
  20883852.839    20883850.426   -22378084.56309 -17430392.39504      2225.781
      1734.375
 05  4 14 21 10 45.0000000  0 10G18G14G06G22G09G29G26G03G21G15
  21054425.420    21054421.192   -23295796.22009 -18144057.58604        82.884
        64.585
  22871578.366    22871576.443   -11438329.54806  -8899925.38801      3028.743
      2360.060
  23829652.310    23829655.073    -7084109.34205  -5506972.31401     -3390.807
     -2642.188
  21870983.482    21870978.810   -17456216.51908 -13585110.21603      1147.537
       894.185
  22115824.418    22115822.497   -16444406.79708 -12791982.76002      1645.443
      1282.163
  25281969.283    25281967.676     1584616.37203   1245135.78601     -3428.429
     -2671.503
  23317494.781    23317493.017    -9376256.76106  -7298264.02201     -3651.096
     -2845.010
  23974285.676    23974284.104    -6042434.01905  -4701042.29301      1478.411
      1152.009
  20144890.503    20144886.430   -27406321.96009 -21335697.26605      -274.304
      -213.743
  20881735.755    20881733.152   -22389209.30709 -17439061.02304      2224.085
      1733.053
 05  4 14 21 10 50.0000000  0 10G18G14G06G22G09G29G26G03G21G15
  21054346.764    21054342.580   -23296209.51909 -18144379.63404        82.325
        64.149
  22868697.139    22868695.985   -11453470.03206  -8911723.15401      3027.374
      2358.992
  23832878.758    23832881.012    -7067156.51605  -5493762.34001     -3390.473
     -2641.927
  21869891.466    21869887.409   -17461953.24008 -13589580.38203      1147.032
       893.791
  22114260.085    22114257.987   -16452628.25008 -12798389.08402      1643.052
      1280.300
  25285230.263    25285229.123     1601757.00203   1258492.08801     -3428.076
     -2671.228
  23320968.667    23320966.993    -9358000.69806  -7284038.55201     -3651.533
     -2845.351
  23972880.469    23972878.027    -6049820.34005  -4706797.89101      1475.996
      1150.127
  20145152.891    20145148.342   -27404944.46309 -21334623.89205      -276.738
      -215.640
  20879620.384    20879617.710   -22400326.52809 -17447723.78304      2222.706
      1731.978
 05  4 14 21 10 55.0000000  0 10G18G14G06G22G09G29G26G03G21G15
  21054268.561    21054264.500   -23296618.86809 -18144698.60804        81.581
        63.570
  22865817.001    22865816.252   -11468602.27706  -8923514.50301      3025.673
      2357.667
  23836104.423    23836107.267    -7050203.65105  -5480552.37401     -3390.656
     -2642.069
  21868800.241    21868796.851   -17467686.24907 -13594047.65803      1146.371
       893.276
  22112697.974    22112696.321   -16460835.96907 -12804784.69902      1640.292
      1278.149
  25288491.427    25288490.850     1618897.19903   1271848.11201     -3428.023
     -2671.187
  23324443.899    23324441.667    -9339740.47806  -7269809.81801     -3652.443
     -2846.059
  23971477.043    23971475.020    -6057193.37605  -4712543.08501      1473.280
      1148.010
  20145417.572    20145413.125   -27403553.77009 -21333540.23505      -279.283
      -217.623
  20877506.093    20877503.658   -22411435.85009 -17456380.39604      2221.093
      1730.721
 05  4 14 21 11  0.0000000  0 10G18G14G06G22G09G29G26G03G21G15
  21054191.463    21054187.594   -23297024.37109 -18145014.58704        80.783
        62.948
  22862939.195    22862938.302   -11483726.38706  -8935299.49701      3023.967
      2356.338
  23839330.369    23839333.334    -7033250.88505  -5467342.47201     -3390.550
     -2641.987
  21867710.660    21867706.139   -17473415.65107 -13598512.11803      1145.598
       892.674
  22111138.488    22111136.680   -16469030.09507 -12811169.71602      1637.521
      1275.991
  25291753.741    25291752.332     1636036.85603   1285203.64701     -3427.927
     -2671.112
  23327919.592    23327917.560    -9321476.30607  -7255577.98701     -3653.186
     -2846.639
  23970076.436    23970074.155    -6064553.24105  -4718278.03201      1470.676
      1145.981
  20145684.737    20145680.464   -27402149.99709 -21332446.37405      -282.019
      -219.755
  20875393.484    20875390.733   -22422537.35309 -17465030.91504      2219.538
      1729.510
 05  4 14 21 11  5.0000000  0 10G18G14G06G22G09G29G26G03G21G15
  21054114.446    21054111.232   -23297426.37609 -18145327.84204        80.146
        62.452
  22860062.701    22860061.538   -11498842.67106  -8947078.40401      3022.578
      2355.256
  23842556.182    23842559.050    -7016298.53505  -5454132.87401     -3390.396
     -2641.867
  21866620.906    21866616.543   -17479141.69107 -13602973.95703      1144.976
       892.189
  22109582.330    22109580.029   -16477210.86408 -12817544.33802      1634.888
      1273.938
  25295015.325    25295013.172     1653175.66202   1298558.58901     -3427.466
     -2670.753
  23331395.463    23331393.497    -9303208.41107  -7241343.29501     -3653.936
     -2847.222
  23968678.648    23968676.112    -6071900.17906  -4724002.94801      1468.135
      1144.001
  20145954.185    20145949.987   -27400733.44909 -21331342.57605      -284.512
      -221.697
  20873282.449    20873279.827   -22433631.32409 -17473675.56704      2218.145
      1728.424
 05  4 14 21 11 10.0000000  0 10G18G14G06G22G09G29G26G03G21G15
  21054039.355    21054035.197   -23297824.68109 -18145638.19904        79.472
        61.926
  22857187.544    22857186.485   -11513950.98205  -8958851.07401      3021.049
      2354.064
  23845782.454    23845785.501    -6999346.40705  -5440923.47501     -3390.006
     -2641.563
  21865532.285    21865527.984   -17484864.28207 -13607433.11903      1144.443
       891.773
  22108027.563    22108024.982   -16485378.16008 -12823908.46402      1632.323
      1271.940
  25298276.706                     1670313.77802         0.00010     -3427.334
         0.000
  23334873.028    23334870.576    -9284936.62407  -7227105.53401     -3654.595
     -2847.737
  23967283.601    23967280.499    -6079234.08505  -4729717.68001      1465.634
      1142.052
  20146226.204    20146221.910   -27399303.92709 -21330228.66405      -287.061
      -223.684
  20871173.105    20871169.873   -22444717.61009 -17482314.22304      2216.703
      1727.301
 05  4 14 21 11 15.0000000  0 10G18G14G06G22G09G29G26G03G21G15
  21053964.107    21053960.048   -23298218.87109 -18145945.36804        78.773
        61.382
  22854314.703    22854313.505   -11529050.91806  -8970617.22301      3019.442
      2352.812
  23849008.045    23849011.605    -6982394.15605  -5427713.99301     -3390.153
     -2641.677
  21864443.433    21864439.592   -17490583.04607 -13611889.28503      1143.598
       891.115
  22106476.095    22106473.830   -16493531.58607 -12830261.77702      1629.584
      1269.806
  25301536.800                     1687451.44402         0.00010     -3427.086
         0.000
  23338350.572    23338348.248    -9266660.61507  -7212864.50201     -3655.265
     -2848.258
  23965890.173    23965887.565    -6086554.52705  -4735421.91901      1462.943
      1139.956
  20146500.702    20146496.362   -27397861.09009 -21329104.38105      -289.572
      -225.640
  20869064.599    20869061.892   -22455795.81509 -17490946.58904      2215.121
      1726.068
 05  4 14 21 11 20.0000000  0 10G18G14G06G22G09G29G26G03G21G15
  21053889.995    21053885.956   -23298609.49209 -18146249.73904        77.893
        60.696
  22851442.594    22851440.966   -11544142.88506  -8982377.18001      3017.668
      2351.430
  23852233.607    23852237.478    -6965442.34805  -5414504.81101     -3390.076
     -2641.618
  21863355.964    21863351.473   -17496298.39808 -13616342.80603      1142.893
       890.566
  22104927.023    22104924.855   -16501671.56208 -12836604.59302      1626.760
      1267.605
  25304798.179                     1704588.43503         0.00010     -3427.375
         0.000
  23341827.934    23341826.489    -9248380.89006  -7198620.55901     -3656.233
     -2849.013
  23964499.863    23964497.036    -6093862.00306  -4741116.07201      1460.256
      1137.862
  20146777.882    20146773.543   -27396405.37709 -21327970.06205      -292.317
      -227.779
  20866958.424    20866955.175   -22466866.37409 -17499572.99404      2213.499
      1724.804
 05  4 14 21 11 25.0000000  0 10G18G14G06G22G09G29G26G03G21G15
  21053816.316    21053812.377   -23298996.20309 -18146551.08004        77.062
        60.049
  22848572.453    22848570.551   -11559226.64006  -8994130.72701      3016.012
      2350.140
  23855459.605    23855463.457    -6948490.55505  -5401295.68801     -3390.296
     -2641.789
  21862269.010    21862264.463   -17502010.05008 -13620793.43203      1141.974
       889.850
  22103381.243    22103378.308   -16509797.80208 -12842936.73002      1623.967
      1265.429
  25308060.473                     1721724.79402         0.00010     -3427.235
         0.000
  23345307.854    23345305.939    -9230097.16106  -7184373.51101     -3656.995
     -2849.607
  23963111.841    23963109.612    -6101156.21206  -4746799.85301      1457.492
      1135.708
  20147057.191    20147052.798   -27394936.47209 -21326825.46205      -295.047
      -229.907
  20864852.712    20864850.040   -22477928.97609 -17508193.20704      2211.808
      1723.487
 05  4 14 21 11 30.0000000  0 10G18G14G06G22G09G29G26G03G21G15
  21053742.995    21053739.664   -23299379.18209 -18146849.50404        76.279
        59.438
  22845703.381    22845701.940   -11574302.35106  -9005878.01401      3014.330
      2348.829
  23858684.788    23858689.233    -6931539.08904  -5388086.80601     -3390.172
     -2641.692
  21861182.747    21861178.590   -17507718.22008 -13625241.35403      1141.274
       889.304
  22101836.891    22101833.889   -16517910.43508 -12849258.26302      1621.215
      1263.284
  25311320.587                     1738860.47103         0.00010     -3427.208
         0.000
  23348788.143    23348786.219    -9211809.56606  -7170123.44201     -3657.935
     -2850.339
  23961726.322    23961723.826    -6108437.32705  -4752473.45701      1454.980
      1133.750
  20147339.207    20147335.084   -27393454.55709 -21325670.72705      -297.677
      -231.956
  20862749.360    20862746.352   -22488983.80609 -17516807.36004      2210.204
      1722.237
 05  4 14 21 11 35.0000000  0 10G18G14G06G22G09G29G26G03G21G15
  21053671.203    21053667.293   -23299758.51608 -18147145.08704        75.599
        58.909
  22842836.065    22842833.861   -11589370.05806  -9017619.06901      3012.733
      2347.584
  23861910.769    23861914.821    -6914587.93904  -5374878.17501     -3390.216
     -2641.727
  21860096.991    21860093.333   -17513423.00407 -13629686.63703      1140.638
       888.809
  22100295.561    22100292.771   -16526009.55307 -12855569.24802      1618.597
      1261.245
  25314580.908                     1755995.34702         0.00010     -3426.852
         0.000
  23352268.896    23352267.072    -9193518.24206  -7155870.48401     -3658.585
     -2850.846
  23960342.488    23960340.689    -6115705.39105  -4758136.86801      1452.406
      1131.745
  20147624.110    20147619.008   -27391959.71709 -21324505.91605      -300.153
      -233.885
  20860647.337    20860644.548   -22500030.91509 -17525415.49104      2208.676
      1721.046
 05  4 14 21 11 40.0000000  0 10G18G14G06G22G09G29G26G03G21G15
  21053599.724    21053595.402   -23300134.20609 -18147437.83004        75.016
        58.454
  22839970.269    22839967.871   -11604429.76406  -9029353.89101      3011.324
      2346.486
  23865137.087    23865140.521    -6897637.23904  -5361669.88901     -3389.940
     -2641.512
  21859012.600    21859008.076   -17519124.38907 -13634129.26803      1140.196
       888.465
  22098757.239    22098753.972   -16534095.14407 -12861869.69102      1615.890
      1259.135
  25317841.615                     1773129.41902         0.00010     -3426.742
         0.000
  23355750.354    23355748.736    -9175223.20306  -7141614.60901     -3659.145
     -2851.281
  23958962.196    23958959.401    -6122960.42306  -4763790.13201      1449.942
      1129.825
  20147910.660    20147906.176   -27390451.95109 -21323331.03605      -302.626
      -235.813
  20858546.853    20858543.272   -22511070.31609 -17534017.61604      2207.262
      1719.944
 05  4 14 21 11 45.0000000  0 10G18G14G06G22G09G29G26G03G21G15
  21053529.147    21053524.884   -23300505.74409 -18147727.34004        74.001
        57.663
  22837106.108    22837103.538   -11619480.92106  -9041082.04901      3009.328
      2344.931
  23868362.177    23868365.867    -6880686.40304  -5348461.49801     -3390.199
     -2641.713
  21857928.098    21857923.969   -17524821.85008 -13638568.83803      1139.176
       887.670
  22097221.124    22097218.265   -16542166.67708 -12868159.18502      1612.936
      1256.833
  25321101.634                     1790263.16102         0.00010     -3426.649
         0.000
  23359232.174    23359230.994    -9156923.93406  -7127355.45301     -3660.218
     -2852.118
  23957584.162    23957581.478    -6130201.90606  -4769432.84901      1447.009
      1127.539
  20148200.338    20148195.821   -27388930.71709 -21322145.66005      -305.570
      -238.106
  20856447.287    20856444.141   -22522101.48309 -17542613.33104      2205.392
      1718.487
 05  4 14 21 11 50.0000000  0 10G18G14G06G22G09G29G26G03G21G15
  21053458.702    21053455.027   -23300873.68909 -18148014.05004        73.092
        56.955
  22834243.220    22834240.403   -11634524.13006  -9052804.01201      3007.740
      2343.694
  23871588.127    23871591.509    -6863736.01304  -5335253.45901     -3390.043
     -2641.592
  21856844.841    21856839.992   -17530515.95908 -13643005.81003      1138.341
       887.019
  22095687.338    22095685.189   -16550224.69108 -12874438.15902      1610.123
      1254.642
  25324360.687                     1807396.00001         0.00010     -3426.698
         0.000
  23362715.685    23362714.093    -9138620.98606  -7113093.42601     -3661.103
     -2852.807
  23956208.261    23956206.204    -6137430.39306  -4775065.42101      1444.313
      1125.438
  20148492.010    20148487.675   -27387396.55809 -21320950.21705      -308.241
      -240.188
  20854349.450    20854346.360   -22533124.97209 -17551203.05404      2203.824
      1717.266
 05  4 14 21 11 55.0000000  0 10G18G14G06G22G09G29G26G03G21G15
  21053389.771    21053385.855   -23301237.91109 -18148297.86304        72.515
        56.506
  22831382.389    22831380.159   -11649559.22007  -9064519.64901      3006.172
      2342.472
  23874813.168    23874817.044    -6846785.95004  -5322045.66801     -3389.906
     -2641.486
  21855761.743    21855757.296   -17536206.54507 -13647440.02203      1137.867
       886.650
  22094156.705    22094154.702   -16558269.07508 -12880706.50302      1607.457
      1252.564
  25327620.375                     1824528.08601         0.00010     -3426.498
         0.000
  23366199.322    23366197.850    -9120314.31106  -7098828.50301     -3661.703
     -2853.275
  23954835.142    23954832.647    -6144645.74705  -4780687.77701      1441.822
      1123.498
  20148786.564    20148782.293   -27385849.38309 -21319744.62105      -310.800
      -242.182
  20852253.373    20852250.603   -22544140.61608 -17559786.67804      2202.330
      1716.101
 05  4 14 21 12  0.0000000  0 10G18G14G06G22G09G29G26G03G21G15
  21053321.269    21053317.180   -23301598.33008 -18148578.70504        71.775
        55.929
  22828522.858    22828521.207   -11664586.17507  -9076228.94501      3004.608
      2341.253
  23878038.751    23878042.176    -6829836.21305  -5308838.10701     -3389.909
     -2641.488
  21854679.654    21854675.220   -17541893.53807 -13651871.42803      1137.112
       886.062
  22092628.619    22092626.260   -16566299.68408 -12886964.10302      1604.759
      1250.462
  25330882.622                     1841659.47201         0.00010     -3426.145
         0.000
  23369683.634    23369681.999    -9102003.81306  -7084560.56701     -3662.521
     -2853.913
  23953465.182    23953463.268    -6151847.88405  -4786299.84701      1439.275
      1121.513
  20149083.462    20149079.248   -27384289.07609 -21318528.79705      -313.327
      -244.151
  20850158.851    20850155.661   -22555148.31609 -17568364.09704      2200.809
      1714.916
 05  4 14 21 12  5.0000000  0 10G18G14G06G22G09G29G26G03G21G15
  21053253.107    21053249.044   -23301955.21609 -18148856.79704        70.990
        55.317
  22825664.930    22825663.431   -11679605.15607  -9087932.01601      3003.011
      2340.009
  23881264.574    23881267.605    -6812886.97405  -5295630.96901     -3389.972
     -2641.537
  21853598.130    21853593.517   -17547577.22507 -13656300.26703      1136.307
       885.434
  22091103.114    22091100.564   -16574316.78708 -12893211.18302      1602.025
      1248.331
  25334142.742                     1858789.98802         0.00010     -3425.992
         0.000
  23373168.730    23373166.652    -9083689.76606  -7070289.90301     -3663.254
     -2854.483
  23952097.367    23952094.749    -6159037.04605  -4791901.79001      1436.581
      1119.413
  20149383.152    20149378.301   -27382715.88509 -21317302.93605      -315.968
      -246.209
  20848065.254    20848062.441   -22566148.33109 -17576935.53404      2199.217
      1713.676
 05  4 14 21 12 10.0000000  0 10G18G14G06G22G09G29G26G03G21G15
  21053186.031    21053181.694   -23302308.34709 -18149131.97004        70.310
        54.787
  22822809.082    22822806.679   -11694615.97707  -9099628.74001      3001.516
      2338.844
  23884489.880    23884492.452    -6795938.12905  -5282424.12001     -3389.588
     -2641.237
  21852517.429    21852512.069   -17553257.44208 -13660726.40903      1135.735
       884.988
  22089580.039    22089576.939   -16582320.19008 -12899447.60502      1599.387
      1246.276
  25337402.412                     1875919.67602         0.00010     -3425.838
         0.000
  23376654.636    23376652.742    -9065371.88706  -7056016.23901     -3663.860
     -2854.956
  23950731.593    23950729.574    -6166213.00806  -4797493.45501      1434.016
      1117.415
  20149684.717    20149680.235   -27381129.66309 -21316066.92705      -318.538
      -248.211
  20845973.468    20845970.229   -22577140.45909 -17585500.81804      2197.712
      1712.503
 05  4 14 21 12 15.0000000  0 10G18G14G06G22G09G29G26G03G21G15
  21053119.595    21053115.383   -23302657.63809 -18149404.14004        69.450
        54.117
  22819953.936    22819951.793   -11709618.53107  -9111319.04301      2999.616
      2337.364
  23887714.981    23887717.807    -6778989.52205  -5269217.43701     -3389.837
     -2641.431
  21851437.042    21851432.039   -17558934.03008 -13665149.71403      1134.831
       884.284
  22088059.512    22088057.184   -16590309.72608 -12905673.20501      1596.418
      1243.962
  25340663.475                     1893048.75903         0.00010     -3425.955
         0.000
  23380140.737    23380139.355    -9047050.13706  -7041739.56801     -3664.842
     -2855.721
  23949368.399    23949366.427    -6173375.69706  -4803074.77101      1431.179
      1115.204
  20149989.347    20149984.770   -27379530.22909 -21314820.62205      -321.219
      -250.300
  20843883.354    20843880.077   -22588124.55109 -17594059.85004      2195.925
      1711.110
 05  4 14 21 12 20.0000000  0 10G18G14G06G22G09G29G26G03G21G15
  21053053.622    21053049.470   -23303003.69408 -18149673.79304        68.852
        53.651
  22817100.738    22817098.698   -11724613.39307  -9123003.32401      2998.237
      2336.289
  23890940.384    23890942.930    -6762041.77405  -5256011.42701     -3389.571
     -2641.224
  21850357.364    21850351.937   -17564607.60207 -13669570.67603      1134.346
       883.906
  22086541.719    22086538.867   -16598286.03108 -12911888.50201      1593.886
      1241.990
  25343921.686                     1910176.52303         0.00010     -3425.611
         0.000
  23383627.522    23383626.580    -9028725.21006  -7027460.40201     -3665.230
     -2856.023
  23948007.812    23948005.781    -6180525.71706  -4808646.21201      1428.716
      1113.285
  20150295.850    20150291.303   -27377918.15309 -21313564.45905      -323.750
      -252.273
  20841794.334    20841791.390   -22599101.21309 -17602613.09004      2194.526
      1710.020
 05  4 14 21 12 25.0000000  0 10G18G14G06G22G09G29G26G03G21G15
  21052988.533    21052984.748   -23303345.51908 -18149940.15504        67.895
        52.906
  22814248.742    22814246.822   -11739599.55507  -9134680.83901      2996.357
      2334.824
  23894165.255    23894167.685    -6745093.89205  -5242805.32601     -3389.737
     -2641.353
  21849278.384    21849273.742   -17570277.17307 -13673988.51203      1133.511
       883.255
  22085026.663    22085024.300   -16606248.05707 -12918092.67701      1590.884
      1239.650
  25347180.549                     1927304.04202         0.00010     -3425.576
         0.000
  23387116.158    23387114.815    -9010395.98906  -7013177.91601     -3666.377
     -2856.917
  23946649.943    23946647.764    -6187662.01706  -4814206.96201      1425.796
      1111.010
  20150604.871    20150600.559   -27376292.47909 -21312297.69405      -326.499
      -254.415
  20839707.284    20839704.152   -22610069.42108 -17611159.73604      2192.798
      1708.673
 05  4 14 21 12 30.0000000  0 10G18G14G06G22G09G29G26G03G21G15
  21052924.291    21052919.725   -23303683.84309 -18150203.77804        67.247
        52.400
  22811397.966    22811396.552   -11754577.76407  -9146352.14101      2994.811
      2333.619
  23897390.929    23897392.781    -6728146.63005  -5229599.70801     -3389.393
     -2641.086
  21848200.334    21848195.183   -17575943.43108 -13678403.78403      1132.882
       882.765
  22083514.333    22083512.111   -16614196.52007 -12924286.28002      1588.214
      1237.569
  25350440.010                     1944430.54203         0.00010     -3425.209
         0.000
  23390604.781    23390603.042    -8992063.30706  -6998892.71301     -3666.938
     -2857.354
  23945294.948    23945292.748    -6194785.33706  -4819757.58901      1423.234
      1109.013
  20150916.961    20150912.777   -27374653.91009 -21311020.89205      -329.042
      -256.396
  20837621.975    20837619.032   -22621029.89409 -17619700.35704      2191.281
      1707.491
 05  4 14 21 12 35.0000000  0 10G18G14G06G22G09G29G26G03G21G15
  21052860.806    21052856.360   -23304018.37409 -18150464.45704        66.317
        51.675
  22808549.687    22808547.369   -11769547.69106  -9158017.01601      2992.938
      2332.159
  23900615.823    23900617.037    -6711199.69305  -5216394.32301     -3389.523
     -2641.187
  21847122.605    21847118.026   -17581606.11908 -13682816.25403      1131.942
       882.032
  22082004.040    22082001.970   -16622131.21007 -12930469.13502      1585.276
      1235.280
  25353698.062                     1961556.36503         0.00010     -3425.490
         0.000
  23394094.011    23394092.736    -8973726.83906  -6984604.58201     -3667.775
     -2858.007
  23943941.608    23943940.162    -6201895.35206  -4825297.86601      1420.423
      1106.823
  20151231.295    20151227.101   -27373002.16909 -21309733.82205      -331.867
      -258.598
  20835537.175    20835534.185   -22631982.32409 -17628234.71804      2189.368
      1706.001
 05  4 14 21 12 40.0000000  0 10G18G14G06G22G09G29G26G03G21G15
  21052797.664    21052793.681   -23304349.21909 -18150722.25704        65.884
        51.338
  22805702.102    22805700.532   -11784509.51407  -9169675.53801      2991.548
      2331.077
  23903840.144    23903841.807    -6694253.30405  -5203189.38601     -3389.189
     -2640.927
  21846045.880    21846040.763   -17587265.40908 -13687226.08603      1131.680
       881.829
  22080496.477    22080494.121   -16630052.19807 -12936641.32502      1582.906
      1233.433
  25356957.606                     1978681.25803         0.00010     -3424.755
         0.000
  23397584.158    23397582.205    -8955386.77906  -6970313.62201     -3668.247
     -2858.374
  23942590.881    23942589.105    -6208992.30106  -4830827.96201      1418.252
      1105.132
  20151547.878    20151543.322   -27371337.43409 -21308436.62705      -334.194
      -260.411
  20833454.713    20833451.830   -22642926.90009 -17636762.95704      2188.169
      1705.067
 05  4 14 21 12 45.0000000  0 10G18G14G06G22G09G29G26G03G21G15
  21052735.560    21052731.606   -23304676.19809 -18150977.03305        64.997
        50.647
  22802857.199    22802854.750   -11799463.01806  -9181327.60701      2989.812
      2329.723
  23907065.226    23907066.583    -6677307.19405  -5189984.65601     -3389.276
     -2640.994
  21844969.710    21844964.698   -17592921.03308 -13691633.05803      1130.759
       881.111
  22078992.463    22078989.668   -16637959.21107 -12942802.62002      1579.958
      1231.136
  25360215.431                     1995805.44303         0.00010     -3424.647
         0.000
  23401074.550    23401072.885    -8937042.93506  -6956019.73701     -3669.129
     -2859.062
  23941242.273    23941241.172    -6216075.87706  -4836347.62201      1415.461
      1102.956
  20151867.041    20151862.684   -27369659.41809 -21307129.08405      -336.942
      -262.552
  20831373.659    20831370.791   -22653863.37109 -17645284.88004      2186.481
      1703.752
 05  4 14 21 12 50.0000000  0 10G18G14G06G22G09G29G26G03G21G15
  21052673.683    21052669.755   -23304999.20408 -18151228.73205        64.254
        50.068
  22800013.004    22800010.541   -11814408.05206  -9192973.06301      2988.184
      2328.455
  23910290.036    23910291.530    -6660361.32905  -5176780.10301     -3389.042
     -2640.812
  21843894.401    21843889.129   -17598572.97608 -13696037.16403      1130.074
       880.577
  22077489.866    22077488.059   -16645852.18807 -12948952.99502      1577.228
      1229.008
  25363473.412                     2012928.96402         0.00010     -3424.697
         0.000
  23404565.986    23404564.524    -8918695.20806  -6941722.79001     -3669.828
     -2859.606
  23939898.361    23939895.601    -6223146.00306  -4841856.81701      1412.730
      1100.829
  20152189.569    20152184.556   -27367968.06209 -21305811.15105      -339.550
      -264.584
  20829294.273    20829291.106   -22664791.60009 -17653800.37804      2184.801
      1702.442
 05  4 14 21 12 55.0000000  0 10G18G14G06G22G09G29G26G03G21G15
  21052613.175    21052609.204   -23305318.75408 -18151477.73804        63.567
        49.533
  22797169.547    22797167.960   -11829345.17906  -9204612.36601      2986.683
      2327.285
  23913514.298    23913515.541    -6643416.23105  -5163576.17701     -3388.938
     -2640.730
  21842819.016    21842813.970   -17604221.73808 -13700438.79203      1129.412
       880.061
  22075990.657    22075988.357   -16653731.62407 -12955092.80502      1574.539
      1226.914
  25366733.099                     2030051.46802         0.00010     -3424.518
         0.000
  23408058.069    23408056.468    -8900344.14306  -6927423.30201     -3670.515
     -2860.141
  23938554.659    23938552.794    -6230203.25606  -4847355.99501      1410.198
      1098.856
  20152513.464    20152508.973   -27366263.86009 -21304483.20905      -342.087
      -266.561
  20827215.812    20827212.828   -22675712.15909 -17662309.90204      2183.455
      1701.394
 05  4 14 21 13  0.0000000  0 10G18G14G06G22G09G29G26G03G21G15
  21052553.069    21052548.819   -23305634.38809 -18151723.68304        62.698
        48.855
  22794328.721    22794327.705   -11844273.81306  -9216245.04101      2984.890
      2325.889
  23916739.090    23916740.838    -6626471.28305  -5150372.34501     -3389.089
     -2640.849
  21841744.796    21841739.881   -17609866.73808 -13704837.48803      1128.591
       879.422
  22074494.148    22074491.496   -16661596.95907 -12961221.62502      1571.658
      1224.668
  25369991.611                     2047173.31003         0.00010     -3424.309
         0.000
  23411550.977    23411549.149    -8881989.18706  -6913120.75301     -3671.375
     -2860.811
  23937214.817    23937212.965    -6237247.04106  -4852844.65101      1407.419
      1096.690
  20152840.290    20152835.691   -27364546.26409 -21303144.81905      -344.915
      -268.765
  20825139.797    20825136.575   -22686624.40209 -17670812.94604      2181.555
      1699.913
 05  4 14 21 13  5.0000000  0 10G18G14G06G22G09G29G26G03G21G15
  21052493.444    21052489.712   -23305946.50909 -18151966.89604        62.175
        48.448
  22791489.405    22791488.470   -11859194.41307  -9227871.46501      2983.493
      2324.800
  23919962.751    23919965.092    -6609527.10805  -5137169.11501     -3388.738
     -2640.575
  21840671.145    21840666.165   -17615508.48107 -13709233.64703      1128.029
       878.984
  22073000.055    22072997.152   -16669448.66108 -12967339.82202      1569.035
      1222.625
  25373248.160                     2064294.10602         0.00010     -3424.060
         0.000
  23415044.655    23415042.550    -8863630.84606  -6898815.55801     -3671.927
     -2861.242
  23935877.228    23935875.085    -6244277.81806  -4858323.16101      1404.851
      1094.689
  20153170.033    20153164.954   -27362815.74709 -21301796.36505      -347.332
      -270.648
  20823064.752    20823061.090   -22697528.88708 -17679309.94604      2180.241
      1698.889
 05  4 14 21 13 10.0000000  0 10G18G14G06G22G09G29G26G03G21G15
  21052435.189    21052430.568   -23306254.76509 -18152207.09204        61.287
        47.756
  22788652.180    22788650.581   -11874106.62707  -9239491.34501      2981.570
      2323.301
  23923188.010    23923189.069    -6592583.29005  -5123966.18001     -3388.674
     -2640.525
  21839598.278    21839593.555   -17621146.66307 -13713627.02503      1127.273
       878.394
  22071508.547    22071505.959   -16677286.40408 -12973447.15502      1566.150
      1220.377
  25376506.247                     2081414.17402         0.00010     -3423.889
         0.000
  23418538.413    23418536.924    -8845268.79806  -6884507.47601     -3672.712
     -2861.854
  23934541.141    23934539.535    -6251295.26006  -4863791.30001      1402.136
      1092.574
  20153501.541    20153497.282   -27361071.99609 -21300437.59405      -350.051
      -272.767
  20820990.924    20820987.633   -22708425.23709 -17687800.61004      2178.493
      1697.527
 05  4 14 21 13 15.0000000  0 10G18G14G06G22G09G29G26G03G21G15
  21052377.262    21052372.940   -23306559.34309 -18152444.43204        60.625
        47.240
  22785815.557    22785814.734   -11889010.67506  -9251104.85701      2980.102
      2322.158
  23926412.327    23926413.733    -6575639.99605  -5110763.65101     -3388.531
     -2640.413
  21838526.036    21838521.016   -17626781.42508 -13718017.74803      1126.723
       877.966
  22070019.464    22070016.876   -16685110.30108 -12979543.69402      1563.540
      1218.343
  25379764.456                     2098533.37302         0.00010     -3423.843
         0.000
  23422033.270    23422031.189    -8826903.25606  -6870196.67401     -3673.399
     -2862.389
  23933208.076    23933206.666    -6258299.49705  -4869249.12801      1399.575
      1090.578
  20153836.071    20153831.320   -27359315.15709 -21299068.63105      -352.627
      -274.775
  20818919.053    20818915.537   -22719313.56109 -17696285.01404      2176.899
      1696.285
 05  4 14 21 13 20.0000000  0 10G18G14G06G22G09G29G26G03G21G15
  21052320.065    21052315.942   -23306860.03209 -18152678.73904        60.011
        46.762
  22782981.534    22782980.184   -11903906.27607  -9262711.80401      2978.498
      2320.907
  23929635.589    23929638.062    -6558697.13905  -5097561.46301     -3388.343
     -2640.268
  21837454.348    21837449.392   -17632412.56707 -13722405.64203      1126.183
       877.545
  22068533.332    22068530.935   -16692920.16007 -12985629.29002      1560.836
      1216.236
  25383021.728                     2115651.75002         0.00010     -3423.426
         0.000
  23425529.133    23425526.927    -8808533.96606  -6855882.94801     -3673.963
     -2862.828
  23931878.245    23931875.928    -6265290.36205  -4874696.55201      1397.106
      1088.654
  20154172.760    20154168.169   -27357545.05109 -21297689.32505      -355.067
      -276.675
  20816848.478    20816845.450   -22730193.68509 -17704763.02604      2175.441
      1695.149
 05  4 14 21 13 25.0000000  0 10G18G14G06G22G09G29G26G03G21G15
  21052263.451    21052258.985   -23307157.19309 -18152910.27804        59.207
        46.136
  22780148.412    22780147.095   -11918793.79007  -9274312.42901      2976.776
      2319.565
  23932860.234    23932862.075    -6541754.95605  -5084359.80401     -3388.127
     -2640.099
  21836383.542    21836378.699   -17638040.36107 -13726790.94003      1125.355
       876.900
  22067049.910    22067047.337   -16700716.29607 -12991704.19602      1557.938
      1213.977
  25386279.488                     2132769.11701         0.00010     -3423.210
         0.000
  23429025.468    23429023.184    -8790161.31506  -6841566.61401     -3674.665
     -2863.375
  23930549.956    23930548.467    -6272268.16605  -4880133.81101      1394.476
      1086.604
  20154511.969    20154507.976   -27355761.93609 -21296299.89305      -357.726
      -278.748
  20814779.655    20814776.400   -22741065.92408 -17713234.89504      2173.773
      1693.849
 05  4 14 21 13 30.0000000  0 10G18G14G06G22G09G29G26G03G21G15
  21052207.717    21052202.853   -23307450.24509 -18153138.64104        58.316
        45.441
  22777317.025    22777315.318   -11933672.66106  -9285906.33801      2975.083
      2318.247
  23936084.233    23936086.185    -6524812.91505  -5071158.26201     -3388.315
     -2640.245
  21835313.499    21835308.603   -17643664.26108 -13731173.19803      1124.541
       876.266
  22065569.184    22065566.259   -16708498.12507 -12997767.95302      1555.054
      1211.730
  25389534.948                     2149885.95801         0.00010     -3422.983
         0.000
  23432522.041    23432520.357    -8771784.69806  -6827247.16201     -3675.581
     -2864.089
  23929224.133    23929223.542    -6279232.28805  -4885560.40001      1391.534
      1084.312
  20154854.300    20154849.506   -27353965.27109 -21294899.89305      -360.600
      -280.987
  20812712.017    20812708.868   -22751929.69609 -17721700.16204      2172.042
      1692.500
 05  4 14 21 13 35.0000000  0 10G18G14G06G22G09G29G26G03G21G15
  21052152.522    21052148.289   -23307739.80209 -18153364.26504        57.628
        44.905
  22774486.986    22774486.051   -11948543.48106  -9297493.96301      2973.433
      2316.961
  23939307.093    23939310.037    -6507871.67605  -5057957.32201     -3387.905
     -2639.926
  21834243.451    21834238.687   -17649284.94308 -13735552.94903      1123.941
       875.799
  22064090.592    22064087.910   -16716266.22808 -13003821.01502      1552.359
      1209.631
  25392793.082                     2167001.74401         0.00010     -3422.821
         0.000
  23436019.173    23436018.123    -8753404.77206  -6812925.16101     -3676.269
     -2864.625
  23927901.847    23927900.490    -6286183.40005  -4890976.83001      1389.112
      1082.425
  20155198.509    20155193.770   -27352155.65009 -21293489.80405      -363.173
      -282.992
  20810646.292    20810643.129   -22762785.58509 -17730159.29704      2170.567
      1691.351
 05  4 14 21 13 40.0000000  0 10G18G14G06G22G09G29G26G03G21G15
  21052098.100    21052093.855   -23308025.49509 -18153586.88304        56.779
        44.244
  22771658.743    22771657.771   -11963405.82307  -9309074.99101      2971.765
      2315.661
  23942531.216    23942533.929    -6490930.82205  -5044756.71901     -3388.104
     -2640.081
  21833174.608    21833170.155   -17654901.96407 -13739929.84103      1123.068
       875.118
  22062615.047    22062612.234   -16724020.20408 -13009863.05502      1549.348
      1207.284
  25396048.442                     2184116.74301         0.00010     -3423.147
         0.000
  23439517.600    23439516.861    -8735021.13706  -6798600.24601     -3676.907
     -2865.122
  23926581.888    23926579.887    -6293121.08306  -4896382.83101      1386.330
      1080.257
  20155545.195    20155540.862   -27350332.69209 -21292069.31805      -365.882
      -285.103
  20808582.231    20808578.858   -22773633.21209 -17738611.98704      2168.718
      1689.910
 05  4 14 21 13 45.0000000  0 10G18G14G06G22G09G29G26G03G21G15
  21052044.417    21052040.022   -23308307.45909 -18153806.58404        55.754
        43.445
  22768832.434    22768830.917   -11978259.83307  -9320649.52401      2969.768
      2314.105
  23945754.247    23945757.451    -6473990.58805  -5031556.58201     -3388.240
     -2640.187
  21832106.729    21832102.219   -17660515.54607 -13744304.05503      1122.019
       874.300
  22061142.218    22061139.423   -16731760.22208 -13015894.23202      1546.355
      1204.952
  25399306.234                     2201230.78601         0.00010     -3423.279
         0.000
  23443016.462    23443015.452    -8716633.99006  -6784272.62901     -3677.976
     -2865.956
  23925264.000    23925262.592    -6300045.47306  -4901778.45801      1383.259
      1077.864
  20155894.859    20155890.492   -27348496.56409 -21290638.57105      -368.748
      -287.336
  20806519.308    20806516.476   -22784472.74708 -17747058.37804      2166.863
      1688.464
 05  4 14 21 13 50.0000000  0 10G18G14G06G22G09G29G26G03G21G15
  21051991.481    21051986.695   -23308586.25609 -18154023.83504        55.505
        43.251
  22766007.420    22766006.092   -11993106.00607  -9332217.94601      2968.454
      2313.081
  23948978.185    23948980.655    -6457051.43504  -5018357.28201     -3387.483
     -2639.597
  21831038.882    21831034.029   -17666126.17107 -13748675.95803      1122.014
       874.297
  22059671.928    22059669.150   -16739486.75608 -13021914.90402      1544.031
      1203.141
  25402562.635                     2218343.40601         0.00010     -3422.332
         0.000
  23446516.441    23446515.023    -8698243.84306  -6769942.65901     -3678.177
     -2866.112
  23923949.566    23923947.644    -6306957.12506  -4907164.15401      1381.164
      1076.232
  20156246.809    20156242.024   -27346647.73809 -21289197.92805      -370.955
      -289.056
  20804458.261    20804455.169   -22795304.61908 -17755498.79404      2165.696
      1687.555
 05  4 14 21 13 55.0000000  0 10G18G14G06G22G09G29G26G03G21G15
  21051938.927    21051934.730   -23308860.68408 -18154237.67804        54.365
        42.362
  22763183.937    22763182.480   -12007943.28707  -9343779.44501      2966.499
      2311.558
  23952202.086    23952204.999    -6440112.27705  -5005157.97501     -3387.774
     -2639.824
  21829971.886    21829967.122   -17671732.68107 -13753044.66603      1120.840
       873.382
  22058204.189    22058202.168   -16747198.71008 -13027924.21202      1540.889
      1200.692
  25405819.872                     2235455.77501         0.00010     -3422.403
         0.000
  23450017.001    23450015.675    -8679849.62306  -6755609.50401     -3679.302
     -2866.988
  23922635.774    23922635.341    -6313854.87605  -4912539.03201      1378.213
      1073.932
  20156601.063    20156596.865   -27344785.15109 -21287746.56105      -373.965
      -291.401
  20802398.767    20802395.498   -22806127.76608 -17763932.41304      2163.657
      1685.966
 05  4 14 21 14  0.0000000  0 10G18G14G06G22G09G29G26G03G21G15
  21051887.799    21051883.192   -23309131.67908 -18154448.83704        53.796
        41.919
  22760362.310    22760360.869   -12022772.51107  -9355334.64701      2964.929
      2310.334
  23955424.857    23955428.060    -6423173.97305  -4991959.34201     -3387.669
     -2639.742
  21828905.880    21828900.894   -17677336.03207 -13757410.90003      1120.300
       872.961
  22056739.541    22056737.472   -16754896.95108 -13033922.84002      1538.230
      1198.621
  25409074.105                     2252566.84601         0.00010     -3421.980
         0.000
  23453518.089    23453516.509    -8661452.17906  -6741273.85701     -3679.778
     -2867.360
  23921326.158    23921325.159    -6320739.66005  -4917903.78901      1375.691
      1071.967
  20156957.861    20156953.792   -27342909.66409 -21286285.14705      -376.458
      -293.344
  20800340.353    20800337.030   -22816943.04708 -17772359.89404      2162.273
      1684.888
 05  4 14 21 14  5.0000000  0 10G18G14G06G22G09G29G26G03G21G15
  21051836.610    21051832.180   -23309399.01209 -18154657.15004        53.261
        41.502
  22757542.215    22757540.338   -12037593.41507  -9366883.38901      2963.412
      2309.153
  23958648.292    23958651.472    -6406236.37105  -4978761.27001     -3387.403
     -2639.535
  21827839.822    21827835.342   -17682935.92308 -13761774.44803      1119.726
       872.514
  22055277.401    22055275.212   -16762581.20708 -13039910.56302      1535.615
      1196.583
  25412330.220                     2269676.99001         0.00010     -3421.715
         0.000
  23457019.279    23457018.526    -8643051.30506  -6726935.51201     -3680.411
     -2867.853
  23920018.229    23920017.103    -6327611.12905  -4923258.20401      1373.149
      1069.986
  20157317.261    20157312.314   -27341021.00609 -21284813.47005      -378.946
      -295.283
  20798284.133    20798280.840   -22827750.17308 -17780781.03404      2160.703
      1683.664
 05  4 14 21 14 10.0000000  0 10G18G14G06G22G09G29G26G03G21G15
  21051786.731    21051782.025   -23309662.45208 -18154862.43104        52.266
        40.727
  22754724.047    22754721.979   -12052405.78307  -9378425.47501      2961.592
      2307.734
  23961871.579    23961874.756    -6389299.16405  -4965563.48601     -3387.431
     -2639.557
  21826775.118    21826770.476   -17688532.15308 -13766135.13703      1118.848
       871.830
  22053817.520    22053815.346   -16770251.24508 -13045887.20702      1532.515
      1194.167
  25415584.146                     2286786.34101         0.00010     -3422.094
         0.000
  23460521.590    23460520.407    -8624646.78306  -6712594.33501     -3681.264
     -2868.518
  23918713.506    23918711.982    -6334469.12706  -4928602.06801      1370.244
      1067.723
  20157678.875    20157674.592   -27339118.95209 -21283331.34505      -381.738
      -297.458
  20796228.945    20796226.099   -22838548.94208 -17789195.66004      2158.887
      1682.250
 05  4 14 21 14 15.0000000  0 10G18G14G06G22G09G29G26G03G21G15
  21051737.134    21051732.561   -23309922.61709 -18155065.15104        51.787
        40.354
  22751906.078    22751904.241   -12067210.23807  -9389961.39801      2960.117
      2306.585
  23965095.043    23965097.723    -6372363.10205  -4952366.61801     -3387.036
     -2639.249
  21825710.692    21825706.456   -17694125.34107 -13770493.46703      1118.394
       871.476
  22052360.860    22052357.962   -16777907.68508 -13051853.26002      1529.932
      1192.155
  25418840.860                     2303894.32101         0.00010     -3421.450
         0.000
  23464024.460    23464023.251    -8606239.27706  -6698250.85401     -3681.748
     -2868.895
  23917410.229    23917409.710    -6341314.29105  -4933935.96401      1367.852
      1065.858
  20158043.242    20158039.144   -27337204.16909 -21281839.30905      -384.184
      -299.364
  20794175.648    20794172.524   -22849339.96209 -17797604.24604      2157.500
      1681.169
 05  4 14 21 14 20.0000000  0 10G18G14G06G22G09G29G26G03G21G15
  21051688.327    21051684.080   -23310178.53509 -18155264.57004        50.893
        39.657
  22749090.215    22749089.143   -12082005.86107  -9401490.43501      2958.447
      2305.283
  23968317.432    23968320.725    -6355427.14205  -4939169.81701     -3387.124
     -2639.318
  21824647.125    21824642.861   -17699714.54907 -13774848.68503      1117.588
       870.847
  22050906.871    22050903.795   -16785549.56808 -13057807.96802      1527.036
      1189.898
  25422096.244                     2321001.81201         0.00010     -3421.392
         0.000
  23467527.953    23467526.974    -8587827.79006  -6683904.23701     -3682.569
     -2869.534
  23916110.717    23916109.534    -6348145.60405  -4939259.04501      1365.004
      1063.640
  20158410.771    20158405.918   -27335275.66409 -21280336.58205      -387.002
      -301.560
  20792123.687    20792120.728   -22860122.27208 -17806006.03504      2155.708
      1679.772
 05  4 14 21 14 25.0000000  0 10G18G14G06G22G09G29G26G03G21G15
  21051640.231    21051636.007   -23310430.85409 -18155461.17304        50.066
        39.013
  22746275.611    22746274.625   -12096793.17807  -9413012.99501      2956.585
      2303.832
  23971540.265    23971543.058    -6338491.94905  -4925973.60401     -3386.985
     -2639.209
  21823584.138    21823579.271   -17705300.42307 -13779201.30403      1116.785
       870.222
  22049454.911    22049452.642   -16793177.49508 -13063751.79702      1524.046
      1187.568
  25425352.282                     2338108.16501         0.00010     -3421.086
         0.000
  23471032.259    23471031.128    -8569413.07506  -6669555.12301     -3683.274
     -2870.083
  23914813.315    23914811.867    -6354963.76205  -4944571.89401      1362.317
      1061.546
  20158780.110    20158775.423   -27333334.10109 -21278823.67805      -389.670
      -303.639
  20790073.373    20790070.589   -22870896.50908 -17814401.54604      2154.011
      1678.450
 05  4 14 21 14 30.0000000  0 10G18G14G06G22G09G29G26G03G21G15
  21051593.577    21051589.559   -23310677.51109 -18155653.38004        49.477
        38.553
  22743463.697    22743462.624   -12111570.16507  -9424527.50701      2955.023
      2302.616
  23974763.599    23974766.366    -6321555.49305  -4912776.41801     -3386.685
     -2638.976
  21822522.391    21822517.272   -17710880.86908 -13783549.70803      1116.332
       869.869
  22048006.621    22048004.546   -16800789.37707 -13069683.12202      1521.547
      1185.621
  25428608.923           0.00011         0.00010                     -3420.518
         0.000
  23474537.553    23474536.010    -8550992.92106  -6655201.75501     -3683.829
     -2870.516
  23913518.904    23913517.040    -6361766.59005  -4949872.79701      1359.726
      1059.527
  20159152.226    20159148.112   -27331377.31909 -21277298.91005      -392.164
      -305.582
  20788024.997    20788022.276   -22881660.49909 -17822789.06004      2152.490
      1677.265
 05  4 14 21 14 35.0000000  0 10G18G14G06G22G09G29G26G03G21G15
  21051546.413    21051542.400   -23310924.94509 -18155846.17704        48.781
        38.011
  22740652.446    22740651.095   -12126343.27906  -9436038.99001      2953.576
      2301.488
  23977985.616    23977987.801    -6304624.23605  -4899583.26701     -3386.585
     -2638.897
  21821460.318    21821455.217   -17716462.33807 -13787898.89903      1115.676
       869.358
  22046560.086    22046557.354   -16808391.67708 -13075606.97702      1518.815
      1183.492
  25431864.666                   -18108142.56702         0.00010     -3420.486
         0.000
  23478042.385    23478041.305    -8532573.89906  -6640849.28401     -3684.530
     -2871.062
  23912226.483    23912224.645    -6368560.58205  -4955166.81601      1357.184
      1057.546
  20159526.248    20159521.826   -27329411.80109 -21275767.33605      -394.676
      -307.540
  20785977.675    20785974.164   -22892420.77708 -17831173.69904      2150.900
      1676.026
 05  4 14 21 14 40.0000000  0 10G18G14G06G22G09G29G26G03G21G15
  21051500.147    21051496.304   -23311166.53508 -18156034.43504        48.049
        37.441
  22737843.678    22737842.126   -12141105.81307  -9447542.23601      2951.794
      2300.100
  23981207.467    23981210.292    -6287691.54906  -4886389.02601     -3386.399
     -2638.752
  21820399.370    21820394.519   -17722038.24107 -13792243.75203      1114.963
       868.803
  22045116.016    22045114.106   -16815977.71108 -13081518.16402      1515.925
      1181.241
  25435119.189                   -18091039.59102         0.00010     -3420.276
         0.000
  23481548.485    23481546.959    -8514149.37306  -6626492.53601     -3685.149
     -2871.544
  23910936.711    23910934.518    -6375339.14005  -4960448.82801      1354.602
      1055.534
  20159903.374    20159899.081   -27327430.92409 -21274223.80705      -397.327
      -309.605
  20783931.971    20783928.893   -22903170.67208 -17839550.24404      2149.319
      1674.794
 05  4 14 21 14 45.0000000  0 10G18G14G06G22G09G29G26G03G21G15
  21051455.342    21051450.754   -23311404.34308 -18156219.73404        47.229
        36.802
  22735035.199    22735034.280   -12155859.85307  -9459038.87901      2949.983
      2298.688
  23984429.454    23984432.760    -6270759.51006  -4873195.26501     -3386.336
     -2638.703
  21819338.937    21819334.367   -17727610.55707 -13796585.81403      1114.123
       868.148
  22043675.689    22043673.032   -16823549.55408 -13087418.30002      1512.961
      1178.931
  25438373.743                   -18073937.47801         0.00010     -3420.476
         0.000
  23485055.916    23485053.673    -8495721.32006  -6612133.00601     -3685.955
     -2872.173
  23909648.460    23909646.922    -6382104.23705  -4965720.33101      1351.745
      1053.308
  20160282.937    20160277.866   -27325436.69909 -21272669.86905      -400.115
      -311.778
  20781887.523    20781885.097   -22913912.20408 -17847920.26004      2147.478
      1673.359
 05  4 14 21 14 50.0000000  0 10G18G14G06G22G09G29G26G03G21G15
  21051410.713    21051406.575   -23311638.42509 -18156402.13304        46.502
        36.235
  22732230.293    22732228.742   -12170605.50207  -9470528.97001      2948.397
      2297.452
  23987651.739    23987654.873    -6253828.17306  -4860002.06801     -3386.012
     -2638.451
  21818279.320    21818274.139   -17733179.43908 -13800925.19503      1113.494
       867.658
  22042237.183    22042234.808   -16831107.25508 -13093307.40202      1510.125
      1176.721
  25441625.140                   -18056836.43401         0.00010     -3419.850
         0.000
  23488563.102    23488561.415    -8477289.95706  -6597770.91901     -3686.496
     -2872.594
  23908363.636    23908361.975    -6388855.98605  -4970981.43101      1349.046
      1051.205
  20160664.827    20160660.280   -27323429.24709 -21271105.61705      -402.756
      -313.835
  20779845.215    20779842.265   -22924645.44608 -17856283.81404      2145.877
      1672.112
 05  4 14 21 14 55.0000000  0 10G18G14G06G22G09G29G26G03G21G15
  21051366.618    21051362.816   -23311868.81708 -18156581.66104        45.822
        35.706
  22729425.459    22729424.503   -12185342.74807  -9482012.49801      2946.677
      2296.112
  23990873.620    23990876.354    -6236897.58106  -4846809.41801     -3385.926
     -2638.384
  21817220.289    21817215.551   -17738744.92207 -13805261.93503      1112.839
       867.147
  22040801.737    22040799.054   -16838650.90108 -13099185.56302      1507.409
      1174.605
  25444879.137                   -18039736.42501         0.00010     -3419.514
         0.000
  23492070.798    23492069.199    -8458855.30006  -6583406.25901     -3687.244
     -2873.177
  23907081.378    23907079.710    -6395594.47605  -4976232.19401      1346.433
      1049.168
  20161049.204    20161044.993   -27321408.54709 -21269531.04105      -405.418
      -315.910
  20777804.343    20777801.433   -22935370.45209 -17864640.96104      2144.182
      1670.791
 05  4 14 21 15  0.0000000  0 10G18G14G06G22G09G29G26G03G21G15
  21051323.616    21051319.342   -23312095.32608 -18156758.15704        44.797
        34.907
  22726622.848    22726621.414   -12200071.41907  -9493489.38501      2944.631
      2294.518
  23994094.802    23994097.845    -6219967.58605  -4833617.25501     -3386.169
     -2638.573
  21816161.472    21816157.384   -17744306.80608 -13809595.86103      1111.921
       866.432
  22039369.079    22039365.944   -16846180.19708 -13105052.54402      1504.319
      1172.197
  25448132.276                   -18022637.12901         0.00010     -3419.792
         0.000
  23495579.184    23495578.174    -8440417.15806  -6569038.88901     -3688.142
     -2873.877
  23905802.245    23905799.725    -6402319.46805  -4981472.45101      1343.455
      1046.848
  20161436.276    20161431.577   -27319374.43309 -21267946.03105      -408.288
      -318.147
  20775765.436    20775762.343   -22946086.98908 -17872991.50604      2142.385
      1669.391
 05  4 14 21 15  5.0000000  0 10G18G14G06G22G09G29G26G03G21G15
  21051281.205    21051277.188   -23312318.33109 -18156931.93504        44.203
        34.444
  22723821.604    22723819.609   -12214791.87507  -9504959.85001      2943.255
      2293.446
  23997315.569    23997319.464    -6203038.54105  -4820425.83901     -3385.856
     -2638.329
  21815103.648    21815099.259   -17749865.42808 -13813927.24603      1111.297
       865.946
  22037938.953    22037936.676   -16853695.51808 -13110908.63002      1501.566
      1170.051
  25451386.078                   -18005539.17801         0.00010     -3419.459
         0.000
  23499089.113    23499087.477    -8421975.87206  -6554669.07201     -3688.732
     -2874.336
  23904524.109    23904523.038    -6409031.31306  -4986702.45301      1341.024
      1044.954
  20161826.145    20161821.588   -27317327.28009 -21266350.84505      -410.822
      -320.121
  20773727.116    20773724.356   -22956795.39708 -17881335.71604      2140.799
      1668.155
 05  4 14 21 15 10.0000000  0 10G18G14G06G22G09G29G26G03G21G15
  21051239.354    21051235.018   -23312537.71909 -18157102.87704        43.569
        33.950
  22721021.975    22721020.698   -12229503.90907  -9516423.74901      2941.640
      2292.187
  24000537.849    24000541.006    -6186110.37805  -4807235.11101     -3385.522
     -2638.069
  21814046.553    21814041.709   -17755420.66007 -13818255.99303      1110.728
       865.502
  22036511.317    22036508.629   -16861196.75208 -13116753.74402      1498.887
      1167.964
  25454640.847                   -17988442.24901         0.00010     -3419.526
         0.000
  23502598.842    23502596.810    -8403531.37006  -6540296.74701     -3689.140
     -2874.655
  23903250.152    23903248.283    -6415729.84906  -4991922.09801      1338.330
      1042.855
  20162217.858    20162213.290   -27315266.94609 -21264745.39005      -413.311
      -322.060
  20771691.124    20771688.515   -22967495.55108 -17889673.49204      2139.263
      1666.958
 05  4 14 21 15 15.0000000  0 10G18G14G06G22G09G29G26G03G21G15
  21051198.478    21051194.256   -23312753.22809 -18157270.81004        42.693
        33.268
  22718223.852    22718222.616   -12244207.34207  -9527880.94801      2939.778
      2290.736
  24003759.061    24003762.110    -6169182.80205  -4794044.83001     -3385.549
     -2638.090
  21812990.270    21812985.414   -17760972.27108 -13822581.92003      1109.920
       864.873
  22035086.782    22035084.587   -16868683.62408 -13122587.66202      1495.892
      1165.630
  25457895.063                   -17971346.32602         0.00010     -3419.020
         0.000
  23506108.981    23506107.312    -8385083.42006  -6525921.72501     -3690.080
     -2875.387
  23901978.209    23901975.921    -6422414.86206  -4997131.20401      1335.579
      1040.711
  20162612.215    20162607.865   -27313193.18109 -21263129.47705      -416.213
      -324.322
  20769656.902    20769653.788   -22978187.16609 -17898004.61904      2137.425
      1665.526
 05  4 14 21 15 20.0000000  0 10G18G14G06G22G09G29G26G03G21G15
  21051158.876    21051154.539   -23312962.58508 -18157433.94104        41.856
        32.615
  22715428.164    22715426.671   -12258899.86007  -9539329.64901      2938.081
      2289.414
  24006980.644    24006983.923    -6152253.55805  -4780853.21601     -3385.483
     -2638.039
  21811934.945    21811929.958   -17766517.97607 -13826903.25103      1109.121
       864.250
  22033665.364    22033663.325   -16876153.80807 -13128408.57802      1492.881
      1163.284
  25461149.297                   -17954248.96002         0.00010     -3419.043
         0.000
  23509620.251    23509618.845    -8366629.74306  -6511542.23701     -3690.737
     -2875.899
  23900709.249    23900707.291    -6429084.06205  -5002327.97601      1332.857
      1038.590
  20163010.292    20163005.675   -27311103.76209 -21261501.35905      -418.862
      -326.386
  20767623.947    20767621.164   -22988867.98109 -17906327.32204      2135.757
      1664.226
 05  4 14 21 15 25.0000000  0 10G18G14G06G22G09G29G26G03G21G15
  21051118.328    21051113.978   -23313173.71709 -18157598.46204        41.282
        32.168
  22712632.887    22712630.832   -12273589.39207  -9550776.01001      2936.404
      2288.107
  24010200.921    24010204.480    -6135330.61505  -4767666.58301     -3385.227
     -2637.839
  21810879.325    21810874.212   -17772065.75208 -13831226.18303      1108.562
       863.815
  22032245.456    22032243.405   -16883615.31808 -13134222.72802      1490.159
      1161.163
  25464402.695                   -17937158.22802         0.00010     -3418.694
         0.000
  23513131.323    23513130.402    -8348178.29705  -6497164.49501     -3691.335
     -2876.365
  23899441.342    23899439.562    -6435745.38906  -5007518.60701      1330.266
      1036.571
  20163409.549    20163404.912   -27309006.55109 -21259867.17105      -421.438
      -328.393
  20765592.038    20765588.913   -22999545.91809 -17914647.79504      2134.060
      1662.904
 05  4 14 21 15 30.0000000  0 10G18G14G06G22G09G29G26G03G21G15
  21051080.091    21051075.814   -23313375.55109 -18157755.73104        40.607
        31.642
  22709839.858    22709838.308   -12288264.85707  -9562211.43101      2934.777
      2286.839
  24013422.000    24013425.506    -6118402.93804  -4754476.22401     -3384.798
     -2637.505
  21809825.055    21809820.272   -17777604.47708 -13835542.06203      1108.107
       863.460
  22030829.111    22030827.239   -16891056.96408 -13140021.40702      1487.487
      1159.081
  25467655.427           0.00013         0.00010                     -3418.094
         0.000
  23516644.045    23516642.926    -8329717.95006  -6482779.82501     -3691.810
     -2876.735
  23898177.050    23898175.764    -6442387.74206  -5012694.50101      1327.775
      1034.630
  20163811.852    20163807.213   -27306890.47009 -21258218.27005      -423.973
      -330.369
  20763562.898    20763559.768   -23010209.88608 -17922957.37504      2132.550
      1661.727
 05  4 14 21 15 35.0000000  0 10G18G14G06G22G09G29G26G03G21G15
  21051041.135    21051037.025   -23313579.49709 -18157914.64904        39.841
        31.045
  22707047.779    22707046.013   -12302937.66807  -9573644.75501      2933.064
      2285.505
  24016642.247    24016645.072    -6101481.90705  -4741291.06901     -3384.729
     -2637.451
  21808771.039    21808765.772   -17783145.57908 -13839859.79703      1107.244
       862.787
  22029414.686    22029412.973   -16898490.20608 -13145813.53602      1484.568
      1156.806
  25470907.008                   -17902974.60703         0.00010     -3417.961
         0.000
  23520157.366    23520155.484    -8311260.24006  -6468397.20601     -3692.419
     -2877.210
  23896915.044    23896913.329    -6449022.57006  -5017864.48201      1325.081
      1032.530
  20164216.006    20164211.325   -27304766.92909 -21256563.57105      -426.658
      -332.460
  20761534.095    20761531.075   -23020871.30808 -17931264.98604      2130.833
      1660.389
 05  4 14 21 15 40.0000000  0 10G18G14G06G22G09G29G26G03G21G15
  21051003.822    21050999.327   -23313776.78709 -18158068.38104        39.058
        30.435
  22704257.594    22704255.751   -12317599.01407  -9585069.17101      2931.372
      2284.186
  24019862.448    24019865.502    -6084558.71305  -4728104.20501     -3384.683
     -2637.415
  21807717.368    21807712.507   -17788680.28808 -13844172.55003      1106.558
       862.253
  22028003.223    22028001.645   -16905906.24508 -13151592.25702      1481.758
      1154.616
  25474158.983                   -17885884.50603         0.00010     -3417.603
         0.000
  23523670.467    23523668.699    -8292796.32906  -6454009.75301     -3693.198
     -2877.817
  23895655.716    23895653.728    -6455641.05906  -5023021.75001      1322.339
      1030.394
  20164623.191    20164618.869   -27302627.12709 -21254896.19205      -429.292
      -334.513
  20759507.752    20759504.095   -23031521.36909 -17939563.72404      2129.121
      1659.055
 05  4 14 21 15 45.0000000  0 10G18G14G06G22G09G29G26G03G21G15
  21050966.837    21050962.630   -23313970.09508 -18158219.01204        38.228
        29.788
  22701469.583    22701467.160   -12332251.59807  -9596486.75101      2929.571
      2282.783
  24023082.181    24023085.897    -6067636.15004  -4714917.83701     -3384.384
     -2637.183
  21806665.251    21806660.034   -17794211.27908 -13848482.41203      1105.782
       861.648
  22026594.580    22026593.052   -16913307.76708 -13157359.66103      1478.755
      1152.277
  25477410.632                   -17868795.05702         0.00010     -3417.861
         0.000
  23527184.768    23527183.256    -8274328.92706  -6439619.57001     -3693.876
     -2878.345
  23894398.741    23894396.716    -6462245.89806  -5028168.37001      1319.547
      1028.218
  20165033.082    20165028.529   -27300473.78109 -21253218.25005      -432.138
      -336.731
  20757482.603    20757479.338   -23042162.78708 -17947855.73604      2127.349
      1657.675
 05  4 14 21 15 50.0000000  0 10G18G14G06G22G09G29G26G03G21G15
  21050930.667    21050926.347   -23314160.21509 -18158367.14904        37.684
        29.365
  22698682.789    22698681.187   -12346896.21507  -9607898.11501      2928.119
      2281.651
  24026302.546    24026305.650    -6050714.91405  -4701732.49601     -3384.308
     -2637.123
  21805613.195    21805607.632   -17799739.37208 -13852790.00803      1105.224
       861.213
  22025189.538    22025187.253   -16920695.53008 -13163116.35002      1476.102
      1150.210
  25480662.352                   -17851707.29402         0.00010     -3417.555
         0.000
  23530699.611    23530697.750    -8255858.88806  -6425227.34301     -3694.327
     -2878.697
  23893144.038    23893142.792    -6468837.83806  -5033304.94501      1316.967
      1026.208
  20165445.106    20165440.880   -27298307.67209 -21251530.37705      -434.606
      -338.654
  20755459.316    20755456.069   -23052796.29009 -17956141.57104      2125.907
      1656.551
 05  4 14 21 15 55.0000000  0 10G18G14G06G22G09G29G26G03G21G15
  21050895.362    21050891.115   -23314346.30309 -18158512.15904        36.941
        28.785
  22695897.551    22695896.206   -12361531.94207  -9619302.56201      2926.394
      2280.307
  24029521.973    24029525.881    -6033794.26105  -4688547.62001     -3384.036
     -2636.911
  21804561.905    21804556.759   -17805263.68308 -13857094.66703      1104.607
       860.733
  22023786.129    22023784.170   -16928068.63008 -13168861.62102      1473.215
      1147.960
  25483914.619                   -17834620.32802         0.00010     -3417.297
         0.000
  23534215.144    23534213.764    -8237385.27906  -6410832.33501     -3695.076
     -2879.280
  23891892.641    23891890.986    -6475416.03206  -5038430.80301      1314.348
      1024.167
  20165859.836    20165855.315   -27296127.90309 -21249831.86105      -437.219
      -340.690
  20753437.194    20753434.040   -23063420.99609 -17964420.56704      2124.172
      1655.199
 05  4 14 21 16  0.0000000  0 10G18G14G06G22G09G29G26G03G21G15
  21050860.749    21050856.099   -23314528.79009 -18158654.34904        36.079
        28.113
  22693113.899    22693112.493   -12376159.22007  -9630700.40901      2924.702
      2278.989
  24032741.715    24032745.226    -6016874.56505  -4675363.50701     -3383.965
     -2636.856
  21803511.300    21803506.653   -17810784.63208 -13861396.70203      1103.877
       860.164
  22022385.360    22022383.564   -16935427.49508 -13174595.80003      1470.337
      1145.717
  25487162.443                   -17817534.62002         0.00010     -3416.826
         0.000
  23537730.977    23537729.444    -8218908.56406  -6396434.91501     -3695.635
     -2879.715
  23890643.182    23890642.189    -6481980.86605  -5043546.26001      1311.699
      1022.103
  20166276.830    20166272.915   -27293934.89609 -21248123.02205      -439.932
      -342.804
  20751417.025    20751414.360   -23074037.34308 -17972693.04904      2122.461
      1653.866
 05  4 14 21 16  5.0000000  0 10G18G14G06G22G09G29G26G03G21G15
  21050826.718    21050822.201   -23314707.51809 -18158793.62304        35.369
        27.561
  22690332.425    22690330.719   -12390777.89107  -9642091.56501      2922.850
      2277.545
  24035961.492    24035964.957    -5999955.69105  -4662179.96601     -3383.771
     -2636.705
  21802461.048    21802456.293   -17816302.10609 -13865696.02703      1103.045
       859.516
  22020987.848    22020986.156   -16942771.98808 -13180318.77303      1467.479
      1143.490
  25490416.017                   -17800449.89902         0.00010     -3416.891
         0.000
  23541247.918    23541246.016    -8200428.59006  -6382034.94001     -3696.330
     -2880.257
  23889396.837    23889395.474    -6488532.25006  -5048651.24501      1308.900
      1019.922
  20166697.057    20166692.692   -27291728.52909 -21246403.78105      -442.702
      -344.962
  20749398.396    20749395.223   -23084645.13509 -17980958.84804      2120.550
      1652.377
 05  4 14 21 16 10.0000000  0  9G18G14G06G22G09G26G03G21G15
  21050793.884    21050789.490   -23314878.92409 -18158927.18304        34.638
        26.990
  22687552.940    22687551.476   -12405384.42807  -9653473.25101      2921.083
      2276.168
  24039181.541    24039184.902    -5983034.17905  -4648994.43801     -3383.434
     -2636.442
  21801413.055    21801407.884   -17821812.57508 -13869989.89003      1102.465
       859.064
  22019593.867    22019592.404   -16950098.53008 -13186027.75203      1464.613
      1141.257
  23544765.684    23544763.828    -8181941.88005  -6367629.71801     -3697.037
     -2880.808
  23888152.916    23888152.058    -6495066.61306  -5053742.94701      1306.225
      1017.837
  20167120.267    20167115.811   -27289505.25709 -21244671.36305      -445.313
      -346.997
  20747381.864    20747378.971   -23095240.89708 -17989215.28204      2118.998
      1651.167
 05  4 14 21 16 15.0000000  0  9G18G14G06G22G09G26G03G21G15
  21050761.199    21050757.357   -23315050.33609 -18159060.74104        33.881
        26.401
  22684773.973    22684772.757   -12419986.15807  -9664851.20401      2919.472
      2274.914
  24042401.683    24042404.261    -5966117.25905  -4635812.45401     -3383.247
     -2636.297
  21800364.262    21800359.632   -17827323.33008 -13874283.97203      1101.831
       858.569
  22018201.117    22018200.122   -16957414.44108 -13191728.46302      1461.802
      1139.066
  23548283.389    23548281.955    -8163455.74305  -6353224.94201     -3697.579
     -2881.230
  23886911.118    23886910.262    -6501591.27105  -5058827.10301      1303.633
      1015.818
  20167545.161    20167540.489   -27287272.37009 -21242931.45705      -447.910
      -349.021
  20745366.867    20745363.873   -23105831.84009 -17997467.96304      2117.270
      1649.821
 05  4 14 21 16 20.0000000  0  9G18G14G06G22G09G26G03G21G15
  21050729.336    21050725.243   -23315217.98809 -18159191.37604        33.050
        25.753
  22681998.008    22681996.158   -12434579.22907  -9676222.40501      2917.674
      2273.512
  24045620.211    24045622.869    -5949201.22705  -4622631.18001     -3383.063
     -2636.153
  21799316.311    21799311.218   -17832830.55209 -13878575.32303      1100.989
       857.914
  22016812.162    22016810.579   -16964715.90008 -13197417.90602      1458.684
      1136.637
  23551802.214    23551800.888    -8144966.36405  -6338817.66601     -3698.229
     -2881.737
  23885672.429    23885671.284    -6508102.47705  -5063900.76601      1300.750
      1013.571
  20167972.545    20167968.354   -27285026.06309 -21241181.08605      -450.671
      -351.172
  20743352.869    20743349.817   -23116414.22709 -18005713.97904      2115.559
      1648.488
 05  4 14 21 16 25.0000000  0  9G18G14G06G22G09G26G03G21G15
  21050698.030    21050693.835   -23315382.08309 -18159319.24104        32.372
        25.225
  22679221.916    22679220.688   -12449163.92007  -9687587.07901      2916.064
      2272.258
  24048839.598    24048841.730    -5932286.24805  -4609450.71501     -3382.964
     -2636.076
  21798268.673    21798263.388   -17838334.52609 -13882864.12703      1100.419
       857.470
  22015425.476    22015423.895   -16972003.15908 -13203096.28003      1455.912
      1134.477
  23555320.917    23555319.881    -8126474.05805  -6324408.07601     -3698.751
     -2882.143
  23884435.953    23884434.747    -6514600.33306  -5068964.04201      1298.203
      1011.586
  20168402.810    20168398.198   -27282766.58109 -21239420.44905      -453.306
      -353.226
  20741340.854    20741337.618   -23126988.24109 -18013953.46404      2113.857
      1647.161
 05  4 14 21 16 30.0000000  0  9G18G14G06G22G09G26G03G21G15
  21050667.637    21050663.779   -23315542.67909 -18159444.38404        31.783
        24.766
  22676447.743    22676446.807   -12463740.22107  -9698945.22101      2914.415
      2270.973
  24052057.886    24052060.830    -5915372.41505  -4596271.12801     -3382.680
     -2635.854
  21797222.012    21797216.779   -17843835.26708 -13887150.41403      1099.845
       857.022
  22014041.252    22014039.341   -16979276.24608 -13208763.61002      1453.204
      1132.367
  23558840.304    23558839.291    -8107978.77305  -6309996.17801     -3699.286
     -2882.561
  23883201.547    23883200.496    -6521084.98406  -5074017.00201      1295.631
      1009.582
  20168834.923    20168830.840   -27280493.95309 -21237649.56905      -455.824
      -355.188
  20739330.315    20739327.055   -23137553.92409 -18022186.46404      2112.276
      1645.930
 05  4 14 21 16 35.0000000  0  9G18G14G06G22G09G26G03G21G15
  21050637.623    21050633.935   -23315699.51609 -18159566.59204        31.228
        24.334
  22673676.665    22673675.735   -12478307.84507  -9710296.59001      2912.923
      2269.810
  24055276.506    24055278.798    -5898459.52605  -4583092.31801     -3382.224
     -2635.499
  21796175.433    21796170.655   -17849332.39008 -13891433.88503      1099.383
       856.662
  22012660.144    22012658.355   -16986534.87208 -13214419.67402      1450.491
      1130.253
  23562360.820    23562359.601    -8089480.32306  -6295581.82201     -3699.851
     -2883.001
  23881970.171    23881968.862    -6527556.13005  -5079059.46901      1293.152
      1007.651
  20169269.898    20169265.854   -27278207.91409 -21235868.24405      -458.308
      -357.123
  20737321.213    20737317.920   -23148111.02009 -18030412.76804      2110.764
      1644.751
 05  4 14 21 16 40.0000000  0  9G18G14G06G22G09G26G03G21G15
  21050608.452    21050604.785   -23315852.51009 -18159685.79904        30.191
        23.525
  22670905.215    22670904.226   -12492866.74307  -9721641.16801      2911.006
      2268.316
  24058494.196    24058497.870    -5881547.42505  -4569914.08501     -3382.290
     -2635.550
  21795130.241    21795125.085   -17854825.96608 -13895714.57803      1098.350
       855.857
  22011281.644    22011279.664   -16993778.93908 -13220064.40102      1447.344
      1127.801
  23565881.351    23565879.870    -8070978.68905  -6281164.96901     -3700.649
     -2883.623
  23880741.240    23880741.021    -6534013.71305  -5084091.34401      1290.225
      1005.370
  20169707.743    20169702.999   -27275908.38209 -21234076.39805      -461.250
      -359.415
  20735313.744    20735310.316   -23158659.40409 -18038632.27804      2108.843
      1643.255
 05  4 14 21 16 45.0000000  0  9G18G14G06G22G09G26G03G21G15
  21050580.021    21050576.290   -23316001.85309 -18159802.17604        29.563
        23.036
  22668136.237    22668135.885   -12507417.03707  -9732979.03701      2909.245
      2266.944
  24061712.620    24061715.596    -5864636.33106  -4556736.64701     -3382.029
     -2635.347
  21794085.729    21794080.147   -17860316.18808 -13899992.67503      1097.800
       855.429
  22009905.540    22009904.159   -17001008.63008 -13225697.91102      1444.636
      1125.690
  23569402.364    23569400.569    -8052473.97905  -6266745.72701     -3701.106
     -2883.979
  23879515.125    23879514.927    -6540457.86106  -5089112.76501      1287.600
      1003.325
  20170147.792    20170143.239   -27273595.51309 -21232274.16305      -463.841
      -361.434
  20733308.154    20733304.660   -23169199.26009 -18046845.15004      2107.209
      1641.981
 05  4 14 21 16 50.0000000  0  9G18G14G06G22G09G26G03G21G15
  21050552.473    21050548.759   -23316147.63109 -18159915.77104        28.797
        22.439
  22665369.277    22665368.523   -12521958.86007  -9744310.30801      2907.522
      2265.602
  24064930.482    24064933.397    -5847726.41406  -4543560.13401     -3381.843
     -2635.202
  21793041.537    21793036.181   -17865803.15708 -13904268.22703      1097.108
       854.889
  22008532.835    22008531.009   -17008224.00808 -13231320.27502      1441.678
      1123.385
  23572925.115    23572922.890    -8033966.34406  -6252324.21101     -3701.779
     -2884.503
  23878291.551    23878290.539    -6546888.66206  -5094123.78601      1284.827
      1001.164
  20170590.374    20170586.214   -27271269.39009 -21230461.59905      -466.496
      -363.503
  20731303.932    20731301.271   -23179730.67509 -18055051.44604      2105.526
      1640.669
 05  4 14 21 16 55.0000000  0  9G18G14G06G22G09G26G03G21G15
  21050525.444    21050521.483   -23316289.72408 -18160026.47904        28.101
        21.897
  22662602.640    22662602.407   -12536492.07206  -9755634.86001      2905.821
      2264.276
  24068148.646    24068151.374    -5830817.46006  -4530384.35101     -3381.577
     -2634.995
  21791998.070    21791993.065   -17871286.69508 -13908541.10103      1096.402
       854.339
  22007162.544    22007160.703   -17015424.93208 -13236931.37502      1438.711
      1121.074
  23576447.491    23576445.637    -8015455.68805  -6237900.33201     -3702.324
     -2884.928
  23877069.400    23877069.695    -6553305.99305  -5099124.28801      1282.163
       999.088
  20171035.535    20171031.385   -27268929.93009 -21228638.64505      -469.130
      -365.556
  20729301.969    20729298.678   -23190253.48308 -18063251.03604      2103.756
      1639.290
 05  4 14 21 17  0.0000000  0  9G18G14G06G22G09G26G03G21G15
  21050498.951    21050495.289   -23316428.16309 -18160134.36404        27.317
        21.286
  22659839.484    22659839.251   -12551016.71207  -9766952.73001      2904.025
      2262.877
  24071365.836    24071368.920    -5813909.59806  -4517209.44101     -3381.599
     -2635.012
  21790955.092    21790950.197   -17876766.88108 -13912811.37403      1095.695
       853.789
  22005794.597    22005792.938   -17022611.43708 -13242531.25302      1435.808
      1118.811
  23579970.725    23579968.836    -7996942.03106  -6223474.10601     -3703.098
     -2885.531
  23875851.456    23875850.636    -6559709.96705  -5104114.40501      1279.441
       996.967
  20171483.208    20171479.006   -27266577.14909 -21226805.30605      -471.912
      -367.724
  20727301.056    20727297.908   -23200767.75209 -18071443.97004      2101.955
      1637.887
 05  4 14 21 17  5.0000000  0  9G18G14G06G22G09G26G03G21G15
  21050473.537    21050469.486   -23316562.87409 -18160239.32304        26.530
        20.673
  22657076.795    22657076.054   -12565532.67507  -9778263.84901      2902.282
      2261.518
  24074583.254    24074586.194    -5797002.74706  -4504035.32701     -3381.322
     -2634.796
  21789912.693    21789908.013   -17882243.63609 -13917078.97403      1094.982
       853.233
  22004429.983    22004428.028   -17029783.47608 -13248119.84902      1432.995
      1116.619
  23583493.599    23583491.834    -7978425.36005  -6209045.53201     -3703.665
     -2885.973
  23874635.873    23874634.524    -6566100.41705  -5109093.97401      1276.838
       994.938
  20171933.297    20171929.204   -27264210.97609 -21224961.54005      -474.549
      -369.779
  20725301.883    20725298.698   -23211273.42509 -18079630.20504      2100.256
      1636.563
 05  4 14 21 17 10.0000000  0  9G18G14G06G22G09G26G03G21G15
  21050448.317    21050444.673   -23316694.10709 -18160341.58804        25.978
        20.242
  22654317.009    22654315.861   -12580040.24507  -9789568.43001      2900.821
      2260.380
  24077800.612    24077803.393    -5780097.14306  -4490862.15901     -3380.878
     -2634.450
  21788871.126    21788865.807   -17887717.19208 -13921344.07903      1094.532
       852.882
  22003067.527    22003065.935   -17036941.25107 -13253697.32402      1430.328
      1114.542
  23587017.580    23587015.933    -7959905.87905  -6194614.77201     -3704.032
     -2886.259
  23873421.112    23873420.669    -6572477.60605  -5114063.21201      1274.342
       992.994
  20172385.891    20172381.905   -27261831.66709 -21223107.53605      -476.957
      -371.655
  20723304.168    20723301.194   -23221770.65009 -18087809.85804      2098.795
      1635.425
 05  4 14 21 17 15.0000000  0  9G18G14G06G22G09G26G03G21G15
  21050424.088    21050420.402   -23316821.47608 -18160440.82504        25.150
        19.597
  22651557.133    22651556.639   -12594538.94407  -9800866.09301      2899.046
      2258.997
  24081017.358    24081020.270    -5763192.40706  -4477689.68301     -3380.841
     -2634.422
  21787830.201    21787825.275   -17893187.12408 -13925606.36103      1093.656
       852.199
  22001708.855    22001706.331   -17044084.34208 -13259263.34802      1427.298
      1112.181
  23590542.894    23590541.396    -7941383.14405  -6180181.48801     -3704.669
     -2886.755
  23872210.411    23872209.669    -6578841.10005  -5119021.76301      1271.449
       990.739
  20172842.057    20172837.124   -27259438.75709 -21221242.93605      -479.801
      -373.871
  20721308.569    20721305.788   -23232259.07809 -18095982.65304      2097.000
      1634.026
 05  4 14 21 17 20.0000000  0  9G18G14G06G22G09G26G03G21G15
  21050400.577    21050396.946   -23316945.29708 -18160537.31804        24.503
        19.093
  22648799.188    22648799.030   -12609029.09507  -9812157.09401      2897.321
      2257.653
  24084233.535    24084237.284    -5746288.90806  -4464518.16201     -3380.399
     -2634.077
  21786789.968    21786785.411   -17898653.81208 -13929866.11603      1093.170
       851.821
  22000352.061    22000349.934   -17051213.05307 -13264818.17702      1424.474
      1109.980
  23594068.207    23594066.540    -7922857.54805  -6165745.96401     -3705.262
     -2887.218
  23871002.265    23871001.363    -6585191.26505  -5123969.94801      1268.742
       988.630
  20173299.661    20173295.336   -27257032.62709 -21219368.03205      -482.391
      -375.889
  20719314.248    20719311.332   -23242738.99409 -18104148.82004      2095.275
      1632.682
 05  4 14 21 17 25.0000000  0  9G18G14G06G22G09G26G03G21G15
  21050377.731    21050374.015   -23317065.48108 -18160630.96404        23.832
        18.571
  22646044.101    22646044.117   -12623510.68807  -9823441.43501      2895.619
      2256.327
  24087451.068    24087453.908    -5729386.46406  -4451347.48501     -3380.269
     -2633.976
  21785749.944    21785745.584   -17904117.11407 -13934123.22403      1092.372
       851.199
  21998997.946    21998996.162   -17058327.28808 -13270361.74102      1421.513
      1107.672
  23597594.063    23597592.561    -7904329.09805  -6151308.21301     -3705.899
     -2887.713
  23869796.866    23869795.423    -6591527.99605  -5128907.64501      1266.108
       986.578
  20173759.906    20173755.661   -27254613.15809 -21217482.73405      -485.079
      -377.983
  20717321.540    20717318.501   -23253210.34709 -18112308.31104      2093.661
      1631.424
 05  4 14 21 17 30.0000000  0  9G18G14G06G22G09G26G03G21G15
  21050355.345    21050351.726   -23317181.86108 -18160721.65005        23.081
        17.985
  22643290.099    22643290.119   -12637983.50407  -9834718.92301      2893.750
      2254.870
  24090666.624    24090669.999    -5712485.08207  -4438177.62201     -3380.063
     -2633.816
  21784711.498    21784706.870   -17909576.90908 -13938377.59903      1091.787
       850.743
  21997646.873    21997644.899   -17065426.92108 -13275893.92002      1418.637
      1105.432
  23601120.323    23601118.820    -7885797.49805  -6136868.02001     -3706.509
     -2888.189
  23868593.707    23868592.338    -6597851.18505  -5133834.81701      1263.383
       984.455
  20174222.902    20174218.652   -27252180.19209 -21215586.91805      -487.759
      -380.072
  20715330.496    20715327.327   -23263672.90009 -18120460.94604      2091.767
      1629.949
 05  4 14 21 17 35.0000000  0  9G18G14G06G22G09G26G03G21G15
  21050334.175    21050330.590   -23317294.75309 -18160809.60505        22.280
        17.361
  22640537.518    22640537.555   -12652447.91707  -9845989.87701      2892.016
      2253.519
  24093882.036    24093885.978    -5695585.06006  -4425008.79601     -3379.795
     -2633.607
  21783673.067    21783668.548   -17915033.50808 -13942629.50403      1091.005
       850.134
  21996298.906    21996296.822   -17072512.24708 -13281414.93302      1415.649
      1103.103
  23604647.238    23604645.728    -7867263.19305  -6122425.71001     -3707.095
     -2888.646
  23867392.568    23867391.239    -6604161.12405  -5138751.62701      1260.693
       982.358
  20174688.526    20174683.974   -27249734.05109 -21213680.84305      -490.587
      -382.275
  20713341.346    20713338.269   -23274127.05109 -18128607.03104      2089.960
      1628.541
 05  4 14 21 17 40.0000000  0  9G18G14G06G22G09G26G03G21G15
  21050313.484    21050309.805   -23317403.76608 -18160894.55004        21.362
        16.646
  22637786.978    22637785.987   -12666903.45107  -9857253.90101      2890.190
      2252.096
  24097098.670    24097101.965    -5678685.93906  -4411840.70001     -3379.854
     -2633.652
  21782635.214    21782630.803   -17920486.54408 -13946878.60703      1090.220
       849.522
  21994953.093    21994951.249   -17079582.83308 -13286924.47402      1412.490
      1100.642
  23608174.752    23608173.473    -7848725.80405  -6107981.01801     -3707.837
     -2889.224
  23866194.797    23866193.098    -6610457.35505  -5143657.79301      1257.837
       980.132
  20175156.787    20175152.373   -27247274.36309 -21211764.19305      -493.369
      -384.444
  20711353.789    20711350.328   -23284572.32609 -18136746.20604      2088.071
      1627.068
 05  4 14 21 17 45.0000000  0  9G18G14G06G22G09G26G03G21G15
  21050293.247    21050289.520   -23317509.36508 -18160976.83805        20.870
        16.262
  22635038.315    22635036.236   -12681350.53207  -9868511.34501      2888.604
      2250.860
  24100313.922    24100317.733    -5661788.19006  -4398673.67301     -3379.311
     -2633.229
  21781598.301    21781593.924   -17925936.37708 -13951125.22703      1089.771
       849.172
  21993610.762    21993608.484   -17086639.13008 -13292422.88702      1409.942
      1098.656
  23611703.123    23611702.037    -7830185.68205  -6093534.16301     -3708.212
     -2889.516
  23864998.630    23864997.565    -6616740.35605  -5148553.63201      1255.421
       978.250
  20175627.113    20175623.058   -27244801.44409 -21209837.24405      -495.883
      -386.402
  20709367.431    20709364.471   -23295009.16009 -18144878.80504      2086.666
      1625.974
 05  4 14 21 17 50.0000000  0  9G18G14G06G22G09G26G03G21G15
  21050274.154    21050270.004   -23317610.98708 -18161056.02904        19.802
        15.430
  22632290.267    22632287.972   -12695788.65707  -9879761.81401      2886.653
      2249.340
  24103529.427    24103532.870    -5644891.32906  -4385507.34501     -3379.387
     -2633.289
  21780561.792    21780557.221   -17931382.60508 -13955369.02803      1088.865
       848.466
  21992270.342    21992268.891   -17093680.56508 -13297909.71802      1406.682
      1096.116
  23615231.329    23615230.398    -7811642.47305  -6079084.95001     -3709.099
     -2890.207
  23863806.148    23863804.751    -6623009.59606  -5153438.75301      1252.366
       975.870
  20176100.308    20176095.732   -27242314.89709 -21207899.67805      -498.728
      -388.619
  20707383.412    20707380.385   -23305437.02508 -18153004.41204      2084.587
      1624.354
 05  4 14 21 17 55.0000000  0  9G18G14G06G22G09G26G03G21G15
  21050255.450    21050251.818   -23317709.31308 -18161132.64605        19.269
        15.014
  22629544.506    22629542.431   -12710218.44107  -9891005.79501      2885.001
      2248.053
  24106744.093    24106747.975    -5627996.01805  -4372342.20201     -3379.042
     -2633.020
  21779526.002    21779521.266   -17936825.81007 -13959610.48303      1088.277
       848.008
  21990933.209    21990931.840   -17100707.82408 -13303385.49302      1403.922
      1093.965
  23618760.800    23618759.537    -7793096.70305  -6064633.70301     -3709.437
     -2890.471
  23862614.612    23862614.473    -6629265.68306  -5158313.62601      1249.850
       973.909
  20176575.766    20176571.389   -27239815.32709 -21205951.96205      -501.303
      -390.626
  20705400.823    20705397.417   -23315856.56308 -18161123.52404      2082.979
      1623.101
 05  4 14 21 18  0.0000000  0  9G18G14G06G22G09G26G03G21G15
  21050237.255    21050233.328   -23317803.82808 -18161206.30204        18.572
        14.472
  22626799.815    22626798.988   -12724639.39207  -9902242.87201      2883.396
      2246.802
  24109958.518    24109963.138    -5611101.70105  -4359177.84801     -3378.777
     -2632.813
  21778490.980    21778486.176   -17942265.48608 -13963849.18603      1087.698
       847.557
  21989599.016    21989597.213   -17107720.33108 -13308849.78602      1401.131
      1091.790
  23622290.459    23622289.610    -7774547.90705  -6050180.13401     -3710.017
     -2890.922
  23861426.893    23861426.507    -6635508.15606  -5163177.89601      1247.224
       971.863
  20177054.094    20177049.729   -27237302.23909 -21203993.71705      -503.865
      -392.622
  20703419.256    20703416.301   -23326267.23509 -18169235.73304      2081.219
      1621.729
 05  4 14 21 18  5.0000000  0  9G18G14G06G22G09G26G03G21G15
  21050219.896    21050216.286   -23317894.73908 -18161277.12704        17.741
        13.824
  22624057.735    22624056.480   -12739051.70307  -9913473.22901      2881.574
      2245.383
  24113173.529    24113177.341    -5594208.59205  -4346014.44001     -3378.640
     -2632.707
  21777456.301    21777451.718   -17947701.82608 -13968085.29803      1086.848
       846.894
  21988267.522    21988265.487   -17114718.29208 -13314302.73702      1398.093
      1089.423
  23625820.703    23625819.494    -7755996.28305  -6035724.32501     -3710.784
     -2891.520
  23860242.765    23860241.377    -6641737.14805  -5168031.65201      1244.226
       969.527
  20177534.594    20177530.440   -27234775.82009 -21202025.07905      -506.682
      -394.817
  20701440.015    20701436.618   -23336669.24409 -18177341.18904      2079.348
      1620.271
 05  4 14 21 18 10.0000000  0  9G18G14G06G22G09G26G03G21G15
  21050203.296    21050199.322   -23317982.28709 -18161345.35004        17.257
        13.447
  22621316.538    22621315.388   -12753455.59307  -9924697.02201      2879.996
      2244.153
  24116386.962    24116391.529    -5577316.97605  -4332852.19901     -3378.221
     -2632.380
  21776422.432    21776417.769   -17953135.10908 -13972319.01703      1086.437
       846.574
  21986938.283    21986936.328   -17121701.96508 -13319744.54602      1395.397
      1087.322
  23629351.912    23629350.531    -7737442.10706  -6021266.54201     -3710.966
     -2891.661
  23859059.727    23859058.591    -6647953.01305  -5172875.18001      1241.915
       967.726
  20178018.192    20178013.631   -27232236.29609 -21200046.22905      -509.154
      -396.743
  20699462.049    20699459.238   -23347062.81309 -18185440.07404      2077.960
      1619.190
 05  4 14 21 18 15.0000000  0  9G18G14G06G22G09G26G03G21G15
  21050187.308    21050183.511   -23318065.71208 -18161410.35204        16.269
        12.677
  22618577.535    22618575.477   -12767850.30507  -9935913.67301      2878.032
      2242.622
  24119601.598    24119605.781    -5560426.21704  -4319690.64801     -3377.974
     -2632.188
  21775389.216    21775384.812   -17958564.51008 -13976549.71203      1085.439
       845.797
  21985612.555    21985611.253   -17128670.56108 -13325174.61102      1392.202
      1084.833
  23632883.085    23632881.493    -7718884.69206  -6006806.23101     -3711.656
     -2892.199
  23857879.141    23857877.645    -6654154.94506  -5177707.87101      1239.155
       965.575
  20178503.878    20178499.622   -27229682.89509 -21198056.57005      -512.012
      -398.970
  20697486.219    20697482.882   -23357447.17909 -18193531.79005      2075.971
      1617.640
 05  4 14 21 18 20.0000000  0  9G18G14G06G22G09G26G03G21G15
  21050172.356    21050168.230   -23318145.79408 -18161472.74604        15.666
        12.207
  22615840.561    22615838.152   -12782236.58107  -9947123.73101      2876.427
      2241.372
  24122815.566    24122819.982    -5543536.88104  -4306530.15601     -3377.732
     -2631.999
  21774356.691    21774351.987   -17963990.76908 -13980777.96203      1084.904
       845.380
  21984288.939    21984287.563   -17135624.81108 -13330593.49802      1389.465
      1082.700
  23636414.805    23636413.372    -7700324.76806  -5992343.97401     -3712.249
     -2892.662
  23856701.126    23856700.195    -6660343.61806  -5182530.18701      1236.394
       963.424
  20178992.573    20178987.731   -27227116.42509 -21196056.72705      -514.642
      -401.019
  20695511.402    20695508.713   -23367823.04808 -18201616.87404      2074.313
      1616.348
 05  4 14 21 18 25.0000000  0  9G18G14G06G22G09G26G03G21G15
  21050157.301    21050153.476   -23318222.03108 -18161532.14904        14.910
        11.618
  22613104.808    22613103.172   -12796613.95307  -9958326.85801      2874.646
      2239.984
  24126028.872    24126033.549    -5526648.61404  -4293370.52901     -3377.536
     -2631.846
  21773324.919    21773320.071   -17969413.48608 -13985003.44503      1084.226
       844.852
  21982967.882    21982967.273   -17142564.20008 -13336000.80402      1386.355
      1080.277
  23639947.127    23639945.665    -7681761.76905  -5977879.29801     -3712.932
     -2893.194
  23855526.291    23855525.023    -6666518.62105  -5187341.89601      1233.586
       961.236
  20179483.330    20179478.923   -27224536.34009 -21194046.27305      -517.361
      -403.138
  20693538.878    20693536.018   -23378189.95808 -18209694.98304      2072.454
      1614.899
 05  4 14 21 18 30.0000000  0  9G18G14G06G22G09G26G03G21G15
  21050144.005    21050139.993   -23318294.79008 -18161588.85204        14.194
        11.060
  22610369.583    22610368.353   -12810982.76807  -9969523.31401      2872.890
      2238.615
  24129242.488    24129246.857    -5509761.81104  -4280212.00201     -3377.135
     -2631.533
  21772293.696    21772289.546   -17974833.04208 -13989226.48003      1083.578
       844.347
  21981650.631    21981649.367   -17149489.13808 -13341396.85802      1383.525
      1078.071
  23643480.304    23643478.368    -7663196.18905  -5963412.63501     -3713.296
     -2893.478
  23854353.857    23854352.635    -6672680.27505  -5192143.16201      1230.922
       959.160
  20179976.765    20179972.506   -27221943.01609 -21192025.50405      -519.971
      -405.173
  20691567.733    20691564.720   -23388548.27208 -18217766.39404      2070.800
      1613.610
 05  4 14 21 18 35.0000000  0  9G18G14G06G22G09G26G03G21G15
  21050130.527    21050126.548   -23318363.75808 -18161642.59504        13.330
        10.387
  22607636.922    22607635.770   -12825342.68007  -9980712.83801      2871.026
      2237.163
  24132455.960    24132460.201    -5492876.09104  -4267054.37201     -3377.060
     -2631.475
  21771262.768    21771258.563   -17980249.12008 -13993446.79803      1082.837
       843.769
  21980335.826    21980334.318   -17156399.23108 -13346781.34802      1380.557
      1075.759
  23647013.234    23647011.548    -7644627.69005  -5948943.68901     -3714.042
     -2894.059
  23853184.131    23853182.740    -6678828.26605  -5196933.81601      1228.159
       957.007
  20180473.056    20180468.377   -27219336.09209 -21189994.14305      -522.812
      -407.386
  20689598.082    20689595.435   -23398897.60508 -18225830.80004      2068.867
      1612.104
 05  4 14 21 18 40.0000000  0  9G18G14G06G22G09G26G03G21G15
  21050118.287    21050114.438   -23318429.32608 -18161693.68704        12.758
         9.941
  22604905.672    22604904.662   -12839694.09707  -9991895.75201      2869.384
      2235.883
  24135669.387    24135672.999    -5475991.92004  -4253897.88401     -3376.691
     -2631.188
  21770233.070    21770228.567   -17985662.09008 -13997664.69303      1082.308
       843.357
  21979023.546    21979022.249   -17163294.90708 -13352154.59802      1377.670
      1073.509
  23650547.566    23650545.001    -7626056.60205  -5934472.70601     -3714.459
     -2894.384
  23852016.825    23852015.439    -6684963.02905  -5201714.13201      1225.726
       955.111
  20180971.863    20180966.923   -27216715.98909 -21187952.50405      -525.377
      -409.385
  20687630.414    20687627.603   -23409238.39208 -18233888.55504      2067.323
      1610.901
 05  4 14 21 18 45.0000000  0  9G18G14G06G22G09G26G03G21G15
  21050106.299    21050102.411   -23318491.06008 -18161741.77904        11.844
         9.229
  22602176.732    22602175.264   -12854036.61807 -10003071.71101      2867.523
      2234.434
  24138882.168    24138886.099    -5459108.86504  -4240742.32001     -3376.539
     -2631.070
  21769203.209    21769199.073   -17991071.58208 -14001879.87503      1081.532
       842.752
  21977713.814    21977712.629   -17170175.75408 -13357516.28002      1374.637
      1071.146
  23654082.358    23654079.385    -7607482.63805  -5919999.50701     -3715.167
     -2894.936
  23850851.890    23850850.625    -6691084.06805  -5206483.79101      1222.806
       952.836
  20181472.804    20181467.937   -27214082.31509 -21185900.28805      -528.092
      -411.500
  20685664.653    20685661.668   -23419570.22409 -18241939.33305      2065.526
      1609.501
 05  4 14 21 18 50.0000000  0  9G18G14G06G22G09G26G03G21G15
  21050095.410    21050091.318   -23318549.29208 -18161787.16204        11.069
         8.625
  22599448.490    22599446.512   -12868370.51607 -10014240.97301      2865.703
      2233.015
  24142094.400    24142098.513    -5442227.32004  -4227587.88401     -3376.368
     -2630.936
  21768174.512    21768170.410   -17996477.86508 -14006092.56003      1080.849
       842.220
  21976407.387    21976406.551   -17177042.04908 -13362866.62802      1371.620
      1068.795
  23657616.959    23657614.537    -7588906.09405  -5905524.29101     -3715.752
     -2895.392
  23849688.862    23849688.562    -6697191.73405  -5211243.00301      1219.975
       950.630
  20181976.450    20181971.962   -27211435.36709 -21183837.73605      -530.831
      -413.634
  20683700.238    20683697.136   -23429893.34408 -18249983.31605      2063.617
      1608.014
 05  4 14 21 18 55.0000000  0  9G18G14G06G22G09G26G03G21G15
  21050084.989    21050080.901   -23318603.84608 -18161829.67404        10.569
         8.236
  22596723.121    22596720.806   -12882695.61107 -10025403.36401      2864.167
      2231.819
  24145307.547    24145310.637    -5425347.00205  -4214434.48701     -3375.876
     -2630.553
  21767146.356    21767141.981   -18001880.73208 -14010302.58003      1080.252
       841.755
  21975103.630    21975102.502   -17183893.57508 -13368205.48402      1368.782
      1066.583
  23661152.802    23661150.714    -7570326.84906  -5891046.93001     -3715.984
     -2895.572
  23848529.659    23848528.932    -6703285.86205  -5215991.66501      1217.385
       948.612
  20182482.373    20182478.385   -27208774.93109 -21181764.66705      -533.474
      -415.694
  20681737.093    20681734.703   -23440207.59008 -18258020.39205      2061.936
      1606.704
 05  4 14 21 19  0.0000000  0  9G18G14G06G22G09G26G03G21G15
  21050075.536    21050071.399   -23318654.93108 -18161869.47904        10.131
         7.895
  22593999.132    22593996.669   -12897012.08907 -10036559.05601      2862.734
      2230.702
  24148519.576    24148522.715    -5408468.20805  -4201282.17601     -3375.269
     -2630.080
  21766119.005    21766114.540   -18007280.39907 -14014510.10603      1079.843
       841.436
  21973802.630    21973801.515   -17190730.57408 -13373533.00902      1366.079
      1064.477
  23664688.679    23664686.601    -7551745.00106  -5876567.58101     -3716.368
     -2895.871
  23847372.457    23847371.535    -6709366.65105  -5220729.95601      1215.161
       946.878
  20182991.430    20182987.508   -27206101.20209 -21179681.24005      -535.855
      -417.549
  20679776.022    20679773.355   -23450513.19208 -18266050.72404      2060.536
      1605.613
 05  4 14 21 19  5.0000000  0  9G18G14G06G22G09G26G03G21G15
  21050066.460    21050062.105   -23318702.00908 -18161906.16604         9.134
         7.117
  22591275.683    22591274.188   -12911319.41107 -10047707.59901      2860.657
      2229.083
  24151731.250    24151734.915    -5391590.36105  -4188130.66501     -3375.388
     -2630.172
  21765092.435    21765088.053   -18012676.41807 -14018714.79403      1078.924
       840.720
  21972504.329    21972503.302   -17197552.51108 -13378848.79402      1362.982
      1062.064
  23668225.172    23668223.484    -7533160.12005  -5862085.85301     -3717.102
     -2896.443
  23846218.720    23846216.815    -6715433.51805  -5225457.38201      1212.083
       944.480
  20183503.096    20183499.110   -27203413.69309 -21177587.08205      -538.854
      -419.887
  20677816.714    20677814.097   -23460809.54408 -18274073.85104      2058.362
      1603.918
 05  4 14 21 19 10.0000000  0  9G18G14G06G22G09G26G03G21G15
  21050057.983    21050054.124   -23318745.80708 -18161940.29104         8.318
         6.482
  22588555.123    22588553.538   -12925618.30807 -10058849.57201      2858.772
      2227.615
  24154942.452    24154946.347    -5374714.21705  -4174980.45101     -3375.100
     -2629.948
  21764066.082    21764061.166   -18018069.43907 -14022917.15003      1078.211
       840.164
  21971208.900    21971207.516   -17204360.03908 -13384153.36102      1359.988
      1059.731
  23671762.400    23671760.725    -7514572.88305  -5847602.32001     -3717.707
     -2896.915
  23845065.978    23845065.029    -6721487.20305  -5230174.54301      1209.309
       942.319
  20184016.914    20184012.804   -27200713.06309 -21175482.70105      -541.501
      -421.949
  20675858.885    20675856.455   -23471097.42908 -18282090.36904      2056.633
      1602.571
 05  4 14 21 19 15.0000000  0  9G18G14G06G22G09G26G03G21G15
  21050050.692    21050046.331   -23318785.82208 -18161971.46704         7.639
         5.952
  22585835.283    22585833.809   -12939908.25907 -10069984.59201      2857.126
      2226.332
  24158154.286    24158157.403    -5357839.33705  -4161831.22701     -3374.720
     -2629.652
  21763040.266    21763035.766   -18023458.97807 -14027116.78003      1077.624
       839.707
  21969916.405    21969914.774   -17211152.69908 -13389446.32802      1357.038
      1057.432
  23675300.055    23675298.303    -7495982.82205  -5833116.57701     -3718.294
     -2897.372
  23843916.545    23843915.697    -6727527.18705  -5234881.02101      1206.730
       940.309
  20184533.437    20184529.275   -27197998.82309 -21173367.71105      -544.168
      -424.027
  20673903.218    20673900.230   -23481376.23007 -18290099.83704      2054.938
      1601.251
 05  4 14 21 19 20.0000000  0  9G18G14G06G22G09G26G03G21G15
  21050043.555    21050039.164   -23318822.53308 -18162000.06805         7.211
         5.619
  22583117.387    22583116.881   -12954189.76907 -10081113.01301      2855.551
      2225.105
  24161364.529    24161367.996    -5340966.14505  -4148683.35201     -3374.356
     -2629.368
  21762015.765    21762010.853   -18028845.46208 -14031314.03803      1077.197
       839.374
  21968626.429    21968624.915   -17217930.92908 -13394728.07002      1354.330
      1055.322
  23678838.142    23678836.614    -7477390.47505  -5818629.04301     -3718.585
     -2897.599
  23842770.485    23842768.971    -6733553.99605  -5239577.22401      1204.267
       938.390
  20185052.488    20185048.262   -27195271.48609 -21171242.51305      -546.602
      -425.924
  20671948.406    20671946.163   -23491646.46908 -18298102.60804      2053.300
      1599.974
 05  4 14 21 19 25.0000000  0  9G18G14G06G22G09G26G03G21G15
  21050037.139    21050033.105   -23318855.10708 -18162025.45604         6.190
         4.824
  22580401.922    22580400.024   -12968462.01307 -10092234.23001      2853.690
      2223.655
  24164575.977    24164578.934    -5324093.89905  -4135536.18201     -3374.161
     -2629.217
  21760991.038    21760986.568   -18034228.16108 -14035508.34103      1076.312
       838.685
  21967339.605    21967337.646   -17224693.94808 -13399997.94702      1351.166
      1052.857
  23682376.891    23682375.527    -7458794.98005  -5804139.07401     -3719.176
     -2898.059
  23841625.611    23841624.506    -6739566.74205  -5244262.50801      1201.307
       936.084
  20185573.741    20185569.780   -27192530.24209 -21169106.48905      -549.479
      -428.165
  20669996.187    20669993.445   -23501907.35708 -18306098.09604      2051.366
      1598.467
 05  4 14 21 19 30.0000000  0  9G18G14G06G22G09G26G03G21G15
  21050031.651    21050027.632   -23318884.32208 -18162048.22105         5.495
         4.282
  22577688.071    22577686.405   -12982725.73507 -10103348.78801      2851.926
      2222.280
  24167785.882    24167789.180    -5307223.36405  -4122390.37101     -3373.895
     -2629.009
  21759967.234    21759962.938   -18039607.85307 -14039700.30303      1075.651
       838.169
  21966055.660    21966052.903   -17231442.48808 -13405256.54102      1348.288
      1050.614
  23685915.732    23685914.306    -7440197.16205  -5789647.26301     -3719.720
     -2898.483
  23840484.023    23840482.889    -6745566.25505  -5248937.43101      1198.566
       933.947
  20186098.302    20186093.564   -27189775.88209 -21166960.23205      -552.166
      -430.260
  20668045.164    20668042.563   -23512159.62008 -18314086.87104      2049.582
      1597.077
 05  4 14 21 19 35.0000000  0  9G18G14G06G22G09G26G03G21G15
  21050026.705    21050022.910   -23318909.90208 -18162068.14804         4.836
         3.768
  22574974.641    22574973.402   -12996980.58607 -10114456.44901      2850.183
      2220.922
  24170995.858    24170999.138    -5290354.20205  -4109245.59101     -3373.602
     -2628.781
  21758944.119    21758939.715   -18044984.20708 -14043889.66803      1075.056
       837.706
  21964774.194    21964771.542   -17238176.24708 -13410503.61602      1345.402
      1048.365
  23689455.266    23689453.313    -7421596.68105  -5775153.40301     -3720.232
     -2898.882
  23839344.526    23839342.970    -6751552.24905  -5253601.83501      1195.930
       931.893
  20186625.056    20186620.461   -27187008.08109 -21164803.50505      -554.783
      -432.299
  20666095.791    20666093.534   -23522402.94708 -18322068.67904      2047.839
      1595.719
 05  4 14 21 19 40.0000000  0  9G18G14G06G22G09G26G03G21G15
  21050022.710    21050018.558   -23318931.73708 -18162085.16404         3.897
         3.036
  22572264.375    22572262.638   -13011226.50207 -10125557.14501      2848.233
      2219.402
  24174206.016    24174209.324    -5273486.36105  -4096101.88601     -3373.477
     -2628.683
  21757921.542    21757917.638   -18050357.15208 -14048076.37203      1074.175
       837.020
  21963495.807    21963493.002   -17244895.06708 -13415739.05902      1342.163
      1045.841
  23692995.638    23692993.775    -7402993.49705  -5760657.41701     -3720.908
     -2899.409
  23838208.851    23838206.563    -6757524.55706  -5258255.57501      1193.130
       929.712
  20187154.017    20187149.765   -27184226.70409 -21162636.20605      -557.724
      -434.590
  20664148.248    20664145.806   -23532637.21708 -18330043.43204      2045.904
      1594.211
 05  4 14 21 19 45.0000000  0  9G18G14G06G22G09G26G03G21G15
  21050019.332    21050015.119   -23318950.19407 -18162099.53804         3.264
         2.544
  22569554.573    22569553.827   -13025463.84307 -10136651.15201      2846.482
      2218.038
  24177414.981    24177418.699    -5256620.21905  -4082959.49201     -3373.113
     -2628.399
  21756899.620    21756895.426   -18055727.03007 -14052260.68503      1073.606
       836.576
  21962220.256    21962217.658   -17251599.36308 -13420963.18002      1339.417
      1043.701
  23696535.581    23696534.258    -7384387.93105  -5746159.59401     -3721.438
     -2899.822
  23837074.154    23837072.175    -6763483.56505  -5262898.95401      1190.315
       927.518
  20187685.788    20187680.803   -27181432.12009 -21160458.60605      -560.359
      -436.643
  20662202.303    20662199.628   -23542862.79507 -18338011.41404      2044.109
      1592.812
 05  4 14 21 19 50.0000000  0  9G18G14G06G22G09G26G03G21G15
  21050016.603    21050012.289   -23318964.75608 -18162110.88604         2.562
         1.996
  22566847.521    22566846.613   -13039692.10607 -10147738.09101      2844.759
      2216.695
  24180625.269    24180628.384    -5239755.29705  -4069818.02101     -3372.892
     -2628.228
  21755878.589    21755874.648   -18061093.30707 -14056442.19403      1072.962
       836.074
  21960946.916    21960944.827   -17258288.55408 -13426175.53702      1336.346
      1041.308
  23700077.194    23700074.864    -7365779.57305  -5731659.58901     -3721.960
     -2900.228
  23835943.114    23835940.678    -6769428.74105  -5267531.58501      1187.513
       925.335
  20188220.558    20188215.920   -27178623.78309 -21158270.29605      -563.122
      -438.796
  20660258.092    20660255.902   -23553079.15608 -18345972.20304      2042.425
      1591.500
 05  4 14 21 19 55.0000000  0  9G18G14G06G22G09G26G03G21G15
  21050014.365    21050010.466   -23318976.04108 -18162119.67304         1.902
         1.482
  22564141.021    22564140.343   -13053911.87707 -10158818.40501      2843.147
      2215.439
  24183834.111    24183837.611    -5222892.19906  -4056678.01201     -3372.527
     -2627.943
  21754858.075    21754853.761   -18066456.60807 -14060621.38403      1072.434
       835.663
  21959676.802    21959674.829   -17264963.26808 -13431376.60602      1333.508
      1039.097
  23703618.381    23703615.817    -7347168.94505  -5717157.80401     -3722.313
     -2900.503
  23834814.597    23834812.303    -6775360.75205  -5272153.92301      1185.119
       923.470
  20188756.936    20188752.560   -27175802.33209 -21156071.77205      -565.589
      -440.719
  20658315.593    20658313.582   -23563286.90207 -18353926.28504      2040.671
      1590.133
 05  4 14 21 20  0.0000000  0  9G18G14G06G22G09G26G03G21G15
  21050012.570    21050008.774   -23318983.37709 -18162125.39004         0.962
         0.749
  22561437.416    22561436.231   -13068122.47407 -10169891.58401      2841.113
      2213.854
  24187043.136    24187046.265    -5206030.21405  -4043538.85101     -3372.515
     -2627.934
  21753838.365    21753833.641   -18071816.24508 -14064797.72303      1071.396
       834.854
  21958409.104    21958407.314   -17271622.78008 -13436565.82702      1330.190
      1036.512
  23707160.066    23707157.906    -7328555.51305  -5702653.83601     -3723.189
     -2901.186
  23833687.867    23833685.917    -6781278.81906  -5276765.41101      1182.050
       921.078
  20189297.056    20189292.175   -27172967.10009 -21153862.49105      -568.526
      -443.007
  20656374.910    20656372.946   -23573485.32908 -18361873.10604      2038.642
      1588.552
 05  4 14 21 20  5.0000000  0  9G18G14G06G22G09G26G03G21G15
  21050012.364    21050008.200   -23318987.37608 -18162128.50204         0.371
         0.289
  22558734.438    22558733.656   -13082324.52207 -10180958.09801      2839.483
      2212.584
  24190250.692    24190254.440    -5189170.08506  -4030401.10901     -3371.845
     -2627.412
  21752818.810    21752814.350   -18077172.85807 -14068971.70703      1070.967
       834.520
  21957145.135    21957142.794   -17278267.80308 -13441743.76802      1327.529
      1034.438
  23710703.023    23710700.538    -7309939.82205  -5688148.09901     -3723.462
     -2901.399
  23832565.051    23832562.480    -6787183.70606  -5281366.61801      1179.575
       919.149
  20189838.872    20189834.695   -27170118.73509 -21151642.99205      -571.079
      -444.997
  20654435.898    20654433.597   -23583675.08707 -18369813.18104      2037.041
      1587.305
 05  4 14 21 20 10.0000000  0  9G18G14G06G22G09G26G03G21G15
  21050012.069    21050008.436   -23318987.53809 -18162128.63604        -0.435
        -0.339
  22556033.440    22556032.791   -13096517.49107 -10192017.54101      2837.607
      2211.123
  24193458.887    24193462.881    -5172311.18806  -4017264.36101     -3371.660
     -2627.268
  21751800.477    21751795.644   -18082525.96108 -14073142.95203      1070.224
       833.941
  21955883.435    21955881.577   -17284897.71907 -13446909.91902      1324.385
      1031.988
  23714245.738    23714243.394    -7291321.32505  -5673640.20401     -3724.073
     -2901.875
  23831443.671    23831441.233    -6793074.83706  -5285957.10801      1176.870
       917.041
  20190383.106    20190378.855   -27167256.70409 -21149412.82705      -573.804
      -447.120
  20652498.747    20652496.123   -23593855.62508 -18377746.06004      2035.205
      1585.874
 05  4 14 21 20 15.0000000  0  9G18G14G06G22G09G26G03G21G15
  21050012.812    21050008.781   -23318984.27108 -18162126.08004        -1.066
        -0.831
  22553334.608    22553333.346   -13110701.78107 -10203070.22001      2835.863
      2209.763
  24196667.175    24196670.488    -5155453.96006  -4004128.88801     -3371.432
     -2627.090
  21750781.983    21750777.372   -18087875.93308 -14077311.76403      1069.491
       833.370
  21954624.345    21954622.385   -17291512.94808 -13452064.63702      1321.449
      1029.700
  23717789.878    23717786.952    -7272700.50905  -5659130.48201     -3724.425
     -2902.150
  23830325.885    23830322.940    -6798952.50406  -5290537.12001      1174.100
       914.883
  20190930.828    20190926.215   -27164381.33409 -21147172.28905      -576.564
      -449.271
  20650563.440    20650560.831   -23604027.31708 -18385672.05004      2033.314
      1584.401
 05  4 14 21 20 20.0000000  0  9G18G14G06G22G09G26G03G21G15
  21050014.466    21050010.383   -23318977.37508 -18162120.70204        -1.870
        -1.457
  22550637.139    22550636.225   -13124877.23007 -10214115.99501      2834.170
      2208.444
  24199874.580    24199878.190    -5138598.28206  -3990994.65601     -3371.113
     -2626.842
  21749765.170    21749760.095   -18093222.60307 -14081477.98903      1068.896
       832.906
  21953368.793    21953365.964   -17298113.28208 -13457207.74502      1318.403
      1027.327
  23721333.084    23721331.183    -7254077.17605  -5644618.76001     -3725.186
     -2902.742
  23829209.066    23829206.922    -6804816.63106  -5295106.55601      1171.309
       912.708
  20191480.587    20191476.227   -27161492.48409 -21144921.23805      -579.180
      -451.309
  20648629.350    20648626.654   -23614189.99908 -18393591.01404      2031.518
      1583.001
 05  4 14 21 20 25.0000000  0  9G18G14G06G22G09G26G03G21G15
  21050016.167    21050011.974   -23318966.76709 -18162112.44305        -2.411
        -1.879
  22547941.075    22547939.996   -13139043.69907 -10225154.78301      2832.418
      2207.079
  24203081.864    24203085.542    -5121744.10706  -3977861.56601     -3370.688
     -2626.510
  21748748.014    21748743.089   -18098565.89708 -14085641.59403      1068.316
       832.454
  21952115.138    21952112.589   -17304698.63908 -13462339.19002      1315.606
      1025.148
  23724877.880    23724875.863    -7235451.32305  -5630105.16601     -3725.449
     -2902.947
  23828095.362    23828093.587    -6810667.09406  -5299665.36101      1168.712
       910.684
  20192032.839    20192028.829   -27158590.04309 -21142659.59405      -581.816
      -453.363
  20646697.060    20646694.575   -23624343.57208 -18401502.88305      2029.844
      1581.697
 05  4 14 21 20 30.0000000  0  9G18G14G06G22G09G26G03G21G15
  21050018.642    21050015.053   -23318952.44708 -18162101.28604        -3.223
        -2.512
  22545247.016    22545245.835   -13153201.20107 -10236186.59101      2830.620
      2205.678
  24206288.917    24206291.857    -5104891.42706  -3964729.66001     -3370.318
     -2626.222
  21747732.028    21747727.028   -18103905.80008 -14089802.55503      1067.714
       831.985
  21950865.109    21950862.807   -17311269.01808 -13467458.96302      1312.534
      1022.754
  23728422.217    23728420.909    -7216822.94605  -5615589.55401     -3725.855
     -2903.263
  23826985.576    23826983.290    -6816503.91106  -5304213.54901      1166.098
       908.648
  20192587.376    20192583.495   -27155674.04509 -21140387.39605      -584.561
      -455.502
  20644766.267    20644764.135   -23634488.01508 -18409407.64205      2028.051
      1580.300
 05  4 14 21 20 35.0000000  0  9G18G14G06G22G09G26G03G21G15
  21050022.280    21050018.387   -23318934.66609 -18162087.42205        -3.813
        -2.972
  22542554.741    22542553.220   -13167349.93407 -10247211.55601      2828.916
      2204.350
  24209495.516    24209498.789    -5088040.43506  -3951599.05901     -3369.932
     -2625.921
  21746716.138    21746711.804   -18109242.59008 -14093961.08303      1067.114
       831.518
  21949617.491    21949615.163   -17317824.62008 -13472567.21802      1309.707
      1020.551
  23731967.542    23731965.954    -7198192.15505  -5601072.07201     -3726.328
     -2903.632
  23825877.009    23825874.246    -6822327.27606  -5308751.21001      1163.438
       906.575
  20193145.098    20193140.554   -27152744.71709 -21138104.80805      -587.178
      -457.541
  20642837.942    20642835.307   -23644623.54808 -18417305.45704      2026.357
      1578.980
 05  4 14 21 20 40.0000000  0  9G18G14G06G22G09G26G03G21G15
  21050026.605    21050022.544   -23318912.93309 -18162070.49905        -4.874
        -3.798
  22539864.205    22539862.624   -13181489.44607 -10258229.33701      2826.869
      2202.755
  24212702.305    24212704.902    -5071190.69506  -3938469.43801     -3369.938
     -2625.925
  21745701.413    21745697.263   -18114575.75208 -14098116.78603      1066.196
       830.802
  21948373.170    21948371.014   -17324364.97008 -13477663.58102      1306.474
      1018.032
  23735513.459    23735512.332    -7179558.60305  -5586552.43601     -3727.066
     -2904.208
  23824771.669    23824769.248    -6828136.70406  -5313278.05801      1160.326
       904.150
  20193704.961    20193700.735   -27149801.59209 -21135811.46505      -590.108
      -459.825
  20640910.900    20640908.151   -23654749.66408 -18425195.93104      2024.091
      1577.214
 05  4 14 21 20 45.0000000  0  9G18G14G06G22G09G26G03G21G15
  21050031.094    21050027.028   -23318888.04708 -18162051.10005        -5.509
        -4.293
  22537175.428    22537173.356   -13195620.48007 -10269240.51201      2825.160
      2201.424
  24215907.869    24215911.234    -5054343.01506  -3925341.41501     -3369.557
     -2625.629
  21744687.092    21744682.620   -18119906.08408 -14102270.28603      1065.585
       830.326
  21947131.205    21947128.979   -17330890.83808 -13482748.67102      1303.539
      1015.745
  23739059.737    23739058.661    -7160923.13605  -5572031.29701     -3727.418
     -2904.481
  23823669.986    23823666.710    -6833933.00506  -5317794.65201      1157.807
       902.187
  20194267.583    20194263.404   -27146845.42009 -21133507.95505      -592.760
      -461.891
  20638985.464    20638982.875   -23664867.18108 -18433079.70204      2022.465
      1575.947
 05  4 14 21 20 50.0000000  0  9G18G14G06G22G09G26G03G21G15
  21050036.760    21050032.635   -23318859.39608 -18162028.77904        -6.289
        -4.901
  22534487.575    22534485.622   -13209742.46007 -10280244.63701      2823.413
      2200.062
  24219113.718    24219117.234    -5037496.70805  -3912214.46601     -3369.439
     -2625.537
  21743673.401    21743668.899   -18125232.97708 -14106421.10703      1064.824
       829.733
  21945892.350    21945889.943   -17337401.59308 -13487821.97602      1300.425
      1013.318
  23742606.282    23742604.802    -7142285.03705  -5557508.12301     -3727.959
     -2904.903
  23822568.846    23822566.583    -6839715.52706  -5322300.52801      1154.839
       899.874
  20194832.489    20194828.422   -27143875.63509 -21131193.84705      -595.454
      -463.990
  20637062.220    20637059.749   -23674975.45707 -18440956.27905      2020.561
      1574.463
 05  4 14 21 20 55.0000000  0  9G18G14G06G22G09G26G03G21G15
  21050042.722    21050038.817   -23318827.15908 -18162003.65404        -6.940
        -5.408
  22531802.275    22531800.362   -13223855.49507 -10291241.78201      2821.595
      2198.646
  24222318.934    24222322.514    -5020652.09905  -3899088.86601     -3368.903
     -2625.119
  21742660.424    21742655.521   -18130556.54508 -14110569.33403      1064.183
       829.234
  21944656.750    21944653.930   -17343897.43508 -13492883.67602      1297.528
      1011.061
  23746153.084    23746151.892    -7123644.55505  -5542983.04301     -3728.674
     -2905.460
  23821471.385    23821468.481    -6845484.50206  -5326795.83001      1152.264
       897.868
  20195400.263    20195395.937   -27140892.34209 -21128869.20505      -598.161
      -466.099
  20635140.384    20635137.466   -23685074.63208 -18448825.75804      2018.739
      1573.043
 05  4 14 21 21  0.0000000  0  9G18G14G06G22G09G26G03G21G15
  21050049.685    21050045.203   -23318791.36508 -18161975.75804        -7.531
        -5.869
  22529118.031    22529116.616   -13237959.64007 -10302232.01101      2819.964
      2197.375
  24225524.429    24225527.736    -5003809.13305  -3885964.54101     -3368.523
     -2624.823
  21741648.054    21741643.624   -18135876.87507 -14114715.04803      1063.689
       828.849
  21943422.833    21943420.322   -17350378.32408 -13497933.71002      1294.676
      1008.838
  23749701.760    23749699.683    -7105001.65705  -5528456.16901     -3728.728
     -2905.502
  23820375.664    23820372.900    -6851239.91507  -5331280.56701      1149.715
       895.882
  20195970.358    20195966.269   -27137895.57809 -21126534.06405      -600.793
      -468.150
  20633220.286    20633217.666   -23695164.73308 -18456688.17605      2017.117
      1571.780
 05  4 14 21 21  5.0000000  0  9G18G14G06G22G09G26G03G21G15
  21050057.275    21050052.793   -23318751.87008 -18161944.97904        -8.336
        -6.496
  22526435.876    22526434.252   -13252054.76407 -10313215.21301      2818.050
      2195.883
  24228727.982    24228732.782    -4986967.71105  -3872841.38001     -3368.121
     -2624.510
  21740636.389    21740631.808   -18141193.82907 -14118858.12203      1063.007
       828.317
  21942192.597    21942190.138   -17356844.13708 -13502971.99502      1291.498
      1006.362
  23753249.351    23753247.833    -7086356.29105  -5513927.32601     -3729.391
     -2906.019
  23819283.257    23819280.570    -6856981.61106  -5335754.63401      1146.932
       893.714
  20196543.505    20196539.091   -27134885.18309 -21124188.30305      -603.522
      -470.277
  20631301.996    20631299.352   -23705245.61308 -18464543.40004      2015.116
      1570.220
 05  4 14 21 21 10.0000000  0  9G18G14G06G22G09G26G03G21G15
  21050065.075    21050060.990   -23318708.76208 -18161911.38404        -8.983
        -7.000
  22523755.665    22523753.907   -13266140.95907 -10324191.44301      2816.334
      2194.546
  24231932.977    24231937.005    -4970127.93105  -3859719.54001     -3367.723
     -2624.200
  21739625.101    21739620.335   -18146507.47608 -14122998.61403      1062.399
       827.843
  21940964.695    21940962.367   -17363294.97108 -13507998.61202      1288.722
      1004.199
  23756797.779    23756796.664    -7067708.53205  -5499396.63601     -3729.750
     -2906.298
  23818193.361    23818190.797    -6862709.69206  -5340218.06401      1144.166
       891.558
  20197118.965    20197114.821   -27131861.26909 -21121832.00705      -606.083
      -472.272
  20629385.327    20629382.082   -23715317.38208 -18472391.53105      2013.522
      1568.978
 05  4 14 21 21 15.0000000  0  9G18G14G06G22G09G26G03G21G15
  21050074.311    21050070.150   -23318662.15708 -18161875.07004        -9.787
        -7.626
  22521076.781    22521074.861   -13280218.29407 -10335160.77301      2814.544
      2193.151
  24235137.147    24235141.442    -4953289.85305  -3846598.99201     -3367.507
     -2624.031
  21738614.763    21738610.345   -18151817.93307 -14127136.62903      1061.741
       827.331
  21939740.374    21939738.075   -17369730.87408 -13513013.59902      1285.691
      1001.837
  23760347.556    23760345.636    -7049058.55405  -5484864.18301     -3730.305
     -2906.731
  23817105.289    23817103.653    -6868424.28306  -5344670.98501      1141.595
       889.554
  20197696.565    20197692.665   -27128823.94809 -21119465.26105      -608.898
      -474.466
  20627470.744    20627467.799   -23725380.08608 -18480232.59804      2011.614
      1567.491
 05  4 14 21 21 20.0000000  0  9G18G14G06G22G09G26G03G21G15
  21050083.789    21050079.277   -23318611.87408 -18161835.88704       -10.402
        -8.106
  22518399.424    22518397.293   -13294286.59607 -10346123.07501      2812.728
      2191.736
  24238341.937    24238345.530    -4936453.47705  -3833479.81501     -3367.077
     -2623.697
  21737604.906    21737600.057   -18157125.08808 -14131272.07203      1061.214
       826.920
  21938518.519    21938516.296   -17376151.68108 -13518016.82402      1282.669
       999.482
  23763896.416    23763894.647    -7030406.22505  -5470329.90901     -3730.700
     -2907.039
  23816020.571    23816018.557    -6874125.20806  -5349113.26101      1138.855
       887.420
  20198277.516    20198273.117   -27125773.08309 -21117087.97205      -611.564
      -476.544
  20625557.152    20625554.233   -23735433.57508 -18488066.48404      2009.808
      1566.084
 05  4 14 21 21 25.0000000  0  9G18G14G06G22G09G26G03G21G15
  21050093.717    21050089.686   -23318557.95809 -18161793.87104       -11.129
        -8.672
  22515724.141    22515722.355   -13308345.89607 -10357078.34901      2811.029
      2190.412
  24241544.774    24241548.954    -4919618.66504  -3820361.82301     -3366.691
     -2623.395
  21736595.229    21736590.704   -18162428.91808 -14135404.92803      1060.541
       826.395
  21937299.127    21937297.670   -17382557.43308 -13523008.31302      1279.706
       997.173
  23767446.358    23767444.348    -7011751.45105  -5455793.73501     -3731.168
     -2907.404
  23814939.245    23814936.193    -6879812.48306  -5353544.92601      1136.083
       885.259
  20198860.661    20198856.353   -27122708.63409 -21114700.08705      -614.112
      -478.529
  20623646.068    20623642.942   -23745477.85808 -18495893.18604      2008.031
      1564.700
 05  4 14 21 21 30.0000000  0  9G18G14G06G22G09G26G03G21G15
  21050104.548    21050100.216   -23318500.58308 -18161749.15904       -11.848
        -9.232
  22513050.305    22513048.494   -13322396.32507 -10368026.71901      2809.148
      2188.947
  24244748.464    24244752.254    -4902785.68504  -3807245.28401     -3366.442
     -2623.202
  21735586.703    21735581.821   -18167729.58708 -14139535.31003      1059.783
       825.805
  21936083.183    21936081.280   -17388948.26608 -13527988.16802      1276.580
       994.738
  23770996.325    23770994.378    -6993094.43305  -5441255.80601     -3731.779
     -2907.880
  23813859.020    23813856.728    -6885486.23506  -5357966.02301      1133.318
       883.105
  20199446.583    20199442.083   -27119630.80909 -21112301.78705      -617.009
      -480.786
  20621736.133    20621733.389   -23755513.07508 -18503712.83104      2006.063
      1563.166
 05  4 14 21 21 35.0000000  0  9G18G14G06G22G09G26G03G21G15
  21050115.933    21050112.127   -23318439.49009 -18161701.55904       -12.570
        -9.795
  22510378.450    22510376.734   -13336437.67907 -10378968.00701      2807.293
      2187.501
  24247951.114    24247955.433    -4885954.32505  -3794129.99001     -3366.017
     -2622.871
  21734578.550    21734573.513   -18173026.85709 -14143663.04403      1059.188
       825.341
  21934869.778    21934868.371   -17395323.93808 -13532956.22202      1273.656
       992.459
  23774547.219    23774544.848    -6974434.99305  -5426715.98201     -3732.077
     -2908.112
  23812781.978    23812779.826    -6891146.31306  -5362376.46401      1130.697
       881.062
  20200034.837    20200030.314   -27116539.35109 -21109892.85405      -619.616
      -482.818
  20619828.161    20619825.439   -23765538.99109 -18511525.23804      2004.271
      1561.769
 05  4 14 21 21 40.0000000  0  9G18G14G06G22G09G26G03G21G15
  21050128.827    21050124.676   -23318374.88009 -18161651.21104       -13.169
       -10.262
  22507708.266    22507706.308   -13350470.16107 -10389902.40101      2805.718
      2186.273
  24251153.951    24251158.414    -4869124.81305  -3781016.11601     -3365.440
     -2622.421
  21733571.252    21733566.179   -18178320.93808 -14147788.29803      1058.618
       824.897
  21933659.398    21933657.648   -17401684.63008 -13537912.60602      1270.796
       990.230
  23778097.640    23778096.078    -6955773.37305  -5412174.46801     -3732.481
     -2908.427
  23811707.605    23811705.575    -6896792.83306  -5366776.36001      1128.115
       879.051
  20200625.581    20200621.118   -27113434.45209 -21107473.45305      -622.198
      -484.829
  20617922.295    20617919.385   -23775555.79209 -18519330.53004      2002.578
      1560.450
 05  4 14 21 21 45.0000000  0  9G18G14G06G22G09G26G03G21G15
  21050141.647    21050137.279   -23318306.63008 -18161598.03204       -13.980
       -10.893
  22505039.563    22505037.430   -13364493.65207 -10400829.78901      2803.808
      2184.786
  24254356.452    24254360.422    -4852296.94505  -3767903.56301     -3365.454
     -2622.432
  21732564.267    21732559.421   -18183611.69207 -14151910.95603      1057.803
       824.262
  21932452.229    21932449.574   -17408030.20808 -13542857.20503      1267.646
       987.776
  23781649.134    23781647.846    -6937109.40905  -5397631.14301     -3733.057
     -2908.875
  23810635.540    23810633.573    -6902425.69306  -5371165.58401      1125.322
       876.874
  20201218.882    20201214.437   -27110315.99709 -21105043.49105      -624.990
      -487.006
  20616018.290    20616015.094   -23785563.33209 -18527128.61504      2000.625
      1558.928
 05  4 14 21 21 50.0000000  0  9G18G14G06G22G09G26G03G21G15
  21050155.320    21050151.283   -23318234.56408 -18161541.87404       -14.830
       -11.556
  22502372.980    22502370.751   -13378507.97907 -10411750.02901      2801.913
      2183.309
  24257558.316    24257562.279    -4835470.67205  -3754792.22601     -3365.260
     -2622.281
  21731558.455    21731553.266   -18188899.02908 -14156030.95103      1057.074
       823.694
  21931247.536    21931245.245   -17414360.55308 -13547789.93802      1264.535
       985.352
  23785201.880    23785200.017    -6918443.03605  -5383085.91701     -3733.512
     -2909.230
  23809565.819    23809563.784    -6908044.75706  -5375544.09101      1122.377
       874.579
  20201814.577    20201810.452   -27107183.81309 -21102602.83105      -627.877
      -489.255
  20614115.667    20614112.292   -23795561.46309 -18534919.35804      1998.646
      1557.387
 05  4 14 21 21 55.0000000  0  9G18G14G06G22G09G26G03G21G15
  21050169.722    21050165.493   -23318158.98009 -18161482.97204       -15.465
       -12.051
  22499707.826    22499705.447   -13392513.39707 -10422663.32001      2800.131
      2181.920
  24260759.829    24260763.992    -4818646.22405  -3741682.30101     -3364.693
     -2621.839
  21730552.743    21730548.178   -18194183.16708 -14160148.45703      1056.547
       823.283
  21930045.686    21930043.655   -17420675.86308 -13552710.96003      1261.513
       982.997
  23788754.510    23788752.853    -6899774.42505  -5368538.97001     -3734.034
     -2909.637
  23808498.761    23808497.408    -6913650.25905  -5379912.00401      1119.657
       872.460
  20202413.412    20202409.310   -27104038.16509 -21100151.67805      -630.558
      -491.344
  20612214.520    20612211.599   -23805550.43408 -18542702.97405      1996.874
      1556.006
 05  4 14 21 22  0.0000000  0  9G18G14G06G22G09G26G03G21G15
  21050184.771    21050180.294   -23318080.02809 -18161421.45304       -15.981
       -12.453
  22497043.615    22497042.052   -13406510.03707 -10433569.77401      2798.643
      2180.760
  24263960.945    24263965.514    -4801823.82205  -3728573.96701     -3364.063
     -2621.347
  21729547.770    21729542.890   -18199464.29708 -14164263.61803      1056.128
       822.957
  21928846.617    21928844.638   -17426976.32608 -13557620.39903      1258.735
       980.833
  23792307.646    23792305.835    -6881103.81805  -5353990.47701     -3734.082
     -2909.674
  23807435.652    23807433.753    -6919242.39805  -5384269.51301      1117.212
       870.555
  20203014.900    20203010.347   -27100879.21209 -21097690.16105      -632.939
      -493.199
  20610315.563    20610312.407   -23815530.39008 -18550479.55605      1995.298
      1554.778
 05  4 14 21 22  5.0000000  0  9G18G14G06G22G09G26G03G21G15
  21050200.756    21050196.415   -23317997.44409 -18161357.10204       -16.816
       -13.103
  22494382.646    22494380.252   -13420497.56507 -10444469.13801      2796.597
      2179.167
  24267162.275    24267166.426    -4785003.08505  -3715466.95301     -3363.954
     -2621.263
  21728543.373    21728539.304   -18204742.05308 -14168376.14703      1055.255
       822.276
  21927650.709    21927648.709   -17433261.59408 -13562518.01403      1255.616
       978.402
  23795860.441    23795859.173    -6862430.84505  -5339440.10901     -3734.843
     -2910.267
  23806373.346    23806372.201    -6924820.79106  -5388616.30001      1114.337
       868.314
  20203618.643    20203613.883   -27097706.63909 -21095218.02705      -635.839
      -495.459
  20608418.266    20608414.669   -23825501.01809 -18558248.87505      1993.306
      1553.226
 05  4 14 21 22 10.0000000  0  9G18G14G06G22G09G26G03G21G15
  21050216.918    21050212.394   -23317911.11809 -18161289.83804       -17.645
       -13.749
  22491722.167    22491720.286   -13434475.96807 -10455361.37801      2794.665
      2177.661
  24270362.840    24270367.134    -4768184.00205  -3702361.23301     -3363.675
     -2621.045
  21727539.857    21727535.252   -18210016.43508 -14172486.05603      1054.450
       821.649
  21926457.540    21926455.676   -17439531.61608 -13567403.73903      1252.477
       975.956
  23799414.564    23799413.338    -6843755.52005  -5324887.92101     -3735.457
     -2910.746
  23805314.364    23805313.082    -6930385.39306  -5392952.37001      1111.442
       866.059
  20204224.687    20204220.642   -27094520.37909 -21092735.22305      -638.660
      -497.657
  20606522.764    20606519.276   -23835462.22509 -18566010.84805      1991.271
      1551.640
 05  4 14 21 22 15.0000000  0  9G18G14G06G22G09G26G03G21G15
  21050234.196    21050229.632   -23317821.47509 -18161219.98304       -18.188
       -14.172
  22489063.123    22489061.475   -13448445.62807 -10466246.81301      2793.175
      2176.500
  24273563.413    24273567.221    -4751366.96005  -3689257.08201     -3363.110
     -2620.605
  21726536.403    21726532.168   -18215287.85508 -14176593.64803      1054.126
       821.397
  21925267.282    21925265.284   -17445786.75108 -13572277.85803      1249.693
       973.787
  23802968.872    23802967.696    -6825078.26105  -5310334.21701     -3735.629
     -2910.880
  23804257.635    23804256.607    -6935936.64506  -5397278.00501      1109.034
       864.182
  20204833.640    20204829.458   -27091320.86009 -21090242.10105      -641.132
      -499.584
  20604628.655    20604625.465   -23845414.44308 -18573765.82005      1989.717
      1550.429
 05  4 14 21 22 20.0000000  0  9G18G14G06G22G09G26G03G21G15
  21050251.779    21050247.496   -23317728.04509 -18161147.18904       -18.886
       -14.717
  22486406.838    22486404.880   -13462406.07507 -10477125.06201      2791.328
      2175.061
  24276762.275    24276766.474    -4734551.59205  -3676154.24201     -3362.700
     -2620.286
  21725534.033    21725529.691   -18220555.82308 -14180698.55703      1053.477
       820.891
  21924080.061    21924077.721   -17452026.58708 -13577140.06102      1246.597
       971.374
  23806524.146    23806522.521    -6806398.64105  -5295778.69801     -3735.859
     -2911.059
  23803204.329    23803202.690    -6941474.04706  -5401592.86501      1106.314
       862.063
  20205445.015    20205440.543   -27088107.60509 -21087738.26205      -643.857
      -501.707
  20602736.628    20602733.326   -23855357.18609 -18581513.40404      1987.798
      1548.934
 05  4 14 21 22 25.0000000  0  9G18G14G06G22G09G26G03G21G15
  21050270.306    21050266.386   -23317630.85809 -18161071.45304       -19.677
       -15.333
  22483752.464    22483750.234   -13476357.28107 -10487996.10401      2789.356
      2173.524
  24279961.995    24279966.232    -4717737.84505  -3663052.66301     -3362.558
     -2620.175
  21724531.851    21724527.596   -18225820.31608 -14184800.74403      1052.554
       820.172
  21922895.863    21922893.057   -17458251.06408 -13581990.30302      1243.433
       968.909
  23810078.783    23810078.054    -6787716.64205  -5281221.30401     -3736.616
     -2911.649
  23802153.564    23802151.582    -6946997.57906  -5405896.91101      1103.248
       859.673
  20206058.971    20206054.937   -27084880.59209 -21085223.70805      -646.733
      -503.948
  20600846.602    20600843.077   -23865290.38208 -18589253.55705      1985.689
      1547.290
 05  4 14 21 22 30.0000000  0  9G18G14G06G22G09G26G03G21G15
  21050289.437    21050285.120   -23317530.30609 -18160993.10704       -20.666
       -16.103
  22481098.982    22481097.137   -13490299.62307 -10498860.24301      2787.254
      2171.886
  24283161.916    24283165.252    -4700926.09005  -3649952.63801     -3362.423
     -2620.070
  21723531.225    21723526.481   -18231081.79208 -14188900.58703      1051.742
       819.539
  21921713.687    21921711.432   -17464460.58408 -13586828.88403      1240.111
       966.320
  23813633.884    23813633.297    -6769032.63905  -5266662.34401     -3737.326
     -2912.202
  23801104.307    23801103.447    -6952507.73606  -5410190.54701      1100.506
       857.537
  20206675.936    20206671.535   -27081640.21609 -21082698.73905      -649.684
      -506.247
  20598957.634    20598954.731   -23875214.51209 -18596986.64805      1983.646
      1545.698
 05  4 14 21 22 35.0000000  0  9G18G14G06G22G09G26G03G21G15
  21050309.468    21050305.071   -23317426.12209 -18160911.91304       -21.138
       -16.471
  22478448.008    22478445.284   -13504232.92107 -10509717.34701      2785.718
      2170.689
  24286360.908    24286363.911    -4684116.29205  -3636854.16401     -3361.817
     -2619.597
  21722530.425    21722525.364   -18236340.03308 -14192997.91704      1051.362
       819.243
  21920534.956    21920532.946   -17470655.00108 -13591655.69602      1237.422
       964.225
  23817189.742    23817188.876    -6750346.49805  -5252101.73401     -3737.398
     -2912.258
  23800059.042    23800057.330    -6958004.24406  -5414473.53501      1097.905
       855.510
  20207294.786    20207290.582   -27078386.29609 -21080163.22005      -652.149
      -508.168
  20597071.054    20597068.075   -23885129.30909 -18604712.46105      1981.948
      1544.375
 05  4 14 21 22 40.0000000  0  9G18G14G06G22G09G26G03G21G15
  21050329.571    21050325.749   -23317318.34309 -18160827.93404       -21.881
       -17.050
  22475798.402    22475795.850   -13518157.16407 -10520567.38801      2783.920
      2169.288
  24289559.232    24289562.903    -4667308.28605  -3623757.02201     -3361.368
     -2619.248
  21721530.428    21721525.469   -18241594.98808 -14197092.68104      1050.707
       818.733
  21919359.238    21919357.105   -17476834.20708 -13596470.64002      1234.340
       961.823
  23820746.116    23820745.090    -6731658.17405  -5237539.42901     -3737.877
     -2912.632
  23799016.127    23799013.940    -6963487.05506  -5418745.85401      1095.243
       853.436
  20207916.521    20207912.783   -27075118.82109 -21077617.13805      -654.835
      -510.261
  20595186.567    20595182.662   -23895034.77009 -18612430.99604      1980.135
      1542.963
 05  4 14 21 22 45.0000000  0  9G18G14G06G22G09G26G03G21G15
  21050350.981    21050346.567   -23317207.03709 -18160741.19304       -22.485
       -17.521
  22473150.006    22473147.446   -13532072.38807 -10531410.40101      2782.261
      2167.996
  24292757.279    24292760.654    -4650502.26505  -3610661.50101     -3360.839
     -2618.836
  21720531.425    21720526.178   -18246846.74508 -14201184.94903      1050.118
       818.274
  21918186.299    21918183.709   -17482998.26908 -13601273.80203      1231.441
       959.564
  23824302.737    23824300.923    -6712967.76405  -5222975.46801     -3738.159
     -2912.851
  23797975.098    23797973.253    -6968956.28606  -5423007.59101      1092.559
       851.345
  20208541.021    20208536.612   -27071837.82309 -21075060.51605      -657.465
      -512.311
  20593303.037    20593299.759   -23904930.92209 -18620142.27704      1978.399
      1541.609
 05  4 14 21 22 50.0000000  0  9G18G14G06G22G09G26G03G21G15
  21050372.562    21050368.816   -23317092.01309 -18160651.55904       -23.335
       -18.183
  22470503.559    22470501.253   -13545978.43307 -10542246.27101      2780.283
      2166.454
  24295954.977    24295958.267    -4633697.98305  -3597567.28101     -3360.625
     -2618.669
  21719532.281    21719527.460   -18252095.19808 -14205274.64803      1049.409
       817.721
  21917016.123    21917013.371   -17489147.03408 -13606065.04002      1228.261
       957.087
  23827860.514    23827857.982    -6694275.17505  -5208409.82001     -3738.687
     -2913.263
  23796936.297    23796935.106    -6974411.75506  -5427258.59901      1089.804
       849.198
  20209167.942    20209163.696   -27068543.18109 -21072493.26305      -660.293
      -514.514
  20591422.009    20591418.340   -23914817.60709 -18627846.20004      1976.440
      1540.083
 05  4 14 21 22 55.0000000  0  9G18G14G06G22G09G26G03G21G15
  21050395.331    21050391.011   -23316973.57009 -18160559.27704       -23.920
       -18.639
  22467859.110    22467856.568   -13559875.51907 -10553075.14601      2778.576
      2165.124
  24299152.738    24299155.633    -4616895.80405  -3584474.72301     -3360.092
     -2618.253
  21718534.132    21718529.403   -18257340.54808 -14209361.93003      1048.898
       817.323
  21915848.687    21915846.287   -17495280.72808 -13610844.53302      1225.368
       954.832
  23831417.419    23831416.022    -6675580.58405  -5193842.62301     -3739.008
     -2913.512
  23795901.108    23795899.686    -6979853.66406  -5431499.03801      1087.145
       847.126
  20209797.687    20209793.046   -27065235.10409 -21069915.54705      -662.772
      -516.446
  20589541.742    20589538.909   -23924695.07109 -18635542.91004      1974.650
      1538.688
 05  4 14 21 23  0.0000000  0  9G18G14G06G22G09G26G03G21G15
  21050418.254    21050414.777   -23316851.53108 -18160464.17904       -24.620
       -19.184
  22465216.293    22465213.528   -13573763.48207 -10563896.92001      2776.772
      2163.719
  24302349.760    24302352.897    -4600095.42905  -3571383.57501     -3359.839
     -2618.056
  21717536.354    21717531.950   -18262582.58708 -14213446.63303      1048.159
       816.747
  21914684.457    21914681.988   -17501399.11908 -13615612.10802      1222.207
       952.369
  23834974.996    23834973.679    -6656883.83905  -5179273.73801     -3739.571
     -2913.951
  23794868.068    23794867.111    -6985281.90306  -5435728.83201      1084.399
       844.986
  20210429.902    20210425.426   -27061913.40009 -21067327.20505      -665.547
      -518.608
  20587664.455    20587661.055   -23934563.08409 -18643232.26004      1972.822
      1537.264
 05  4 14 21 23  5.0000000  0  9G18G14G06G22G09G26G03G21G15
  21050442.507    21050438.492   -23316725.68709 -18160366.11604       -25.493
       -19.865
  22462574.899    22462572.528   -13587642.13707 -10574711.45101      2774.800
      2162.182
  24305545.674    24305549.554    -4583296.78005  -3558293.76701     -3359.468
     -2617.767
  21716539.781    21716534.721   -18267821.22008 -14217528.67703      1047.456
       816.200
  21913523.357    21913520.586   -17507502.07008 -13620367.64402      1219.053
       949.911
  23838533.245    23838532.050    -6638184.75005  -5164703.02801     -3739.971
     -2914.263
  23793837.940    23793837.036    -6990696.27106  -5439947.80901      1081.557
       842.772
  20211064.516    20211059.918   -27058577.90809 -21064728.11705      -668.477
      -520.891
  20585788.067    20585784.417   -23944421.49609 -18650914.14104      1970.718
      1535.624
 05  4 14 21 23 10.0000000  0  9G18G14G06G22G09G26G03G21G15
  21050466.899    21050462.763   -23316596.38609 -18160265.36204       -26.230
       -20.439
  22459935.935    22459933.297   -13601511.85807 -10585519.00301      2773.003
      2160.782
  24308742.381    24308746.107    -4566500.23605  -3545205.58801     -3359.092
     -2617.474
  21715543.220    21715538.161   -18273056.73508 -14221608.29503      1046.768
       815.663
  21912364.817    21912362.113   -17513589.93708 -13625111.43102      1216.011
       947.541
  23842092.075    23842090.829    -6619483.73505  -5150130.82401     -3740.371
     -2914.575
  23792810.086    23792809.225    -6996097.08007  -5444156.22901      1078.731
       840.569
  20211701.564    20211697.323   -27055228.99209 -21062118.57305      -671.186
      -523.002
  20583913.924    20583910.818   -23954270.64509 -18658588.80004      1968.906
      1534.213
 05  4 14 21 23 15.0000000  0  9G18G14G06G22G09G26G03G21G15
  21050492.505    21050488.673   -23316463.47809 -18160161.79504       -26.991
       -21.032
  22457298.928    22457296.238   -13615372.44507 -10596319.44001      2771.261
      2159.424
  24311937.978    24311941.432    -4549705.62505  -3532118.94001     -3358.705
     -2617.173
  21714547.858    21714542.859   -18278289.01509 -14225685.39703      1046.192
       815.215
  21911209.391    21911206.149   -17519662.49508 -13629843.29102      1212.994
       945.190
  23845652.311    23845650.100    -6600780.69205  -5135557.04001     -3740.658
     -2914.799
  23791784.718    23791783.935    -7001484.22506  -5448354.02301      1076.148
       838.557
  20212341.604    20212337.303   -27051866.45109 -21059498.41805      -673.822
      -525.056
  20582041.392    20582038.134   -23964110.36409 -18666256.11404      1967.159
      1532.851
 05  4 14 21 23 20.0000000  0  9G18G14G06G22G09G26G03G21G15
  21050518.362    21050513.909   -23316327.10709 -18160055.53404       -27.633
       -21.532
  22454662.484    22454660.075   -13629224.01007 -10607112.84401      2769.433
      2158.000
  24315133.484    24315137.678    -4532913.05005  -3519033.87201     -3358.190
     -2616.771
  21713552.653    21713547.835   -18283518.16408 -14229760.05503      1045.546
       814.711
  21910056.305    21910053.353   -17525719.92508 -13634563.36702      1209.994
       942.853
  23849211.393    23849209.788    -6582075.68905  -5120981.71501     -3741.212
     -2915.230
  23790762.404    23790761.116    -7006857.76906  -5452541.18201      1073.319
       836.353
  20212983.977    20212979.671   -27048490.42309 -21056867.74205      -676.485
      -527.131
  20580170.970    20580167.576   -23973940.73209 -18673916.13004      1965.170
      1531.301
 05  4 14 21 23 25.0000000  0  9G18G14G06G22G09G26G03G21G15
  21050544.740    21050541.052   -23316187.06009 -18159946.40904       -28.372
       -22.108
  22452028.365    22452025.792   -13643066.36007 -10617899.08601      2767.619
      2156.586
  24318328.513    24318332.622    -4516122.37304  -3505950.28201     -3357.820
     -2616.483
  21712558.210    21712552.938   -18288743.98808 -14233832.11403      1044.802
       814.132
  21908906.633    21908903.738   -17531761.96808 -13639271.44302      1206.858
       940.409
  23852770.830    23852769.656    -6563368.56505  -5106404.74801     -3741.599
     -2915.532
  23789742.082    23789740.369    -7012217.57005  -5456717.65601      1070.637
       834.263
  20213628.936    20213624.705   -27045100.73109 -21054226.42705      -679.192
      -529.241
  20578302.243    20578298.960   -23983761.58109 -18681568.74204      1963.235
      1529.793
 05  4 14 21 23 30.0000000  0  9G18G14G06G22G09G26G03G21G15
  21050572.375    21050568.355   -23316043.41009 -18159834.46804       -29.136
       -22.703
  22449396.059    22449393.836   -13656899.56307 -10628678.18501      2765.717
      2155.104
  24321522.770    24321527.936    -4499333.58204  -3492868.15501     -3357.656
     -2616.356
  21711564.561    21711559.544   -18293966.54108 -14237901.62703      1044.111
       813.593
  21907760.326    21907757.077   -17537788.67808 -13643967.58102      1203.764
       937.998
  23856331.236    23856330.135    -6544659.28705  -5091826.11401     -3742.115
     -2915.933
  23788725.235    23788723.744    -7017563.67105  -5460883.46201      1067.866
       832.103
  20214276.702    20214272.117   -27041697.39609 -21051574.48105      -682.110
      -531.514
  20576434.931    20576431.946   -23993572.93309 -18689213.94804      1961.269
      1528.262
 05  4 14 21 23 35.0000000  0  9G18G14G06G22G09G26G03G21G15
  21050600.275    21050596.075   -23315896.21209 -18159719.76304       -29.885
       -23.287
  22446765.385    22446762.796   -13670723.60307 -10639450.16001      2763.792
      2153.604
  24324717.823    24324722.293    -4482546.88704  -3479787.68101     -3357.302
     -2616.079
  21710571.159    21710565.972   -18299185.85908 -14241968.63403      1043.445
       813.074
  21906615.809    21906613.038   -17543800.10208 -13648651.80302      1200.687
       935.600
  23859891.491    23859890.624    -6525948.07105  -5077245.96601     -3742.409
     -2916.163
  23787710.000    23787708.787    -7022896.10306  -5465038.59101      1065.110
       829.956
  20214926.726    20214922.653   -27038280.49109 -21048911.95905      -684.851
      -533.650
  20574569.562    20574566.710   -24003374.85309 -18696851.80504      1959.354
      1526.769
 05  4 14 21 23 40.0000000  0  9G18G14G06G22G09G26G03G21G15
  21050628.767    21050624.675   -23315745.50509 -18159602.32904       -30.406
       -23.693
  22444136.747    22444133.679   -13684538.61607 -10650215.07801      2762.172
      2152.342
  24327911.571    24327916.693    -4465762.19904  -3466708.74801     -3356.715
     -2615.622
  21709578.686    21709573.446   -18304402.07408 -14246033.20103      1043.002
       812.729
  21905475.007    21905471.878   -17549796.35608 -13653324.19502      1197.802
       933.352
  23863452.856    23863451.738    -6507234.91205  -5062664.27601     -3742.818
     -2916.482
  23786697.606    23786696.125    -7028214.92406  -5469183.13901      1062.421
       827.860
  20215579.558    20215575.540   -27034850.06809 -21046238.90605      -687.457
      -535.681
  20572706.462    20572703.343   -24013167.39309 -18704482.35005      1957.641
      1525.434
 05  4 14 21 23 45.0000000  0  9G18G14G06G22G09G26G03G21G15
  21050658.056    21050654.072   -23315591.15509 -18159482.05904       -31.083
       -24.221
  22441509.134    22441506.444   -13698344.41407 -10660972.82901      2760.357
      2150.927
  24331105.980    24331110.206    -4448979.46604  -3453631.31501     -3356.142
     -2615.176
  21708586.714    21708581.359   -18309614.95508 -14250095.18603      1042.388
       812.251
  21904336.926    21904333.948   -17555777.15608 -13657984.55902      1194.776
       930.994
  23867014.583    23867013.400    -6488519.68805  -5048081.02001     -3743.056
     -2916.667
  23785688.192    23785686.557    -7033519.94306  -5473316.93301      1059.756
       825.784
  20216234.880    20216231.293   -27031405.97109 -21043555.19305      -689.970
      -537.639
  20570844.748    20570841.466   -24022950.35009 -18712105.43105      1955.772
      1523.978
 05  4 14 21 23 50.0000000  0  9G18G14G06G22G09G26G03G21G15
  21050688.280    21050684.385   -23315433.18109 -18159358.95904       -32.034
       -24.961
  22438883.910    22438881.114   -13712141.02007 -10671723.40901      2758.371
      2149.380
  24334298.752    24334303.723    -4432198.71304  -3440555.48901     -3355.979
     -2615.049
  21707595.343    21707589.879   -18314824.59409 -14254154.63703      1041.536
       811.586
  21903201.126    21903198.712   -17561742.60408 -13662632.94902      1191.536
       928.469
  23870576.217    23870574.654    -6469802.38005  -5033496.16401     -3743.767
     -2917.221
  23784681.547    23784679.766    -7038811.25406  -5477440.03801      1056.897
       823.556
  20216892.749    20216889.069   -27027948.22709 -21040860.85705      -693.020
      -540.016
  20568984.819    20568981.910   -24032723.76709 -18719721.07505      1953.606
      1522.290
 05  4 14 21 23 55.0000000  0  9G18G14G06G22G09G26G03G21G15
  21050719.195    21050714.917   -23315271.86009 -18159233.25904       -32.498
       -25.323
  22436260.295    22436257.657   -13725928.68607 -10682467.03401      2756.633
      2148.026
  24337491.193    24337495.935    -4415420.27904  -3427481.44201     -3355.413
     -2614.608
  21706604.588    21706599.497   -18320031.20308 -14258211.73103      1040.959
       811.137
  21902069.090    21902066.828   -17567692.94508 -13667269.56702      1188.532
       926.129
  23874137.277    23874137.045    -6451083.38005  -5018909.90001     -3744.080
     -2917.465
  23783677.178    23783675.184    -7044089.13406  -5481552.66401      1054.240
       821.486
  20217553.626    20217549.223   -27024477.13209 -21038156.10905      -695.535
      -541.975
  20567126.555    20567123.237   -24042487.91008 -18727329.49205      1951.853
      1520.924
 05  4 14 21 24  0.0000000  0  9G18G14G06G22G09G26G03G21G15
  21050750.785    21050746.278   -23315106.81709 -18159104.65704       -33.296
       -25.945
  22433638.453    22433635.727   -13739707.07907 -10693203.42501      2754.839
      2146.628
  24340684.265    24340688.809    -4398643.73104  -3414408.82601     -3354.951
     -2614.248
  21705614.412    21705609.216   -18325234.51209 -14262266.25203      1040.420
       810.717
  21900939.621    21900937.731   -17573627.80508 -13671894.12702      1185.474
       923.746
  23877700.432    23877698.996    -6432362.33805  -5004322.09401     -3744.331
     -2917.660
  23782675.675    23782673.709    -7049353.18206  -5485654.52901      1051.499
       819.350
  20218217.032    20218212.290   -27020992.32309 -21035440.67005      -698.218
      -544.066
  20565270.501    20565267.427   -24052242.42609 -18734930.41205      1950.034
      1519.507
 05  4 14 21 24  5.0000000  0  9G18G14G06G22G09G26G03G21G15
  21050782.768    21050778.301   -23314938.18508 -18158973.25404       -33.989
       -26.485
  22431018.048    22431015.888   -13753476.25807 -10703932.64301      2753.062
      2145.243
  24343876.226    24343881.249    -4381869.14504  -3401337.81801     -3354.682
     -2614.038
  21704625.105    21704619.825   -18330434.53608 -14266318.21303      1039.825
       810.253
  21899813.529    21899810.854   -17579547.25108 -13676506.67402      1182.422
       921.368
  23881263.607    23881261.404    -6413639.27305  -4989732.68901     -3744.594
     -2917.866
  23781677.570    23781674.722    -7054603.48806  -5489745.65101      1048.721
       817.185
  20218882.290    20218878.089   -27017493.79609 -21032714.54705      -701.010
      -546.242
  20563416.122    20563412.741   -24061987.35009 -18742523.86005      1948.096
      1517.997
 05  4 14 21 24 10.0000000  0  9G18G14G06G22G09G26G03G21G15
  21050815.690    21050811.255   -23314766.16008 -18158839.20104       -34.612
       -26.971
  22428399.637    22428397.572   -13767236.41207 -10714654.81801      2751.159
      2143.760
  24347067.902    24347073.268    -4365096.87804  -3388268.53501     -3354.251
     -2613.702
  21703635.794    21703631.084   -18335631.51909 -14270367.80203      1039.230
       809.790
  21898689.356    21898687.404   -17585451.51308 -13681107.38902      1179.479
       919.075
  23884826.566    23884824.445    -6394914.41405  -4975141.89601     -3745.022
     -2918.199
  23780679.662    23780677.749    -7059840.23006  -5493826.24801      1046.066
       815.117
  20219551.057    20219546.636   -27013981.85609 -21029977.97705      -703.606
      -548.265
  20561563.435    20561560.087   -24071722.91708 -18750110.01305      1946.242
      1516.552
 05  4 14 21 24 15.0000000  0  9G18G14G06G22G09G26G03G21G15
  21050849.069    21050844.876   -23314590.32708 -18158702.19804       -35.548
       -27.699
  22425782.969    22425781.338   -13780987.20607 -10725369.69801      2749.159
      2142.202
  24350259.495    24350264.295    -4348326.47004  -3375200.75601     -3353.810
     -2613.358
  21702647.738    21702642.331   -18340825.04908 -14274414.71403      1038.363
       809.114
  21897569.201    21897566.986   -17591340.14108 -13685695.91802      1176.196
       916.516
  23888389.893    23888388.336    -6376187.40205  -4960549.43801     -3745.621
     -2918.666
  23779686.214    23779684.235    -7065063.07006  -5497895.96601      1043.212
       812.893
  20220221.601    20220217.169   -27010456.04609 -21027230.59005      -706.573
      -550.576
  20559712.889    20559709.633   -24081448.67509 -18757688.52504      1944.198
      1514.960
 05  4 14 21 24 20.0000000  0  9G18G14G06G22G09G26G03G21G15
  21050883.094    21050878.798   -23314410.96008 -18158562.42104       -36.249
       -28.246
  22423168.313    22423166.310   -13794728.83007 -10736077.43801      2747.374
      2140.811
  24353450.440    24353455.259    -4331558.17205  -3362134.60101     -3353.402
     -2613.041
  21701659.674    21701654.394   -18346015.45208 -14278459.18003      1037.711
       808.606
  21896451.885    21896448.585   -17597213.42708 -13690272.49502      1173.136
       914.132
  23891954.547    23891952.441    -6357458.54005  -4945955.53501     -3745.878
     -2918.866
  23778694.441    23778693.319    -7070272.23106  -5501955.04201      1040.484
       810.767
  20220895.280    20220890.967   -27006916.70509 -21024472.67105      -709.179
      -552.607
  20557863.407    20557860.608   -24091164.90709 -18765259.60605      1942.276
      1513.462
 05  4 14 21 24 25.0000000  0  9G18G14G06G22G09G26G03G21G15
  21050917.951    21050913.466   -23314228.23108 -18158420.03404       -36.779
       -28.659
  22420555.105    22420552.491   -13808461.44807 -10746778.15701      2745.735
      2139.534
  24356641.377    24356645.783    -4314792.20505  -3349070.24801     -3352.805
     -2612.575
  21700672.685    21700667.960   -18351202.80508 -14282501.25903      1037.288
       808.276
  21895336.757    21895334.826   -17603071.51108 -13694837.23702      1170.193
       911.839
  23895519.023    23895516.833    -6338728.01705  -4931360.33301     -3746.247
     -2919.154
  23777706.261    23777704.416    -7075467.83206  -5506003.57601      1037.849
       808.714
  20221571.218    20221567.102   -27003363.93409 -21021704.27605      -711.770
      -554.626
  20556016.446    20556013.626   -24100871.77009 -18772823.39505      1940.501
      1512.078
 05  4 14 21 24 30.0000000  0  9G18G14G06G22G09G26G03G21G15
  21050952.961    21050948.952   -23314041.89408 -18158274.84504       -37.454
       -29.185
  22417943.244    22417940.673   -13822184.84807 -10757471.70601      2743.860
      2138.073
  24359831.874    24359836.039    -4298028.28305  -3336007.51401     -3352.419
     -2612.275
  21699686.354    21699681.787   -18356386.91009 -14286540.81803      1036.599
       807.739
  21894224.863    21894222.662   -17608914.13408 -13699389.91902      1167.048
       909.388
  23899083.082    23899081.301    -6319995.51005  -4916763.59601     -3746.619
     -2919.443
  23776719.678    23776718.432    -7080649.71805  -5510041.43401      1035.202
       806.651
  20222250.133    20222245.836   -26999797.50909 -21018925.24905      -714.519
      -556.768
  20554171.161    20554168.072   -24110569.02409 -18780379.69304      1938.650
      1510.636
 05  4 14 21 24 35.0000000  0  9G18G14G06G22G09G26G03G21G15
  21050989.369    21050984.971   -23313851.73408 -18158126.66204       -38.348
       -29.881
  22415333.639    22415331.108   -13835898.85307 -10768157.92101      2741.877
      2136.528
  24363021.376    24363025.723    -4281266.37305  -3322946.32401     -3352.146
     -2612.062
  21698700.411    21698695.337   -18361567.67608 -14290577.77603      1035.832
       807.142
  21893115.945    21893113.690   -17614741.16808 -13703930.46202      1163.908
       906.941
  23902648.836    23902646.697    -6301260.93705  -4902165.21601     -3747.034
     -2919.767
  23775736.327    23775735.072    -7085817.69305  -5514068.38801      1032.297
       804.387
  20222931.648    20222926.937   -26996217.28809 -21016135.46905      -717.376
      -558.994
  20552327.897    20552324.721   -24120256.48509 -18787928.35505      1936.608
      1509.045
 05  4 14 21 24 40.0000000  0  9G18G14G06G22G09G26G03G21G15
  21051026.431    21051022.169   -23313658.21808 -18157975.87204       -39.179
       -30.529
  22412726.084    22412722.954   -13849603.83007 -10778837.11101      2739.996
      2135.062
  24366210.397    24366215.150    -4264506.77505  -3309886.93401     -3351.874
     -2611.850
  21697714.968    21697710.172   -18366745.42508 -14294612.38103      1035.133
       806.597
  21892010.043    21892007.712   -17620552.94308 -13708459.10902      1160.714
       904.452
  23906213.963    23906212.102    -6282524.77805  -4887565.63101     -3747.587
     -2920.198
  23774755.796    23774754.668    -7090972.12606  -5518084.85201      1029.395
       802.126
  20223615.023    20223610.958   -26992623.58509 -21013335.17905      -720.234
      -561.221
  20550486.023    20550483.251   -24129934.50009 -18795469.66404      1934.542
      1507.435
 05  4 14 21 24 45.0000000  0  9G18G14G06G22G09G26G03G21G15
  21051063.791    21051059.262   -23313461.19208 -18157822.34704       -39.865
       -31.064
  22410119.514    22410117.119   -13863299.60708 -10789509.13301      2738.127
      2133.606
  24369398.883    24369403.929    -4247749.33205  -3296829.26601     -3351.267
     -2611.377
  21696730.239    21696725.506   -18371919.96608 -14298644.49003      1034.461
       806.073
  21890906.853    21890904.901   -17626349.29908 -13712975.74002      1157.635
       902.053
  23909779.498    23909777.080    -6263786.76104  -4872964.60101     -3747.683
     -2920.272
  23773777.311    23773775.828    -7096112.87606  -5522090.65101      1026.756
       800.069
  20224301.621    20224296.947   -26989016.32309 -21010524.33105      -722.878
      -563.282
  20548646.436    20548643.236   -24139602.92808 -18803003.50804      1932.640
      1505.953
 05  4 14 21 24 50.0000000  0  9G18G14G06G22G09G26G03G21G15
  21051101.851    21051097.430   -23313260.58708 -18157666.03104       -40.468
       -31.533
  22407515.204    22407512.370   -13876986.18608 -10800173.98101      2736.407
      2132.266
  24372587.928    24372592.089    -4230994.04705  -3283773.22501     -3350.897
     -2611.089
  21695746.233    21695740.683   -18377091.34509 -14302674.13203      1033.912
       805.646
  21889806.798    21889804.485   -17632130.19208 -13717480.33802      1154.659
       899.734
  23913345.405    23913343.466    -6245046.90705  -4858362.12001     -3748.100
     -2920.597
  23772801.579    23772800.062    -7101239.91406  -5526085.71901      1024.088
       797.991
  20224990.511    20224986.277   -26985395.45709 -21007702.88005      -725.560
      -565.372
  20546808.432    20546805.211   -24149261.72908 -18810529.84304      1930.831
      1504.544
 05  4 14 21 24 55.0000000  0  9G18G14G06G22G09G26G03G21G15
  21051140.637    21051136.646   -23313056.25408 -18157506.79904       -41.284
       -32.170
  22404912.294    22404909.502   -13890663.37508 -10810831.50201      2734.399
      2130.701
  24375775.170    24375780.459    -4214240.82805  -3270718.82301     -3350.425
     -2610.721
  21694762.590    21694757.931   -18382259.36809 -14306701.15903      1033.188
       805.082
  21888709.845    21888707.742   -17637895.47908 -13721972.75402      1151.396
       897.192
  23916911.856    23916910.254    -6226305.02105  -4843758.06901     -3748.589
     -2920.978
  23771828.970    23771826.671    -7106353.05006  -5530069.97901      1021.157
       795.707
  20225682.321    20225678.000   -26981760.77009 -21004870.66105      -728.399
      -567.583
  20544972.328    20544969.078   -24158910.73308 -18818048.54704      1928.725
      1502.903
 05  4 14 21 25  0.0000000  0  9G18G14G06G22G09G26G03G21G15
  21051180.344    21051175.821   -23312848.44808 -18157344.87405       -42.025
       -32.747
  22402310.961    22402308.823   -13904331.42107 -10821481.92901      2732.594
      2129.294
  24378963.715    24378968.478    -4197489.85405  -3257666.16201     -3349.910
     -2610.320
  21693780.017    21693774.572   -18387424.25709 -14310725.73503      1032.580
       804.608
  21887615.763    21887613.587   -17643645.39808 -13726453.20803      1148.395
       894.853
  23920479.189    23920476.827    -6207561.41505  -4829152.67101     -3749.007
     -2921.304
  23770858.026    23770856.023    -7111452.53206  -5534043.60101      1018.493
       793.631
  20226376.750    20226372.485   -26978112.51209 -21002027.86605      -731.068
      -569.663
  20543138.377    20543135.019   -24168550.14208 -18825559.76805      1926.847
      1501.440
 05  4 14 21 25  5.0000000  0  9G18G14G06G22G09G26G03G21G15
  21051220.742    21051216.068   -23312637.25308 -18157180.31704       -42.573
       -33.174
  22399711.747    22399709.500   -13917990.40407 -10832125.26201      2730.830
      2127.920
  24382151.103    24382155.765    -4180741.26205  -3244615.37101     -3349.482
     -2609.986
  21692797.381    21692792.192   -18392586.13708 -14314747.98403      1032.051
       804.196
  21886524.734    21886522.225   -17649380.00308 -13730921.72802      1145.415
       892.531
  23924046.592    23924044.374    -6188816.21905  -4814546.04501     -3749.267
     -2921.507
  23769890.751    23769888.193    -7116538.49706  -5538006.68501      1015.938
       791.640
  20227073.246    20227068.990   -26974450.79209 -20999174.57905      -733.706
      -571.719
  20541305.381    20541302.313   -24178180.08808 -18833063.61505      1925.088
      1500.069
 05  4 14 21 25 10.0000000  0  9G18G14G06G22G09G26G03G21G15
  21051261.329    21051257.165   -23312422.29208 -18157012.80304       -43.248
       -33.700
  22397114.954    22397112.293   -13931639.93307 -10842761.24001      2729.086
      2126.561
  24385337.881    24385342.708    -4163994.61305  -3231566.07801     -3349.132
     -2609.713
  21691816.257    21691811.119   -18397744.60208 -14318767.55703      1031.562
       803.814
  21885436.007    21885433.922   -17655098.89608 -13735378.01102      1142.348
       890.141
  23927613.184    23927612.231    -6170068.99705  -4799937.82701     -3749.620
     -2921.782
  23768925.759    23768923.186    -7121610.49206  -5541958.88201      1013.090
       789.421
  20227772.881    20227768.621   -26970775.19909 -20996310.48005      -736.363
      -573.789
  20539474.774    20539471.673   -24187800.11508 -18840559.74005      1923.173
      1498.576
 05  4 14 21 25 15.0000000  0  9G18G14G06G22G09G26G03G21G15
  21051302.861    21051298.652   -23312203.96808 -18156842.67804       -43.881
       -34.193
  22394518.717    22394516.332   -13945280.35707 -10853390.12701      2727.286
      2125.158
  24388524.293    24388528.694    -4147250.42305  -3218518.70101     -3348.710
     -2609.384
  21690834.934    21690829.829   -18402900.03209 -14322784.78903      1030.909
       803.306
  21884350.638    21884348.566   -17660802.47708 -13739822.34702      1139.288
       887.757
  23931180.997    23931179.935    -6151320.18605  -4785328.38101     -3749.794
     -2921.917
  23767963.057    23767960.663    -7126668.96805  -5545900.55101      1010.475
       787.383
  20228474.492    20228470.442   -26967086.14209 -20993435.89305      -739.110
      -575.930
  20537645.999    20537642.863   -24197410.59308 -18848048.42605      1921.246
      1497.075
 05  4 14 21 25 20.0000000  0  9G18G14G06G22G09G26G03G21G15
  21051345.354    21051341.122   -23311981.95707 -18156669.67704       -44.692
       -34.825
  22391924.458    22391922.978   -13958911.38207 -10864011.68401      2725.420
      2123.704
  24391709.719    24391714.594    -4130508.34205  -3205472.98201     -3348.149
     -2608.948
  21689854.807    21689849.226   -18408052.13509 -14326799.39703      1030.200
       802.754
  21883268.280    21883266.091   -17666490.40208 -13744254.49802      1136.138
       885.302
  23934749.849    23934747.969    -6132569.39604  -4770717.39301     -3750.308
     -2922.318
  23767002.896    23767000.881    -7131713.54606  -5549831.39701      1007.642
       785.175
  20229179.306    20229175.455   -26963383.27809 -20990550.54805      -741.880
      -578.088
  20535819.141    20535815.870   -24207011.23108 -18855529.43404      1919.209
      1495.488
 05  4 14 21 25 25.0000000  0  9G18G14G06G22G09G26G03G21G15
  21051388.357    21051384.087   -23311756.31808 -18156493.85804       -45.445
       -35.412
  22389332.210    22389330.479   -13972533.10007 -10874625.99001      2723.436
      2122.158
  24394895.685    24394900.399    -4113768.46905  -3192428.97801     -3347.770
     -2608.652
  21688874.793    21688869.659   -18413201.06208 -14330811.54103      1029.515
       802.220
  21882189.049    21882186.858   -17672162.78108 -13748674.52303      1132.924
       882.798
  23938318.068    23938316.406    -6113816.86305  -4756105.06101     -3750.739
     -2922.653
  23766045.289    23766043.747    -7136744.41806  -5553751.53601      1004.882
       783.025
  20229886.588    20229882.310   -26959666.74109 -20987654.54305      -744.591
      -580.201
  20533993.756    20533990.788   -24216602.15008 -18863002.86805      1917.206
      1493.927
 05  4 14 21 25 30.0000000  0  9G18G14G06G22G09G26G03G21G15
  21051431.621    21051428.124   -23311527.17408 -18156315.30104       -46.244
       -36.034
  22386741.799    22386740.018   -13986145.53907 -10885233.05801      2721.427
      2120.592
  24398080.386    24398085.101    -4097030.79805  -3179386.68501     -3347.558
     -2608.487
  21687895.582    21687890.179   -18418346.85608 -14334821.24303      1028.668
       801.559
  21881112.436    21881110.373   -17677819.64708 -13753082.45403      1129.698
       880.284
  23941887.196    23941884.967    -6095062.67005  -4741491.41701     -3751.176
     -2922.994
  23765091.056    23765089.152    -7141761.52705  -5557660.98001      1001.983
       780.766
  20230596.340    20230592.259   -26955936.56009 -20984747.91805      -747.558
      -582.512
  20532170.754    20532167.897   -24226183.34308 -18870468.72705      1915.103
      1492.288
 05  4 14 21 25 35.0000000  0  9G18G14G06G22G09G26G03G21G15
  21051476.031    21051471.937   -23311294.60008 -18156134.08004       -47.047
       -36.660
  22384153.555    22384151.192   -13999748.87707 -10895833.05901      2719.618
      2119.183
  24401265.204    24401269.824    -4080295.63805  -3166346.35501     -3346.935
     -2608.001
  21686916.821    21686911.956   -18423489.63009 -14338828.59703      1028.153
       801.158
  21880038.884    21880036.671   -17683461.12708 -13757478.41202      1126.625
       877.889
  23945455.573    23945454.761    -6076306.83205  -4726876.48301     -3751.403
     -2923.171
  23764139.131    23764137.007    -7146765.07005  -5561559.84401       999.174
       778.577
  20231308.915    20231304.774   -26952192.89409 -20981830.77905      -750.216
      -584.584
  20530349.217    20530345.891   -24235754.94508 -18877927.12105      1913.173
      1490.784
 05  4 14 21 25 40.0000000  0  9G18G14G06G22G09G26G03G21G15
  21051521.004    21051517.032   -23311058.35608 -18155949.99304       -47.589
       -37.082
  22381566.678    22381563.733   -14013342.77107 -10906425.67601      2717.870
      2117.821
  24404448.999    24404453.750    -4063562.54305  -3153307.63801     -3346.461
     -2607.632
  21685938.846    21685934.114   -18428629.05708 -14342833.34303      1027.606
       800.732
  21878968.406    21878966.094   -17689086.90508 -13761862.12702      1123.705
       875.614
  23949025.127    23949023.852    -6057549.21805  -4712260.18001     -3751.593
     -2923.319
  23763189.243    23763187.695    -7151754.72305  -5565447.88701       996.561
       776.541
  20232024.016    20232019.960   -26948435.42509 -20978902.88105      -752.887
      -586.665
  20528529.531    20528526.608   -24245316.64309 -18885377.79405      1911.371
      1489.380
